[[{"header":{"parameterUnit":"m.s-1","parameterCategory":1,"la1":31.0,"la2":29.5877,"lo1":-88.7671,"lo2":-86.6584,"dy":0.0162,"dx":0.0185,"nx":115,"ny":88,"refTime":"2024-04-09T12:00:00:Z","depth":0,"parameterNumber":2,"parameterNumberName":"U-component_of_WINDS"},"data":[0.0,0.0,0.0,0.0,0.0,0.0,0.0,0.0,0.0,0.0,0.0,0.0,0.0,0.0,0.0,0.0,0.0,0.0,0.0,0.0,0.0,0.0,0.0,0.0,0.0,0.0,0.0,0.0,0.0,0.0,0.0,0.0,0.0,0.0,0.0,0.0,0.0,0.0,0.0,0.0,0.0,0.0,0.0,0.0,0.0,0.0,0.0,0.0,0.0,0.0,0.0,0.0,0.0,0.0,0.0,0.0,0.0,0.0,0.0,0.0,0.0,0.0,0.0,0.0,0.0,0.0,0.0,0.0,0.0,0.0,0.0,0.0,0.0,0.0,0.0,0.0,0.0,0.0,0.0,0.0,0.0,0.0,0.0,0.0,0.0,0.0,0.0,0.0,0.0,0.0,0.0,0.0,0.0,0.0,0.0,0.0,0.0,0.0,0.0,0.0,0.0,0.0,0.0,0.0,0.0,0.0,0.0,0.0,0.0,0.0,0.0,0.0,0.0,0.0,0.0,0.0,0.0,0.0,0.0,0.0,0.0,0.0,0.0,0.0,0.0,0.0,0.0,0.0,0.0,0.0,0.0,0.0,0.0,0.0,0.0,0.0,0.0,0.0,0.0,0.0,0.0,0.0,0.0,0.0,0.0,0.0,0.0,0.0,0.0,0.0,0.0,0.0,0.0,0.0,0.0,0.0,0.0,0.0,0.0,0.0,0.0,0.0,0.0,0.0,0.0,0.0,0.0,0.0,0.0,0.0,0.0,0.0,0.0,0.0,0.0,0.0,0.0,0.0,0.0,0.0,0.0,0.0,0.0,0.0,0.0,0.0,0.0,0.0,0.0,0.0,0.0,0.0,0.0,0.0,0.0,0.0,0.0,0.0,0.0,0.0,0.0,0.0,0.0,0.0,0.0,0.0,0.0,0.0,0.0,0.0,0.0,0.0,0.0,0.0,0.0,0.0,0.0,0.0,0.0,0.0,0.0,0.0,0.0,0.0,0.0,0.0,0.0,0.0,0.0,0.0,0.0,0.0,0.0,0.0,0.0,0.0,0.0,0.0,0.0,0.0,0.0,0.0,0.0,0.0,0.0,0.0,0.0,0.0,0.0,0.0,0.0,0.0,0.0,0.0,0.0,0.0,0.0,0.0,0.0,0.0,0.0,0.0,0.0,0.0,0.0,0.0,0.0,0.0,0.0,0.0,0.0,0.0,0.0,0.0,0.0,0.0,0.0,0.0,0.0,0.0,0.0,0.0,0.0,0.0,0.0,0.0,0.0,0.0,0.0,0.0,0.0,0.0,0.0,0.0,0.0,0.0,0.0,0.0,0.0,0.0,0.0,0.0,0.0,0.0,0.0,0.0,0.0,0.0,0.0,0.0,0.0,0.0,0.0,0.0,0.0,0.0,0.0,0.0,0.0,0.0,0.0,0.0,0.0,0.0,0.0,0.0,0.0,0.0,0.0,0.0,0.0,0.0,0.0,0.0,0.0,0.0,0.0,0.0,0.0,0.0,0.0,0.0,0.0,0.0,0.0,0.0,0.0,0.0,0.0,0.0,0.0,0.0,0.0,0.0,0.0,0.0,0.0,0.0,0.0,0.0,0.0,0.0,0.0,0.0,0.0,0.0,0.0,0.0,0.0,0.0,0.0,0.0,0.0,0.0,0.0,0.0,0.0,0.0,0.0,0.0,0.0,0.0,0.0,0.0,0.0,0.0,0.0,0.0,0.0,0.0,0.0,0.0,0.0,0.0,0.0,0.0,0.0,0.0,0.0,0.0,0.0,0.0,0.0,0.0,0.0,0.0,0.0,0.0,0.0,0.0,0.0,0.0,0.0,0.0,0.0,0.0,0.0,0.0,0.0,0.0,0.0,0.0,0.0,0.0,0.0,0.0,0.0,0.0,0.0,0.0,0.0,0.0,0.0,0.0,0.0,0.0,0.0,0.0,0.0,0.0,0.0,0.0,0.0,0.0,0.0,0.0,0.0,0.0,0.0,0.0,0.0,0.0,0.0,0.0,0.0,0.0,0.0,0.0,0.0,0.0,0.0,0.0,0.0,0.0,0.0,0.0,0.0,0.0,0.0,0.0,0.0,0.0,0.0,0.0,0.0,0.0,0.0,0.0,0.0,0.0,0.0,0.0,0.0,0.0,0.0,0.0,0.0,0.0,0.0,0.0,0.0,0.0,0.0,0.0,0.0,0.0,0.0,0.0,0.0,0.0,0.0,0.0,0.0,0.0,0.0,0.0,0.0,0.0,0.0,0.0,0.0,0.0,0.0,0.0,0.0,0.0,0.0,0.0,0.0,0.0,0.0,0.0,0.0,0.0,0.0,0.0,0.0,0.0,0.0,0.0,0.0,0.0,0.0,0.0,0.0,0.0,0.0,0.0,0.0,0.0,0.0,0.0,0.0,0.0,0.0,0.0,0.0,0.0,0.0,0.0,0.0,0.0,0.0,0.0,0.0,0.0,0.0,0.0,0.0,0.0,0.0,0.0,0.0,0.0,0.0,0.0,0.0,0.0,0.0,0.0,0.0,0.0,0.0,0.0,0.0,0.0,0.0,0.0,0.0,0.0,0.0,0.0,0.0,0.0,0.0,0.0,0.0,0.0,0.0,0.0,0.0,0.0,0.0,0.0,0.0,0.0,0.0,0.0,0.0,0.0,0.0,0.0,0.0,0.0,0.0,0.0,0.0,0.0,0.0,0.0,0.0,0.0,0.0,0.0,0.0,0.0,0.0,0.0,0.0,0.0,0.0,0.0,0.0,0.0,0.0,0.0,0.0,0.0,0.0,0.0,0.0,0.0,0.0,0.0,0.0,0.0,0.0,0.0,0.0,0.0,0.0,0.0,0.0,0.0,0.0,0.0,0.0,0.0,0.0,0.0,0.0,0.0,0.0,0.0,0.0,0.0,0.0,0.0,0.0,0.0,0.0,0.0,0.0,0.0,0.0,0.0,0.0,0.0,0.0,0.0,0.0,0.0,0.0,0.0,0.0,0.0,0.0,0.0,0.0,0.0,0.0,0.0,0.0,0.0,0.0,0.0,0.0,0.0,0.0,0.0,0.0,0.0,0.0,0.0,0.0,0.0,0.0,0.0,0.0,0.0,0.0,0.0,0.0,0.0,0.0,0.0,0.0,0.0,0.0,0.0,0.0,0.0,0.0,0.0,0.0,0.0,0.0,0.0,0.0,0.0,0.0,0.0,0.0,0.0,0.0,0.0,0.0,0.0,0.0,0.0,0.0,0.0,0.0,0.0,0.0,0.0,0.0,0.0,0.0,0.0,0.0,0.0,0.0,0.0,0.0,0.0,0.0,0.0,0.0,0.0,0.0,0.0,0.0,0.0,0.0,0.0,0.0,0.0,0.0,0.0,0.0,0.0,0.0,0.0,0.0,0.0,0.0,0.0,0.0,0.0,0.0,0.0,0.0,0.0,0.0,0.0,0.0,0.0,0.0,0.0,0.0,0.0,0.0,0.0,0.0,0.0,0.0,0.0,0.0,0.0,0.0,0.0,0.0,0.0,0.0,0.0,0.0,0.0,0.0,0.0,0.0,0.0,0.0,0.0,0.0,0.0,0.0,0.0,0.0,0.0,0.0,0.0,0.0,0.0,0.0,0.0,0.0,0.0,0.0,0.0,0.0,0.0,0.0,0.0,0.0,0.0,0.0,0.0,0.0,0.0,0.0,0.0,0.0,0.0,0.0,0.0,0.0,0.0,0.0,0.0,0.0,0.0,0.0,0.0,0.0,0.0,0.0,0.0,0.0,0.0,0.0,0.0,0.0,0.0,0.0,0.0,0.0,0.0,0.0,0.0,0.0,0.0,0.0,0.0,0.0,0.0,0.0,0.0,0.0,0.0,0.0,0.0,0.0,0.0,0.0,0.0,0.0,0.0,0.0,0.0,0.0,0.0,0.0,0.0,0.0,0.0,0.0,0.0,0.0,0.0,0.0,0.0,0.0,0.0,0.0,0.0,0.0,0.0,0.0,0.0,0.0,0.0,0.0,0.0,0.0,0.0,0.0,0.0,0.0,0.0,0.0,0.0,0.0,0.0,0.0,0.0,0.0,0.0,0.0,0.0,0.0,0.0,0.0,0.0,0.0,0.0,0.0,0.0,0.0,0.0,0.0,0.0,0.0,0.0,0.0,0.0,0.0,0.0,0.0,0.0,0.0,0.0,0.0,0.0,0.0,0.0,0.0,0.0,0.0,0.0,0.0,0.0,0.0,0.0,0.0,0.0,0.0,0.0,0.0,0.0,0.0,0.0,0.0,0.0,0.0,0.0,2.0448,0.0,0.0,0.0,0.0,0.0,0.0,0.0,0.0,0.0,0.0,0.0,0.0,0.0,0.0,0.0,0.0,0.0,0.0,0.0,0.0,0.0,0.0,0.0,0.0,0.0,0.0,0.0,0.0,0.0,0.0,0.0,0.0,0.0,0.0,0.0,0.0,0.0,0.0,0.0,0.0,0.0,0.0,0.0,0.0,0.0,0.0,0.0,0.0,0.0,0.0,0.0,0.0,0.0,0.0,0.0,0.0,0.0,0.0,0.0,0.0,0.0,0.0,0.0,0.0,0.0,0.0,0.0,0.0,0.0,0.0,0.0,0.0,0.0,0.0,0.0,0.0,0.0,0.0,0.0,0.0,0.0,0.0,0.0,0.0,0.0,0.0,0.0,0.0,0.0,0.0,0.0,0.0,0.0,0.0,0.0,0.0,0.0,0.0,0.0,0.0,0.0,0.0,0.0,0.0,0.0,0.0,0.0,0.0,0.0,0.0,2.0323,2.0306,2.034,2.0381,2.0452,0.0,0.0,0.0,0.0,0.0,0.0,0.0,0.0,0.0,0.0,0.0,0.0,0.0,0.0,0.0,0.0,0.0,0.0,0.0,0.0,0.0,0.0,0.0,0.0,0.0,0.0,0.0,0.0,0.0,0.0,0.0,0.0,0.0,0.0,0.0,0.0,0.0,0.0,0.0,0.0,0.0,0.0,0.0,0.0,0.0,0.0,0.0,0.0,0.0,0.0,0.0,0.0,0.0,0.0,0.0,0.0,0.0,0.0,0.0,0.0,0.0,0.0,0.0,0.0,0.0,0.0,0.0,0.0,0.0,0.0,0.0,0.0,0.0,0.0,0.0,0.0,0.0,0.0,0.0,0.0,0.0,0.0,0.0,0.0,0.0,0.0,0.0,0.0,0.0,0.0,0.0,0.0,0.0,0.0,0.0,0.0,0.0,0.0,0.0,0.0,0.0,0.0,0.0,0.0,0.0,0.0,0.0,0.0,0.0,0.0,0.0,0.0,2.039,2.0422,2.0414,0.0,0.0,0.0,0.0,0.0,0.0,0.0,0.0,0.0,0.0,0.0,0.0,0.0,0.0,0.0,0.0,0.0,0.0,0.0,0.0,0.0,0.0,0.0,0.0,0.0,0.0,0.0,0.0,0.0,0.0,0.0,0.0,0.0,0.0,0.0,0.0,0.0,0.0,0.0,0.0,0.0,0.0,0.0,0.0,0.0,0.0,0.0,0.0,0.0,0.0,0.0,0.0,0.0,0.0,0.0,0.0,0.0,0.0,0.0,0.0,0.0,0.0,0.0,0.0,0.0,0.0,0.0,0.0,0.0,0.0,0.0,0.0,0.0,0.0,0.0,0.0,0.0,0.0,0.0,0.0,0.0,0.0,0.0,0.0,0.0,0.0,0.0,0.0,0.0,0.0,0.0,0.0,0.0,0.0,0.0,0.0,0.0,0.0,0.0,0.0,0.0,0.0,0.0,0.0,0.0,0.0,0.0,0.0,0.0,0.0,2.0434,2.0464,2.049,0.0,2.0497,0.0,0.0,0.0,0.0,0.0,0.0,0.0,0.0,0.0,0.0,0.0,0.0,0.0,0.0,0.0,0.0,0.0,0.0,0.0,0.0,0.0,0.0,0.0,0.0,0.0,0.0,0.0,0.0,0.0,0.0,0.0,0.0,0.0,0.0,0.0,0.0,0.0,0.0,0.0,0.0,0.0,0.0,0.0,0.0,0.0,0.0,0.0,0.0,0.0,0.0,0.0,0.0,0.0,0.0,0.0,0.0,0.0,0.0,0.0,0.0,0.0,0.0,0.0,0.0,0.0,0.0,0.0,0.0,0.0,0.0,0.0,0.0,0.0,0.0,0.0,0.0,0.0,0.0,0.0,0.0,0.0,0.0,0.0,0.0,0.0,0.0,0.0,0.0,0.0,0.0,0.0,0.0,0.0,0.0,0.0,0.0,0.0,0.0,0.0,0.0,0.0,0.0,0.0,0.0,0.0,0.0,0.0,0.0,0.0,0.0,2.0472,2.05,2.0536,2.0568,0.0,0.0,0.0,0.0,0.0,0.0,0.0,0.0,0.0,0.0,0.0,0.0,0.0,0.0,0.0,0.0,0.0,0.0,0.0,0.0,0.0,0.0,0.0,0.0,0.0,0.0,0.0,0.0,0.0,0.0,0.0,0.0,0.0,0.0,0.0,0.0,0.0,0.0,0.0,0.0,0.0,0.0,0.0,0.0,0.0,0.0,0.0,0.0,0.0,0.0,0.0,0.0,0.0,0.0,0.0,0.0,0.0,0.0,0.0,0.0,0.0,0.0,0.0,0.0,0.0,0.0,0.0,0.0,0.0,0.0,0.0,0.0,0.0,0.0,0.0,0.0,0.0,0.0,0.0,0.0,0.0,0.0,0.0,0.0,0.0,0.0,0.0,0.0,0.0,0.0,0.0,0.0,0.0,0.0,0.0,0.0,0.0,0.0,0.0,0.0,0.0,0.0,0.0,0.0,0.0,0.0,0.0,0.0,0.0,0.0,2.0461,2.0531,2.0531,2.0566,2.0593,2.0593,0.0,0.0,0.0,0.0,0.0,0.0,0.0,0.0,0.0,0.0,0.0,0.0,0.0,0.0,0.0,0.0,0.0,0.0,0.0,0.0,0.0,0.0,0.0,0.0,0.0,0.0,0.0,0.0,0.0,0.0,0.0,0.0,0.0,0.0,0.0,0.0,0.0,0.0,0.0,0.0,0.0,0.0,0.0,0.0,0.0,0.0,0.0,0.0,0.0,0.0,0.0,0.0,0.0,0.0,0.0,0.0,0.0,0.0,0.0,0.0,0.0,0.0,0.0,0.0,0.0,0.0,0.0,0.0,0.0,0.0,0.0,0.0,0.0,0.0,0.0,0.0,0.0,0.0,0.0,0.0,0.0,0.0,0.0,0.0,0.0,0.0,0.0,0.0,0.0,0.0,0.0,0.0,0.0,0.0,0.0,0.0,0.0,0.0,0.0,0.0,0.0,0.0,0.0,0.0,0.0,0.0,0.0,0.0,2.0496,2.0558,2.0593,2.0593,2.0593,2.0593,0.0,0.0,0.0,0.0,0.0,0.0,0.0,0.0,0.0,0.0,0.0,0.0,0.0,0.0,0.0,0.0,0.0,0.0,0.0,0.0,0.0,0.0,0.0,0.0,0.0,0.0,0.0,0.0,0.0,0.0,0.0,0.0,0.0,0.0,0.0,0.0,0.0,0.0,0.0,0.0,0.0,0.0,0.0,0.0,0.0,0.0,0.0,0.0,0.0,0.0,0.0,0.0,0.0,0.0,0.0,0.0,0.0,0.0,0.0,0.0,0.0,0.0,0.0,0.0,0.0,0.0,0.0,0.0,0.0,0.0,0.0,0.0,0.0,0.0,0.0,0.0,0.0,0.0,0.0,0.0,0.0,0.0,0.0,0.0,0.0,0.0,0.0,0.0,0.0,0.0,0.0,0.0,0.0,0.0,0.0,0.0,0.0,0.0,0.0,0.0,0.0,0.0,0.0,0.0,0.0,0.0,0.0,0.0,0.0,2.0499,2.057,2.0581,2.0547,2.0561,2.0576,0.0,0.0,0.0,0.0,0.0,0.0,0.0,0.0,0.0,0.0,0.0,0.0,0.0,0.0,0.0,0.0,0.0,0.0,0.0,0.0,0.0,0.0,0.0,0.0,0.0,0.0,0.0,0.0,0.0,0.0,0.0,0.0,0.0,0.0,0.0,0.0,0.0,0.0,0.0,0.0,0.0,0.0,0.0,0.0,0.0,0.0,0.0,0.0,0.0,0.0,0.0,0.0,0.0,0.0,0.0,0.0,0.0,0.0,0.0,0.0,0.0,0.0,0.0,0.0,0.0,0.0,0.0,0.0,0.0,0.0,0.0,0.0,0.0,0.0,0.0,0.0,0.0,0.0,0.0,0.0,0.0,0.0,0.0,0.0,0.0,0.0,0.0,0.0,0.0,0.0,0.0,0.0,0.0,0.0,0.0,0.0,0.0,0.0,0.0,0.0,0.0,0.0,0.0,0.0,0.0,0.0,0.0,0.0,0.0,2.1347,0.0,2.1367,2.1347,2.1366,2.123,0.0,0.0,0.0,0.0,0.0,0.0,0.0,0.0,0.0,0.0,0.0,0.0,0.0,0.0,0.0,0.0,0.0,0.0,0.0,0.0,0.0,0.0,0.0,0.0,0.0,0.0,0.0,0.0,0.0,0.0,0.0,0.0,0.0,0.0,0.0,0.0,0.0,0.0,0.0,0.0,0.0,0.0,0.0,0.0,0.0,0.0,0.0,0.0,0.0,0.0,0.0,0.0,0.0,0.0,0.0,0.0,0.0,0.0,0.0,0.0,0.0,0.0,0.0,0.0,0.0,0.0,0.0,0.0,0.0,0.0,0.0,0.0,0.0,0.0,0.0,0.0,0.0,0.0,0.0,0.0,0.0,0.0,0.0,0.0,0.0,0.0,0.0,0.0,0.0,0.0,0.0,0.0,0.0,0.0,0.0,0.0,0.0,0.0,0.0,0.0,0.0,0.0,0.0,0.0,0.0,0.0,0.0,0.0,2.3085,2.3068,2.2993,2.2933,2.3064,2.2947,2.26,0.0,0.0,0.0,0.0,0.0,0.0,0.0,0.0,0.0,0.0,0.0,0.0,0.0,0.0,0.0,0.0,0.0,0.0,0.0,0.0,0.0,0.0,0.0,0.0,0.0,0.0,0.0,0.0,0.0,0.0,0.0,0.0,0.0,0.0,0.0,0.0,0.0,0.0,0.0,0.0,0.0,0.0,0.0,0.0,0.0,0.0,0.0,0.0,0.0,0.0,0.0,0.0,0.0,0.0,0.0,0.0,0.0,0.0,0.0,0.0,0.0,0.0,0.0,0.0,0.0,0.0,0.0,0.0,0.0,0.0,0.0,0.0,0.0,0.0,0.0,0.0,0.0,0.0,0.0,0.0,0.0,0.0,0.0,0.0,0.0,0.0,0.0,0.0,0.0,0.0,0.0,0.0,0.0,0.0,0.0,0.0,0.0,0.0,0.0,0.0,0.0,0.0,0.0,0.0,0.0,0.0,0.0,0.0,0.0,2.313,2.3043,2.3009,2.3037,2.3007,2.2867,0.0,0.0,0.0,0.0,0.0,0.0,0.0,0.0,0.0,0.0,0.0,0.0,0.0,0.0,0.0,0.0,0.0,0.0,0.0,0.0,0.0,0.0,0.0,0.0,0.0,0.0,0.0,0.0,0.0,0.0,0.0,0.0,0.0,0.0,0.0,0.0,0.0,0.0,0.0,0.0,0.0,0.0,0.0,0.0,0.0,0.0,0.0,0.0,0.0,0.0,0.0,0.0,0.0,0.0,0.0,0.0,0.0,0.0,0.0,0.0,0.0,0.0,0.0,0.0,0.0,0.0,0.0,0.0,0.0,0.0,0.0,0.0,0.0,0.0,0.0,0.0,0.0,0.0,0.0,0.0,0.0,0.0,0.0,0.0,0.0,0.0,0.0,0.0,0.0,0.0,0.0,0.0,0.0,0.0,0.0,0.0,0.0,0.0,0.0,0.0,0.0,0.0,0.0,0.0,0.0,0.0,0.0,0.0,0.0,2.41,2.3972,2.3941,2.3913,2.3927,2.3801,2.3503,0.0,0.0,0.0,0.0,0.0,0.0,0.0,0.0,0.0,0.0,0.0,0.0,0.0,0.0,0.0,0.0,0.0,0.0,0.0,0.0,0.0,0.0,0.0,0.0,0.0,0.0,0.0,0.0,0.0,0.0,0.0,0.0,0.0,0.0,0.0,0.0,0.0,0.0,0.0,0.0,0.0,0.0,0.0,0.0,0.0,0.0,0.0,0.0,0.0,0.0,0.0,0.0,0.0,0.0,0.0,0.0,0.0,0.0,0.0,0.0,0.0,0.0,0.0,0.0,0.0,0.0,0.0,0.0,0.0,0.0,0.0,0.0,0.0,0.0,0.0,0.0,0.0,0.0,0.0,0.0,0.0,0.0,0.0,0.0,0.0,0.0,0.0,0.0,0.0,0.0,0.0,0.0,0.0,0.0,0.0,0.0,0.0,0.0,0.0,0.0,0.0,0.0,0.0,0.0,0.0,0.0,0.0,0.0,2.5606,2.5544,2.5478,2.5482,2.5485,2.5163,0.0,0.0,0.0,0.0,0.0,0.0,0.0,0.0,0.0,0.0,0.0,0.0,0.0,0.0,0.0,0.0,0.0,0.0,0.0,0.0,0.0,0.0,0.0,0.0,0.0,0.0,0.0,0.0,0.0,0.0,0.0,0.0,0.0,0.0,0.0,0.0,0.0,0.0,0.0,0.0,0.0,0.0,0.0,0.0,0.0,0.0,0.0,0.0,0.0,0.0,0.0,0.0,0.0,0.0,0.0,0.0,0.0,0.0,0.0,0.0,0.0,0.0,0.0,0.0,0.0,0.0,0.0,0.0,0.0,0.0,0.0,0.0,0.0,0.0,0.0,0.0,0.0,0.0,0.0,0.0,0.0,0.0,0.0,0.0,0.0,0.0,0.0,0.0,0.0,0.0,0.0,0.0,0.0,0.0,0.0,0.0,0.0,0.0,0.0,0.0,0.0,0.0,0.0,0.0,0.0,0.0,0.0,0.0,0.0,2.5531,2.5515,2.5517,2.5515,2.5517,2.5398,0.0,0.0,0.0,0.0,0.0,0.0,0.0,0.0,0.0,0.0,0.0,0.0,0.0,0.0,0.0,0.0,0.0,0.0,0.0,0.0,0.0,0.0,0.0,0.0,0.0,0.0,0.0,0.0,0.0,0.0,0.0,0.0,0.0,0.0,0.0,0.0,0.0,0.0,0.0,0.0,0.0,0.0,0.0,0.0,0.0,0.0,0.0,0.0,0.0,0.0,0.0,0.0,0.0,0.0,0.0,0.0,0.0,0.0,0.0,0.0,0.0,0.0,0.0,0.0,0.0,0.0,0.0,0.0,0.0,0.0,0.0,0.0,0.0,0.0,0.0,0.0,0.0,0.0,0.0,0.0,0.0,0.0,0.0,0.0,0.0,0.0,0.0,0.0,0.0,0.0,0.0,0.0,0.0,0.0,0.0,0.0,0.0,0.0,0.0,0.0,0.0,0.0,0.0,0.0,0.0,0.0,0.0,0.0,2.5505,2.5511,2.5511,2.5515,2.5512,2.5522,2.5511,0.0,0.0,0.0,0.0,0.0,0.0,0.0,0.0,0.0,0.0,0.0,0.0,0.0,0.0,0.0,0.0,0.0,0.0,0.0,0.0,0.0,0.0,0.0,0.0,0.0,0.0,0.0,0.0,0.0,0.0,0.0,0.0,0.0,0.0,0.0,0.0,0.0,0.0,0.0,0.0,0.0,0.0,0.0,0.0,0.0,0.0,0.0,0.0,0.0,0.0,0.0,0.0,0.0,0.0,0.0,0.0,0.0,0.0,0.0,0.0,0.0,0.0,0.0,0.0,0.0,0.0,0.0,0.0,0.0,0.0,0.0,0.0,0.0,0.0,0.0,0.0,0.0,0.0,0.0,0.0,0.0,0.0,0.0,0.0,0.0,0.0,0.0,0.0,0.0,0.0,0.0,0.0,0.0,0.0,0.0,0.0,0.0,0.0,0.0,0.0,0.0,0.0,0.0,0.0,0.0,0.0,0.0,0.0,2.5666,2.5762,2.5762,2.5762,2.5743,2.5588,2.5511,0.0,0.0,0.0,0.0,0.0,0.0,0.0,0.0,0.0,0.0,0.0,0.0,0.0,0.0,0.0,0.0,0.0,0.0,0.0,0.0,0.0,0.0,0.0,0.0,0.0,0.0,0.0,0.0,0.0,0.0,0.0,0.0,0.0,0.0,0.0,0.0,0.0,0.0,0.0,0.0,0.0,0.0,0.0,0.0,0.0,0.0,0.0,0.0,0.0,0.0,0.0,0.0,0.0,0.0,0.0,0.0,0.0,0.0,0.0,0.0,0.0,0.0,0.0,0.0,0.0,0.0,0.0,0.0,0.0,0.0,0.0,0.0,0.0,0.0,0.0,0.0,0.0,0.0,0.0,0.0,0.0,0.0,0.0,0.0,0.0,0.0,0.0,0.0,0.0,0.0,0.0,0.0,0.0,0.0,0.0,0.0,0.0,0.0,0.0,0.0,0.0,0.0,0.0,0.0,0.0,0.0,0.0,0.0,2.6768,2.7445,2.7464,2.7464,2.7445,2.6188,2.5511,0.0,0.0,0.0,0.0,0.0,0.0,0.0,0.0,0.0,0.0,0.0,0.0,0.0,0.0,0.0,0.0,0.0,0.0,0.0,0.0,0.0,0.0,0.0,0.0,0.0,0.0,0.0,0.0,0.0,0.0,0.0,0.0,0.0,0.0,0.0,0.0,0.0,0.0,0.0,0.0,0.0,0.0,0.0,0.0,0.0,0.0,0.0,0.0,2.809,0.0,0.0,0.0,0.0,0.0,0.0,0.0,0.0,0.0,0.0,0.0,0.0,0.0,0.0,0.0,0.0,0.0,0.0,0.0,0.0,0.0,0.0,0.0,0.0,0.0,0.0,0.0,0.0,0.0,0.0,0.0,0.0,0.0,0.0,0.0,0.0,0.0,0.0,0.0,0.0,0.0,0.0,0.0,0.0,0.0,0.0,0.0,0.0,0.0,0.0,0.0,0.0,0.0,0.0,0.0,0.0,0.0,0.0,0.0,2.7522,2.7967,2.7987,2.7987,2.7948,2.7147,2.6663,0.0,0.0,0.0,0.0,0.0,0.0,0.0,0.0,0.0,0.0,0.0,0.0,0.0,0.0,0.0,0.0,0.0,0.0,0.0,0.0,0.0,0.0,0.0,0.0,0.0,0.0,0.0,0.0,0.0,0.0,0.0,0.0,0.0,0.0,0.0,0.0,0.0,0.0,0.0,0.0,0.0,0.0,0.0,0.0,0.0,0.0,0.0,0.0,0.0,0.0,0.0,0.0,0.0,0.0,0.0,0.0,0.0,0.0,0.0,0.0,0.0,0.0,0.0,0.0,0.0,0.0,0.0,0.0,0.0,0.0,0.0,0.0,0.0,0.0,0.0,0.0,0.0,0.0,0.0,0.0,0.0,0.0,0.0,0.0,0.0,0.0,0.0,0.0,0.0,0.0,0.0,0.0,0.0,0.0,0.0,0.0,0.0,0.0,0.0,0.0,0.0,0.0,0.0,0.0,0.0,0.0,0.0,2.8229,2.8257,2.8401,2.8393,2.8401,2.8401,2.8414,2.8414,0.0,0.0,0.0,0.0,0.0,0.0,0.0,0.0,0.0,0.0,0.0,0.0,0.0,0.0,0.0,0.0,0.0,0.0,0.0,0.0,0.0,0.0,0.0,0.0,0.0,0.0,0.0,0.0,0.0,0.0,0.0,0.0,0.0,0.0,0.0,0.0,0.0,0.0,0.0,2.582,2.6502,0.0,0.0,0.0,0.0,0.0,0.0,0.0,0.0,3.0801,0.0,0.0,0.0,0.0,0.0,0.0,0.0,0.0,0.0,0.0,0.0,0.0,0.0,0.0,0.0,0.0,0.0,0.0,0.0,0.0,0.0,0.0,0.0,0.0,0.0,0.0,0.0,0.0,0.0,0.0,0.0,0.0,0.0,0.0,0.0,0.0,0.0,0.0,0.0,0.0,0.0,0.0,0.0,0.0,0.0,0.0,0.0,0.0,0.0,0.0,0.0,0.0,0.0,0.0,0.0,0.0,2.9089,2.9099,2.9438,3.0153,3.0153,3.0172,3.0172,3.0172,3.0172,3.0114,0.0,0.0,0.0,0.0,0.0,0.0,0.0,0.0,0.0,0.0,0.0,0.0,0.0,0.0,0.0,0.0,0.0,0.0,0.0,0.0,0.0,0.0,0.0,0.0,0.0,0.0,0.0,0.0,0.0,0.0,0.0,0.0,0.0,0.0,0.0,0.0,0.0,0.0,0.0,2.7872,2.8262,0.0,0.0,0.0,0.0,0.0,0.0,0.0,0.0,3.0762,0.0,0.0,0.0,0.0,0.0,0.0,0.0,0.0,0.0,0.0,0.0,0.0,0.0,0.0,0.0,0.0,0.0,0.0,0.0,0.0,0.0,0.0,0.0,0.0,0.0,0.0,0.0,0.0,0.0,0.0,0.0,0.0,0.0,0.0,0.0,0.0,0.0,0.0,0.0,0.0,0.0,0.0,0.0,0.0,0.0,0.0,0.0,0.0,0.0,0.0,0.0,0.0,0.0,0.0,0.0,2.9921,2.9969,3.0182,3.0578,3.0491,3.0449,3.0439,3.034,3.034,0.0,0.0,0.0,0.0,0.0,0.0,0.0,0.0,0.0,0.0,0.0,0.0,0.0,0.0,0.0,0.0,0.0,0.0,0.0,0.0,0.0,0.0,0.0,0.0,0.0,0.0,0.0,0.0,0.0,0.0,0.0,0.0,0.0,0.0,0.0,0.0,0.0,0.0,0.0,0.0,2.8883,2.9211,2.9976,0.0,0.0,0.0,0.0,0.0,0.0,3.0801,3.0801,0.0,0.0,0.0,0.0,0.0,0.0,0.0,0.0,0.0,0.0,0.0,0.0,0.0,0.0,0.0,0.0,0.0,0.0,0.0,0.0,0.0,0.0,0.0,0.0,0.0,0.0,0.0,0.0,0.0,0.0,0.0,0.0,0.0,0.0,0.0,0.0,0.0,0.0,0.0,0.0,0.0,0.0,0.0,0.0,0.0,0.0,0.0,0.0,0.0,0.0,0.0,0.0,0.0,0.0,0.0,3.0578,3.0569,3.0588,3.0588,3.0389,3.0271,3.0273,3.0095,3.008,0.0,0.0,0.0,0.0,0.0,0.0,0.0,0.0,0.0,0.0,0.0,0.0,0.0,0.0,0.0,0.0,0.0,0.0,0.0,0.0,0.0,0.0,0.0,0.0,0.0,0.0,0.0,0.0,0.0,0.0,0.0,0.0,0.0,0.0,0.0,0.0,0.0,0.0,0.0,0.0,0.0,3.0069,3.0652,3.082,0.0,0.0,0.0,0.0,3.0801,3.0801,0.0,0.0,0.0,0.0,0.0,0.0,0.0,0.0,0.0,0.0,0.0,0.0,0.0,0.0,0.0,0.0,0.0,0.0,0.0,0.0,0.0,0.0,0.0,0.0,0.0,0.0,0.0,0.0,0.0,0.0,0.0,0.0,0.0,0.0,0.0,0.0,0.0,0.0,0.0,0.0,0.0,0.0,0.0,0.0,0.0,0.0,0.0,0.0,0.0,0.0,0.0,0.0,0.0,0.0,0.0,0.0,3.0598,3.055,3.051,3.0491,3.0302,3.0216,3.0216,3.008,3.0066,0.0,0.0,0.0,0.0,0.0,0.0,0.0,0.0,0.0,0.0,0.0,0.0,0.0,0.0,0.0,0.0,0.0,0.0,0.0,0.0,0.0,0.0,0.0,0.0,0.0,0.0,0.0,0.0,0.0,0.0,0.0,0.0,0.0,0.0,0.0,0.0,0.0,0.0,0.0,0.0,0.0,3.0721,3.0852,3.0858,3.0819,0.0,0.0,0.0,3.0801,3.0801,0.0,0.0,0.0,0.0,0.0,0.0,0.0,0.0,0.0,0.0,0.0,0.0,0.0,0.0,0.0,0.0,0.0,0.0,0.0,0.0,0.0,0.0,0.0,0.0,0.0,0.0,0.0,0.0,0.0,0.0,0.0,0.0,0.0,0.0,0.0,0.0,0.0,0.0,0.0,0.0,0.0,0.0,0.0,0.0,0.0,0.0,0.0,0.0,0.0,0.0,0.0,0.0,0.0,0.0,0.0,3.055,3.053,3.0398,3.034,3.0333,3.0056,2.9908,2.9915,2.975,2.9765,0.0,0.0,0.0,0.0,0.0,0.0,0.0,0.0,0.0,0.0,0.0,0.0,0.0,0.0,0.0,0.0,0.0,0.0,0.0,0.0,0.0,0.0,0.0,0.0,0.0,0.0,0.0,0.0,0.0,0.0,0.0,0.0,0.0,0.0,0.0,0.0,0.0,0.0,0.0,0.0,0.0,0.0,3.0859,3.0856,0.0,0.0,0.0,3.08,3.0741,0.0,0.0,0.0,0.0,0.0,0.0,0.0,0.0,0.0,0.0,0.0,0.0,0.0,0.0,0.0,0.0,0.0,0.0,0.0,0.0,0.0,0.0,0.0,0.0,0.0,0.0,0.0,0.0,0.0,0.0,0.0,0.0,0.0,0.0,0.0,0.0,0.0,0.0,0.0,0.0,0.0,0.0,0.0,0.0,0.0,0.0,0.0,0.0,0.0,0.0,0.0,0.0,0.0,0.0,0.0,0.0,0.0,3.0419,3.0216,3.015,3.0171,2.9912,2.975,2.9734,2.957,0.0,0.0,0.0,0.0,0.0,0.0,0.0,0.0,0.0,0.0,0.0,0.0,0.0,0.0,0.0,0.0,0.0,0.0,0.0,0.0,0.0,0.0,0.0,0.0,0.0,0.0,0.0,0.0,0.0,0.0,0.0,0.0,0.0,0.0,0.0,0.0,0.0,0.0,0.0,0.0,0.0,0.0,3.0857,3.0793,3.0818,3.0892,0.0,0.0,3.1163,3.1323,3.1394,3.1443,0.0,0.0,0.0,0.0,0.0,0.0,0.0,0.0,0.0,0.0,0.0,0.0,0.0,0.0,0.0,0.0,0.0,0.0,0.0,0.0,0.0,0.0,0.0,0.0,0.0,0.0,0.0,0.0,0.0,0.0,0.0,0.0,0.0,0.0,0.0,0.0,0.0,0.0,0.0,0.0,0.0,0.0,0.0,0.0,0.0,0.0,0.0,0.0,0.0,0.0,0.0,0.0,0.0,0.0,0.0,3.0209,3.0022,3.0011,3.0182,2.9996,2.9867,2.9886,2.9698,2.9681,0.0,0.0,0.0,0.0,0.0,0.0,0.0,0.0,0.0,0.0,0.0,0.0,0.0,0.0,0.0,0.0,0.0,0.0,0.0,0.0,0.0,0.0,0.0,0.0,0.0,0.0,0.0,0.0,0.0,0.0,0.0,0.0,0.0,0.0,0.0,0.0,0.0,0.0,0.0,0.0,0.0,3.0798,3.0706,3.0716,3.0993,0.0,0.0,3.2176,3.3002,3.3177,3.3222,3.3223,0.0,0.0,0.0,0.0,0.0,0.0,0.0,0.0,0.0,0.0,0.0,0.0,0.0,0.0,0.0,0.0,0.0,0.0,0.0,0.0,0.0,0.0,0.0,0.0,0.0,0.0,0.0,0.0,0.0,0.0,0.0,0.0,0.0,0.0,0.0,0.0,0.0,0.0,0.0,0.0,0.0,0.0,0.0,0.0,0.0,0.0,0.0,0.0,0.0,0.0,0.0,0.0,0.0,3.0411,3.0375,3.0147,3.006,3.0122,2.9848,2.9716,2.9697,2.957,2.9532,0.0,0.0,0.0,0.0,0.0,0.0,0.0,0.0,0.0,0.0,0.0,0.0,0.0,0.0,0.0,0.0,0.0,0.0,0.0,0.0,0.0,0.0,0.0,0.0,0.0,0.0,0.0,0.0,3.0196,3.0389,3.0353,0.0,0.0,0.0,0.0,0.0,0.0,0.0,0.0,0.0,0.0,3.1565,3.1519,3.1948,0.0,0.0,3.2759,3.2917,3.3187,3.3325,3.3389,3.3378,3.3842,0.0,0.0,0.0,0.0,0.0,0.0,0.0,0.0,0.0,0.0,0.0,0.0,0.0,0.0,0.0,0.0,0.0,0.0,0.0,0.0,0.0,0.0,0.0,0.0,0.0,0.0,0.0,0.0,0.0,0.0,0.0,0.0,0.0,0.0,0.0,0.0,0.0,0.0,0.0,0.0,0.0,0.0,0.0,0.0,0.0,0.0,0.0,0.0,0.0,0.0,0.0,0.0,3.0524,3.0768,3.0467,3.0459,3.0799,3.0486,3.0359,3.0339,3.0259,3.0259,0.0,0.0,0.0,0.0,0.0,0.0,0.0,0.0,0.0,0.0,0.0,0.0,0.0,0.0,0.0,0.0,0.0,0.0,0.0,0.0,0.0,0.0,0.0,0.0,0.0,0.0,0.0,0.0,3.0882,3.086,3.0801,0.0,0.0,0.0,0.0,0.0,0.0,0.0,0.0,0.0,0.0,3.2452,3.237,3.2901,3.3361,3.3507,3.3621,3.3755,3.3971,3.4101,3.4153,3.4152,0.0,0.0,0.0,0.0,0.0,0.0,0.0,0.0,0.0,0.0,0.0,0.0,0.0,0.0,0.0,0.0,0.0,0.0,0.0,0.0,0.0,0.0,0.0,0.0,0.0,0.0,0.0,0.0,0.0,0.0,0.0,0.0,0.0,0.0,0.0,0.0,0.0,0.0,0.0,0.0,0.0,0.0,0.0,0.0,0.0,0.0,0.0,0.0,0.0,0.0,0.0,0.0,0.0,0.0,3.1379,3.1008,3.128,3.2274,3.2147,3.2009,3.2009,3.2027,3.2027,3.2009,0.0,0.0,0.0,0.0,0.0,0.0,0.0,0.0,0.0,0.0,0.0,0.0,0.0,0.0,0.0,0.0,0.0,0.0,0.0,0.0,0.0,0.0,0.0,0.0,0.0,0.0,3.0892,3.0827,3.0801,0.0,0.0,0.0,0.0,0.0,0.0,0.0,0.0,0.0,0.0,3.2828,3.3328,3.3209,3.3266,3.3628,3.4354,3.454,3.4853,3.5672,3.5809,3.5845,0.0,0.0,0.0,0.0,0.0,0.0,0.0,0.0,0.0,0.0,0.0,0.0,0.0,0.0,0.0,0.0,0.0,0.0,0.0,0.0,0.0,0.0,0.0,0.0,0.0,0.0,0.0,0.0,2.5804,0.0,0.0,0.0,0.0,0.0,0.0,0.0,0.0,0.0,0.0,0.0,2.9485,2.9353,0.0,0.0,0.0,0.0,0.0,0.0,0.0,0.0,0.0,0.0,0.0,0.0,3.2004,3.2225,3.1948,3.1975,3.2314,3.2184,3.2103,3.2103,3.1958,3.1893,3.1893,0.0,0.0,0.0,0.0,0.0,0.0,0.0,0.0,0.0,0.0,0.0,0.0,0.0,0.0,0.0,0.0,0.0,0.0,0.0,0.0,0.0,0.0,0.0,0.0,0.0,3.0913,0.0,0.0,0.0,0.0,0.0,0.0,0.0,0.0,0.0,0.0,0.0,3.2886,3.2883,3.3604,3.4109,3.406,3.4526,3.5,0.0,0.0,0.0,0.0,0.0,0.0,0.0,0.0,0.0,0.0,0.0,0.0,0.0,0.0,3.5135,3.5135,3.5112,3.5232,3.5506,0.0,0.0,0.0,0.0,0.0,0.0,0.0,0.0,0.0,0.0,0.0,0.0,0.0,0.0,0.0,0.0,2.735,0.0,0.0,0.0,0.0,0.0,0.0,0.0,0.0,2.8957,2.9171,2.9717,2.9589,2.9608,0.0,3.0069,3.0251,0.0,0.0,0.0,0.0,0.0,0.0,0.0,0.0,3.2798,3.3104,3.2822,3.2808,3.3091,3.291,3.282,3.282,3.2687,3.2637,3.2618,3.2754,3.2672,0.0,0.0,0.0,0.0,0.0,0.0,0.0,0.0,0.0,0.0,0.0,0.0,0.0,0.0,0.0,0.0,0.0,0.0,0.0,0.0,0.0,0.0,0.0,3.0996,0.0,0.0,0.0,0.0,0.0,0.0,0.0,0.0,0.0,3.2611,3.3232,3.3726,3.3755,3.4475,3.4977,3.4958,0.0,0.0,0.0,0.0,0.0,0.0,0.0,3.5849,3.5794,3.5873,3.5923,3.5913,3.5957,3.601,3.601,0.0,0.0,3.601,3.601,3.601,3.601,3.5545,3.533,3.5893,3.5564,3.531,0.0,0.0,0.0,0.0,0.0,0.0,0.0,0.0,2.7198,2.7236,0.0,2.7328,0.0,0.0,0.0,0.0,0.0,0.0,0.0,0.0,2.9453,2.9388,2.9388,2.9444,2.9444,2.9481,3.0431,3.0903,3.0809,3.0258,0.0,0.0,0.0,0.0,0.0,0.0,3.3077,3.3879,3.3525,3.3714,3.4505,3.4321,3.4179,3.4179,3.4179,3.416,3.4179,3.416,3.3913,3.3345,3.3517,0.0,0.0,0.0,0.0,0.0,0.0,0.0,0.0,0.0,0.0,0.0,0.0,0.0,0.0,0.0,0.0,0.0,0.0,0.0,0.0,3.0884,0.0,0.0,0.0,0.0,0.0,0.0,0.0,0.0,0.0,0.0,3.3498,3.4062,3.4564,3.4612,0.0,0.0,0.0,0.0,3.5834,3.571,3.5761,3.5802,3.5802,3.5791,3.5801,3.5801,0.0,0.0,3.5897,3.5955,3.6013,3.6013,3.6013,3.6013,3.6013,3.601,3.601,3.601,3.5971,3.5991,3.601,3.5952,3.5955,2.7603,0.0,0.0,0.0,0.0,2.684,2.7193,2.7692,2.7692,2.8025,2.8563,2.8706,0.0,0.0,0.0,0.0,0.0,0.0,2.9506,2.9608,2.9551,2.9492,2.9425,3.0002,3.0262,3.0299,3.1145,3.1499,3.1436,3.132,3.16,3.2248,0.0,0.0,0.0,0.0,3.4167,3.4354,3.4098,3.4051,3.4316,3.4245,3.4216,3.4216,3.4216,3.4216,3.4216,3.4216,3.4123,3.395,3.4199,0.0,0.0,0.0,0.0,0.0,0.0,0.0,0.0,0.0,0.0,0.0,0.0,0.0,0.0,0.0,0.0,0.0,0.0,0.0,3.2513,3.2548,3.2616,0.0,0.0,0.0,0.0,0.0,0.0,0.0,0.0,0.0,3.5099,3.5249,3.5369,0.0,0.0,3.5746,3.5743,3.5737,3.5745,3.5698,0.0,0.0,0.0,3.5772,3.5807,3.58,3.584,3.5881,3.5957,3.5976,3.6012,3.6026,3.6005,3.6021,3.6013,3.601,3.603,3.601,3.601,3.601,3.601,3.601,3.601,2.8385,2.7157,2.7364,2.7512,2.7635,2.7638,2.7911,2.8346,2.8346,2.8603,2.9067,2.9181,2.9291,2.9416,2.9678,0.0,0.0,0.0,2.9776,2.9978,2.9959,3.0104,3.0392,3.0813,3.1036,3.1117,3.1964,3.2315,3.2219,3.2691,3.3062,3.3371,0.0,0.0,3.4291,3.4507,3.4604,3.4607,3.434,3.4216,3.4216,3.4216,3.4216,3.4216,3.4216,3.4216,3.4216,3.4216,3.4216,3.4197,3.4431,3.4358,0.0,0.0,0.0,0.0,0.0,0.0,0.0,0.0,0.0,0.0,0.0,3.1594,0.0,0.0,0.0,0.0,3.2441,3.269,3.318,3.3197,0.0,0.0,0.0,0.0,0.0,0.0,0.0,3.4839,3.5355,3.5706,3.5745,3.5737,3.5704,3.5704,3.5698,3.5708,3.5715,0.0,3.5742,3.5704,3.5994,3.6207,3.6218,3.6565,3.6849,3.6898,3.6957,3.6971,3.7031,3.7031,3.7031,3.7044,3.7022,3.704,3.7031,3.7028,3.6774,3.6147,3.601,3.601,3.601,3.601,3.6088,2.917,2.8808,2.9163,2.9218,2.9017,2.9085,2.9044,2.8975,2.8998,2.8975,2.8975,2.8975,2.9134,2.9392,2.9701,0.0,0.0,2.9605,3.001,3.0598,3.0598,3.101,3.1782,3.177,3.1825,3.1894,3.2836,3.3206,3.312,3.4076,3.4539,3.452,3.3733,3.3859,3.4813,3.4668,3.4586,3.4572,3.4325,3.4216,3.4216,3.4216,3.4216,3.4216,3.4216,3.4216,3.4216,3.4216,3.4216,3.4197,3.4431,3.458,3.458,0.0,0.0,0.0,0.0,0.0,0.0,0.0,0.0,0.0,0.0,0.0,0.0,0.0,0.0,0.0,3.3362,0.0,3.3314,3.3371,0.0,0.0,0.0,3.4904,3.5704,3.5726,3.5723,3.5781,0.0,0.0,0.0,0.0,3.5723,3.5781,3.5745,3.5732,3.5803,3.5889,3.5889,3.5998,3.6624,3.7116,3.7149,3.777,3.83,3.8398,3.8613,3.8516,3.8496,3.8516,3.8555,3.8483,3.858,3.8565,3.8593,3.8475,3.8104,3.656,3.6264,3.6264,3.6342,3.6362,3.6599,3.0227,3.0342,3.0448,2.9904,2.8994,2.9017,2.9017,2.8975,2.8975,2.8975,2.8975,2.8975,2.9085,2.9215,2.9828,3.015,3.0169,3.0757,3.114,3.1325,3.1344,3.1455,3.1681,3.2249,3.2545,3.2625,3.3462,3.3827,3.3696,3.4056,3.4154,3.4055,3.392,3.4111,3.4628,3.4427,3.4293,3.4279,3.4227,3.4216,3.4216,3.4216,3.4216,3.4216,3.4216,3.4216,3.4216,3.4216,3.4216,3.4197,3.4269,3.4293,3.4293,3.4672,0.0,0.0,0.0,0.0,0.0,0.0,0.0,0.0,0.0,3.3109,3.3121,0.0,3.3383,0.0,3.4717,3.5093,3.5085,3.5074,0.0,0.0,3.5414,3.5493,3.5718,3.5697,3.5704,3.5723,3.5704,3.5704,3.5704,3.5704,3.5916,3.6516,3.6084,3.5969,3.6635,3.679,3.7027,3.7588,3.7899,3.8089,3.8169,3.8355,3.8594,3.8594,3.8613,3.8613,3.8613,3.8613,3.8613,3.8612,3.8604,3.8615,3.8648,3.8598,3.8504,3.8085,3.7985,3.7985,3.7985,3.7965,3.8024,3.0838,3.0679,3.0679,3.0342,2.9867,2.999,2.9879,2.9549,2.9549,2.9347,2.903,2.9379,2.9756,3.0147,3.0588,3.079,3.0875,3.1317,3.1704,3.2084,3.2084,3.2293,3.2687,3.3105,3.3308,3.3352,3.3776,3.3998,3.3947,3.4023,3.4023,3.3947,3.3972,3.4124,3.4363,3.4221,3.4191,3.4197,3.4216,3.4216,3.4216,3.4216,3.4216,3.4216,3.4216,3.4216,3.4216,3.4216,3.4216,3.4197,3.4316,3.4316,3.4221,3.4564,3.4771,0.0,0.0,0.0,0.0,0.0,0.0,0.0,0.0,0.0,0.0,0.0,3.4417,0.0,3.5433,0.0,3.5704,3.5704,3.5704,3.5704,3.5704,3.5704,3.5704,3.5704,3.5704,3.5704,3.5704,3.5704,3.5704,3.6013,3.64,3.6845,3.6845,3.698,3.7467,3.7607,3.7812,3.8225,3.8685,3.9151,3.9569,3.9697,3.9746,3.9766,3.9746,3.9766,3.9766,3.9746,3.9746,3.9726,3.9724,3.9696,3.9705,3.9713,3.9699,3.9715,3.971,3.9435,3.8765,3.8609,3.8668,3.1231,3.0658,3.064,3.0838,3.1173,3.1445,3.1107,3.0356,3.0356,2.9971,2.9347,3.0044,3.0723,3.1409,3.1562,3.1618,3.1549,3.1709,3.2176,3.2838,3.282,3.3257,3.3972,3.3921,3.3939,3.3972,3.3921,3.3939,3.3972,3.3991,3.3991,3.3991,3.3972,3.3998,3.4074,3.4092,3.4099,3.4173,3.4173,3.4197,3.4197,3.4197,3.4197,3.4216,3.4197,3.4197,3.4216,3.4216,3.4216,3.4197,3.4427,3.4431,3.4221,3.445,3.4602,0.0,3.4632,0.0,0.0,0.0,0.0,0.0,0.0,0.0,0.0,3.562,3.5612,3.5704,3.5704,3.5704,3.5704,3.5704,3.5704,3.5704,3.5704,3.5704,3.5704,3.5704,3.5704,3.5704,3.5704,3.5723,3.5897,3.6477,3.6922,3.7328,3.7909,3.8373,3.8539,3.854,3.853,3.8501,3.929,4.0131,4.0771,4.1061,4.1094,4.1152,4.1074,4.1191,4.1094,4.1113,4.1152,4.1074,4.0996,4.1035,4.1119,4.1064,4.1069,4.1009,4.1084,4.0726,3.9449,3.9078,3.9156,3.1812,3.1947,3.1947,3.2128,3.246,3.2504,3.2035,3.1182,3.1164,3.1072,3.0962,3.1091,3.1256,3.1439,3.21,3.2375,3.2412,3.3054,3.3448,3.3595,3.3595,3.3668,3.3842,3.3815,3.3834,3.386,3.3868,3.3868,3.3834,3.3895,3.3895,3.386,3.3842,3.3887,3.3947,0.0,0.0,0.0,3.4117,3.4124,3.4124,3.4124,3.4148,3.4197,3.4148,0.0,3.4197,3.4216,3.4216,3.4216,3.4264,0.0,0.0,0.0,0.0,0.0,0.0,0.0,0.0,0.0,0.0,0.0,3.5432,3.556,3.5584,3.5608,3.5631,3.5684,3.5704,3.5704,3.5704,3.5704,3.5704,3.5704,3.5704,3.5704,3.5704,3.5704,3.5704,3.5704,3.5704,3.5955,3.6593,3.6826,3.7444,3.8682,3.9146,3.9533,4.0172,3.9774,3.9696,4.0324,4.0595,4.0857,4.108,4.1172,4.1191,4.1191,4.1191,4.1191,4.1191,4.1191,4.1211,4.1211,4.1172,4.1211,4.123,4.1171,4.1288,4.1187,4.1707,4.1833,4.0854,4.0639,4.0678,3.1893,0.0,3.2055,3.2249,0.0,3.2553,3.238,3.2071,3.1856,3.1843,3.199,3.199,3.2192,3.2614,3.3018,3.3183,3.322,3.3623,3.3807,3.3807,3.3807,3.3807,3.3807,3.3807,3.3807,3.3807,3.3834,3.3834,3.3807,3.3834,3.3834,3.3807,3.3807,3.3834,3.3913,3.3902,3.3965,3.4068,3.4053,3.4049,3.4049,3.4049,3.4074,3.4099,0.0,0.0,0.0,0.0,0.0,0.0,0.0,0.0,0.0,0.0,0.0,3.4427,3.4604,3.4812,3.5034,3.5152,3.5281,3.5482,3.5495,3.5522,3.5591,3.562,3.5654,3.5704,3.5704,3.5704,3.5704,3.5704,3.5704,3.5704,3.5704,3.5704,3.5704,3.5704,3.5858,3.6226,3.6303,3.6613,3.7444,3.7947,3.8489,3.9359,3.9894,4.0268,4.0667,4.0493,4.0474,4.088,4.0966,4.1018,4.1094,4.1133,4.1152,4.1172,4.1191,4.1191,4.1191,4.1191,4.1308,4.168,4.1797,4.1894,4.2304,4.2393,4.2401,4.2385,4.2678,4.2867,4.2422,4.2355,4.2368,3.18,3.18,3.18,3.1948,3.2232,3.2232,3.242,3.2677,0.0,0.0,0.0,3.2737,3.313,3.3807,3.3807,3.3807,3.3807,3.3807,3.3807,3.3807,3.3807,3.3807,3.3807,3.3807,3.3807,3.3807,3.3807,3.3807,3.3807,3.3807,3.3807,3.3807,3.3807,3.3815,3.3868,3.3868,3.3897,3.3962,3.3976,3.3972,3.3972,3.3972,3.3998,3.3998,3.3998,3.403,3.4074,3.4105,3.4148,3.4197,3.4427,3.4431,3.4221,3.4427,3.445,3.4221,3.4245,3.4454,3.4812,3.4908,3.5107,3.5479,3.5488,3.5515,3.5579,3.5639,3.5662,3.5673,3.5684,3.5684,3.5673,3.5684,3.5684,3.5684,3.5704,3.5704,3.5723,3.5839,3.6207,3.6787,3.7019,3.7464,3.8315,3.8992,3.9584,3.9797,4.0326,4.079,4.079,4.0771,4.0771,4.088,4.0909,4.0937,4.1035,4.1074,4.1111,4.1191,4.1308,4.1387,4.1406,4.1519,4.188,4.25,4.2598,4.2861,4.3412,4.3506,4.3615,4.3525,4.3689,4.3829,4.3826,4.4001,4.4021,3.18,3.18,3.18,3.1837,3.1873,3.1856,3.2055,3.2369,3.2574,3.2901,3.3198,3.3216,3.3413,3.3807,3.3807,3.3807,3.3807,3.3807,3.3807,0.0,3.3807,3.3807,3.3807,3.3807,3.3807,3.3807,3.3807,3.3807,3.3807,3.3807,3.3807,3.3807,3.3807,3.3807,3.3807,3.3834,3.3807,3.3825,3.3868,3.3921,3.3921,3.3921,3.3947,3.3998,3.3998,3.406,3.4079,3.4142,3.4197,3.4216,3.4245,3.4245,3.4197,3.4245,3.4245,3.4221,3.4409,3.4561,3.4647,3.4964,3.5258,3.546,3.5495,3.5502,3.5515,3.5528,3.556,3.5604,3.5612,3.5604,3.5616,3.5631,3.5635,3.5612,3.5654,3.5704,3.5742,3.6284,3.6767,3.7019,3.758,3.8334,3.9146,3.9468,3.9823,4.0404,4.0674,4.079,4.079,4.079,4.0829,4.0887,4.0887,4.0905,4.1044,4.0991,4.1139,4.119,4.1777,4.2168,4.2226,4.2688,4.3112,4.3404,4.3408,4.3454,4.3614,4.3518,4.3676,4.3722,4.421,4.4664,4.4594,4.5189,4.5367,3.1614,3.1651,3.1631,3.1614,3.1631,3.1614,3.18,3.2073,3.2335,3.2666,3.3032,3.3232,3.3379,3.3522,3.3707,3.3807,3.3807,3.3807,3.3807,3.3807,3.3807,3.3807,3.3807,3.3807,3.3807,3.3807,3.3807,3.3807,3.3807,3.3807,3.3807,3.3807,3.3807,3.3807,3.3807,3.3807,3.3807,3.3807,3.3834,3.3842,3.3842,3.3842,3.3842,3.3913,3.3939,3.3991,3.4035,3.4099,3.4173,3.4216,3.4216,3.4216,3.4216,3.4216,3.4216,3.4197,3.4316,3.4431,3.4583,3.4982,3.5242,3.532,3.546,3.5495,3.5495,3.5554,3.5579,3.5591,3.5616,3.5628,3.5616,3.562,3.5623,3.5643,3.5684,3.5878,3.6284,3.6651,3.7251,3.8141,3.8644,3.9243,4.0106,4.0203,4.0307,4.0752,4.079,4.079,4.081,4.081,4.081,4.0829,4.0829,4.1081,4.1429,4.1571,4.182,4.2342,4.2705,4.2947,4.301,4.3378,4.3702,4.415,4.4226,4.44,4.4694,4.4873,4.486,4.48,4.5091,4.5434,4.555,4.5935,4.5948,3.15,3.15,3.15,3.15,3.15,3.15,3.1651,3.1893,3.2109,3.2437,3.2795,3.3154,3.335,3.3437,3.368,3.3807,3.3807,3.3807,3.3807,3.3807,3.3807,3.3807,3.3807,3.3807,3.3807,3.3807,3.3807,3.3807,3.3807,3.3807,3.3807,3.3807,3.3807,3.3807,3.3807,3.3807,3.3807,3.3807,3.3807,3.3807,3.3807,3.3807,3.3807,3.3807,3.3868,3.3921,3.3979,3.403,3.4099,3.4148,3.4173,3.4173,3.4173,3.4179,3.4216,3.4216,3.4216,3.4316,3.4602,3.4889,3.5107,3.5209,3.5339,3.5446,3.5507,3.556,3.5598,3.5566,3.5592,3.5586,3.5572,3.5596,3.5589,3.5651,3.5855,3.6203,3.6795,3.722,3.7947,3.9282,3.9681,4.0068,4.0597,4.079,4.079,4.0771,4.079,4.0829,4.1003,4.1061,4.11,4.1274,4.1197,4.139,4.2054,4.2299,4.2699,4.3556,4.3732,4.378,4.3847,4.3925,4.4288,4.4918,4.5032,4.5195,4.5794,4.593,4.5852,4.5673,4.5794,4.597,4.6013,4.6096,4.6245,3.1479,3.15,3.1462,3.15,3.15,3.15,3.1763,3.2126,3.2179,3.2437,3.2827,3.3172,3.3465,3.3734,3.3762,3.3807,3.3807,3.3807,3.3807,3.3807,3.3807,3.3807,3.3807,3.3807,3.3807,3.3807,3.3807,3.3807,3.3807,3.3807,3.3807,3.3807,3.3807,3.3807,3.3807,3.3807,3.3807,3.3807,3.3807,3.3807,3.3807,3.3807,3.3807,3.3807,3.3887,3.3902,3.3943,3.3961,3.4023,3.4023,3.4074,3.4124,3.4124,3.4173,3.4216,3.4216,3.4216,3.4335,3.4561,3.4645,3.4812,3.5141,3.5226,3.5324,3.5479,3.5507,3.5507,3.5501,3.5526,3.552,3.552,3.5502,3.5521,3.5579,3.6209,3.6761,3.7069,3.8247,3.9284,3.9437,4.0184,4.0694,4.0771,4.079,4.079,4.079,4.0906,4.1119,4.1622,4.1874,4.2202,4.2667,4.2454,4.2144,4.2518,4.2885,4.346,4.4131,4.4453,4.457,4.4718,4.517,4.5808,4.5492,4.5684,4.5703,4.5761,4.5838,4.5838,4.5838,4.5905,4.6028,4.6063,4.6072,4.6105,3.1325,3.1325,3.1325,3.1346,3.1368,3.1346,3.1521,3.1858,3.2196,3.2553,3.2858,3.3361,3.355,3.3522,3.3707,3.3807,3.3807,3.3807,3.3807,3.3807,3.3807,3.3807,3.3807,3.3807,3.3807,3.3807,3.3807,3.3807,3.3807,3.3807,3.3807,3.3807,3.3807,3.3807,3.3807,3.3807,3.3807,3.3807,3.3807,3.3807,3.3807,3.3807,3.3807,3.3807,3.3887,3.3913,3.3913,3.3947,3.4016,3.4079,3.4092,3.4124,3.4148,3.4173,3.4216,3.4216,3.4216,3.4245,3.434,3.4495,3.4668,3.4831,3.5072,3.5261,3.5304,3.5432,3.5507,3.5507,3.5507,3.5488,3.5495,3.5483,3.5528,3.5656,3.6337,3.7076,3.7648,3.8735,3.9637,4.0172,4.0558,4.079,4.079,4.079,4.079,4.0887,4.1158,4.1641,4.2009,4.2415,4.3111,4.3788,4.373,4.3634,4.3717,4.3891,4.4369,4.4949,4.5258,4.5374,4.5413,4.5587,4.5872,4.5896,4.5838,4.58,4.58,4.58,4.58,4.5819,4.591,4.6009,4.605,4.6057,4.6074,3.119,3.119,3.119,3.1213,3.1274,3.123,3.1406,3.1731,3.2265,3.2666,3.2983,3.3465,3.3597,3.3494,3.3707,3.3807,3.3807,3.3807,3.3807,3.3807,3.3807,3.3807,3.3807,3.3807,3.3807,3.3807,3.3807,3.3807,3.3807,3.3807,3.3807,3.3807,3.3807,3.3807,3.3807,3.3807,3.3807,3.3807,3.3807,3.3807,3.3807,3.3807,3.3807,3.3807,3.386,3.386,3.3889,3.3931,3.3965,3.4002,3.4042,3.4074,3.4148,3.4148,3.4173,3.4197,3.4216,3.4216,3.4216,3.4386,3.4536,3.4623,3.487,3.5108,3.5209,3.5339,3.5432,3.5507,3.5507,3.5488,3.5509,3.5489,3.5599,3.5894,3.6691,3.7553,3.8415,3.9284,4.005,4.0662,4.0752,4.079,4.079,4.081,4.0848,4.1177,4.1641,4.2318,4.2667,4.3305,4.3962,4.4775,4.4929,4.491,4.4949,4.4929,4.5258,4.551,4.5742,4.5742,4.58,4.58,4.58,4.5838,4.5819,4.58,4.58,4.58,4.58,4.5819,4.5877,4.5949,4.5938,4.5988,4.6007,3.119,3.119,3.119,3.1173,3.119,3.119,3.1504,3.1932,3.2316,3.2795,3.3154,3.3291,3.3465,3.3707,3.3689,3.3807,3.3807,3.378,3.3807,3.3807,3.3807,3.3807,3.3807,3.3807,3.3807,3.3807,3.3807,3.3807,3.3807,3.3807,3.3807,3.3807,3.3807,3.3807,3.3807,3.3807,3.3807,3.3807,3.3807,3.3807,3.3807,3.3807,3.3807,3.3807,3.3807,3.3807,3.3807,3.3807,3.3834,3.3807,3.3868,3.3947,3.4016,3.4074,3.4124,3.4197,3.4216,3.4216,3.4216,3.4221,3.434,3.4558,3.4626,3.4791,3.5107,3.5209,3.5308,3.546,3.5474,3.5488,3.5488,3.5488,3.5815,3.6521,3.7387,3.8248,3.9105,3.9913,4.0519,4.07,4.0746,4.0778,4.079,4.079,4.1139,4.1641,4.197,4.255,4.3904,4.4427,4.4871,4.5394,4.5664,4.5722,4.5722,4.5568,4.5645,4.578,4.58,4.58,4.58,4.58,4.58,4.58,4.58,4.58,4.58,4.58,4.58,4.5819,4.5819,4.5838,4.5858,4.5819,4.5838,3.119,3.119,3.119,3.119,3.119,3.119,3.1312,3.1582,3.1897,3.2213,3.2502,3.2699,3.284,3.2965,3.2965,3.3284,3.3753,3.3578,3.3578,3.378,3.3807,3.3807,3.3807,3.3807,3.3807,3.3807,3.3807,3.3807,3.3807,3.3807,3.3807,3.3807,3.3807,3.3807,3.3807,3.3807,3.3807,3.3807,3.3807,3.3807,3.3807,3.3807,3.3807,3.3807,3.3807,3.3807,3.3807,3.3807,3.3825,3.3844,3.3887,3.3921,3.3998,3.4074,3.4124,3.4148,3.4173,3.4216,3.4216,3.4216,3.4245,3.434,3.4517,3.4647,3.4831,3.5037,3.5245,3.5312,3.5436,3.5493,3.5507,3.5507,3.582,3.6642,3.7526,3.8426,3.922,4.0039,4.0602,4.0635,4.0648,4.0668,4.0681,4.0713,4.1061,4.1873,4.2479,4.3343,4.433,4.5007,4.5452,4.5684,4.58,4.58,4.58,4.58,4.58,4.58,4.58,4.58,4.58,4.58,4.58,4.58,4.58,4.58,4.58,4.58,4.58,4.58,4.58,4.58,4.58,4.58,4.58,3.119,3.119,3.119,3.119,3.119,3.119,3.1269,3.1334,3.166,3.1878,3.2021,3.2265,3.2384,3.2451,3.2283,3.2634,3.339,3.3302,3.3465,3.378,3.3807,3.3807,3.3807,3.3807,3.3807,3.3807,3.3807,3.3807,3.3807,3.3807,3.3807,3.3807,3.3807,3.3807,3.3807,3.3807,3.3807,3.3807,3.3807,3.3807,3.3807,3.3807,3.3807,3.3807,3.3807,3.3807,3.3807,3.3807,3.3807,3.387,3.3879,3.3895,3.4016,3.4074,3.4099,3.413,3.4173,3.4216,3.4216,3.4216,3.4216,3.4197,3.4363,3.4495,3.4604,3.4908,3.5107,3.5223,3.5388,3.5551,3.582,3.5911,3.6238,3.7046,3.7935,3.8796,3.9576,4.0236,4.0535,4.0588,4.0588,4.0602,4.0673,4.0938,4.1512,4.2298,4.3175,4.404,4.4871,4.5394,4.58,4.58,4.58,4.58,4.58,4.58,4.58,4.58,4.58,4.58,4.58,4.58,4.58,4.58,4.58,4.58,4.58,4.58,4.58,4.58,4.58,4.58,4.58,4.58,4.58,3.119,3.119,3.119,3.119,3.119,3.119,3.1252,3.1334,3.1623,3.1806,3.1896,3.1967,3.2092,3.2265,3.1821,3.1966,3.2651,3.2952,3.3302,3.368,3.3707,3.3753,3.3734,3.3734,3.378,3.3807,3.3807,3.3807,3.3807,3.3807,3.3807,3.3807,3.3807,3.3807,3.3807,3.3807,3.3807,3.3807,3.3807,3.3807,3.3807,3.3807,3.3807,3.3807,3.3807,3.3807,3.3807,3.3807,3.3807,3.3807,3.3807,3.3868,3.3972,3.4049,3.4124,3.4173,3.4197,3.4216,3.4197,3.4216,3.4216,3.4197,3.4221,3.4358,3.4539,3.4752,3.4961,3.5117,3.5374,3.5748,3.6421,3.668,3.706,3.7911,3.8719,3.9469,4.0196,4.0534,4.0583,4.0593,4.0593,4.0621,4.0841,4.1343,4.2097,4.3007,4.3871,4.4717,4.5432,4.5722,4.578,4.58,4.58,4.58,4.58,4.58,4.58,4.58,4.58,4.58,4.58,4.58,4.58,4.58,4.58,4.58,4.58,4.58,4.58,4.58,4.58,4.58,4.58,4.58,4.58,3.119,3.119,3.119,3.119,3.119,3.119,3.1213,3.1213,3.1351,3.1428,3.1466,3.1466,3.1542,3.1562,3.1385,3.1562,3.2074,3.2196,3.2565,3.3045,3.3105,3.3225,3.3408,3.3465,3.3578,3.3762,3.3807,3.3807,3.3807,3.3807,3.3807,3.3807,3.3807,3.3807,3.3807,3.3807,3.3807,3.3807,3.3807,3.3807,3.3807,3.3807,3.3807,3.3807,3.3807,3.3807,3.3807,3.3807,3.3807,3.3807,3.3807,3.3834,3.3868,3.3921,3.3972,3.3998,3.408,3.4124,3.4148,3.4173,3.4197,3.4216,3.4216,3.4245,3.4358,3.4542,3.4716,3.4826,3.5095,3.5611,3.6392,3.7199,3.7926,3.8796,3.9146,3.9646,4.0315,4.0523,4.0539,4.0554,4.0534,4.0534,4.0723,4.1393,4.2343,4.3197,4.4042,4.4887,4.5568,4.58,4.58,4.58,4.58,4.58,4.58,4.58,4.58,4.58,4.58,4.58,4.58,4.58,4.58,4.58,4.58,4.58,4.58,4.58,4.58,4.58,4.58,4.58,4.58,4.58,4.58,3.119,3.119,3.119,3.119,3.119,3.119,3.119,3.119,3.119,3.119,3.119,3.119,3.119,3.119,3.119,3.1351,3.1585,3.164,3.1878,3.2351,3.2684,3.2876,3.3093,3.3262,3.3379,3.3606,3.3734,3.3807,3.3807,3.3807,3.3807,3.3807,3.3807,3.3807,3.3807,3.3807,3.3807,3.3807,3.3807,3.3807,3.3807,3.3807,3.3807,3.3807,3.3807,3.3807,3.3807,3.3807,3.3807,3.3807,3.3807,3.3834,3.3842,3.3887,3.3895,3.3947,3.3998,3.4074,3.4099,3.413,3.4173,3.4197,3.4216,3.4216,3.4245,3.445,3.4612,3.4754,3.5302,3.602,3.693,3.7892,3.8811,3.9642,3.9758,3.9973,4.0412,4.0489,4.0489,4.0504,4.0504,4.0658,4.1097,4.1786,4.2665,4.3539,4.4384,4.5051,4.5655,4.5805,4.5805,4.5819,4.58,4.58,4.58,4.58,4.58,4.58,4.58,4.58,4.58,4.58,4.58,4.58,4.58,4.58,4.58,4.58,4.58,4.58,4.58,4.58,4.58,4.58,4.58,3.119,3.119,3.119,3.119,3.119,3.119,3.119,3.119,3.119,3.119,3.119,3.119,3.119,3.119,3.119,3.1286,3.138,3.1487,3.1645,3.2021,3.2494,3.2924,3.3125,3.3525,3.3755,3.3724,3.3872,3.3935,3.4009,3.3862,3.3807,3.3807,3.3807,3.3807,3.3807,3.3807,3.3807,3.3807,3.3807,3.3807,3.3807,3.3807,3.3807,3.3807,3.3807,3.3807,3.3807,3.3807,3.3807,3.3807,3.3807,3.3815,3.3887,3.3913,3.3921,3.3947,3.3998,3.4023,3.4074,3.4099,3.4148,3.4197,3.4216,3.4216,3.4264,3.4535,3.4824,3.5004,3.5856,3.6848,3.784,3.8681,3.9503,4.0292,4.0354,4.0412,4.0469,4.0489,4.0489,4.0489,4.0543,4.0812,4.1651,4.2479,4.3339,4.418,4.5005,4.5538,4.5723,4.581,4.581,4.5805,4.58,4.58,4.58,4.58,4.58,4.58,4.58,4.58,4.58,4.58,4.58,4.58,4.58,4.58,4.58,4.58,4.58,4.58,4.58,4.58,4.58,4.58,4.58,3.119,3.119,3.119,3.119,3.119,3.119,3.119,3.119,3.119,3.119,3.119,3.119,3.119,3.119,3.1207,3.1501,3.189,3.2009,3.2381,3.2887,3.3242,3.3709,3.4147,3.4742,3.501,3.495,3.4728,3.4679,3.4633,3.4192,3.3899,3.3807,3.3862,3.3825,3.3807,3.3807,3.3807,3.3807,3.3807,3.3807,3.3807,3.3807,3.3807,3.3807,3.3807,3.3807,3.3807,3.3807,3.3807,3.3807,3.3807,3.3807,3.3834,3.3834,3.386,3.3868,3.3895,3.3947,3.4023,3.4074,3.4124,3.4197,3.4271,3.4216,3.4234,3.4883,3.5205,3.5525,3.6371,3.7433,3.8325,3.8988,3.9662,4.0331,4.0489,4.0489,4.0489,4.0489,4.0489,4.0489,4.0508,4.1024,4.1793,4.264,4.3484,4.436,4.5125,4.5715,4.5765,4.5795,4.5791,4.5805,4.58,4.58,4.58,4.58,4.58,4.58,4.58,4.58,4.58,4.58,4.58,4.58,4.58,4.58,4.58,4.58,4.58,4.58,4.58,4.58,4.58,4.58,4.58,3.119,3.119,3.119,3.119,3.119,3.119,3.119,3.119,3.119,3.119,3.119,3.119,3.119,3.1207,3.1512,3.1867,3.233,3.2611,3.2983,3.3414,3.3928,3.426,3.4519,3.4978,3.5321,3.5483,3.5351,3.5425,3.5467,3.5055,3.4706,3.4412,3.4302,3.4156,3.3807,3.3807,3.3807,3.3807,3.3807,3.3807,3.3807,3.3807,3.3807,3.3807,3.3807,3.3807,3.3807,3.3807,3.3807,3.3807,3.3807,3.3807,3.3807,3.3807,3.3807,3.3807,3.386,3.3895,3.3972,3.4049,3.4099,3.4266,3.4457,3.4717,3.4903,3.5497,3.5999,3.6254,3.72,3.8019,3.8689,3.9377,3.9969,4.0408,4.0489,4.0489,4.0489,4.0489,4.0489,4.0566,4.0854,4.1373,4.2239,4.3085,4.3929,4.4716,4.5327,4.5626,4.5731,4.5761,4.5791,4.5805,4.58,4.58,4.58,4.58,4.58,4.58,4.58,4.58,4.58,4.58,4.58,4.58,4.58,4.58,4.58,4.58,4.58,4.58,4.58,4.58,4.58,4.5993,4.5974,3.119,3.119,3.119,3.119,3.119,3.119,3.119,3.119,3.119,3.119,3.1224,3.1275,3.141,3.136,3.2104,3.2459,3.2611,3.3271,3.3592,3.405,3.4542,3.4878,3.4634,3.5049,3.5384,3.5579,3.572,3.5999,3.6157,3.619,3.5844,3.5312,3.5119,3.4706,3.4229,3.4009,3.3917,3.3825,3.3807,3.3807,3.3807,3.3807,3.3807,3.3807,3.3807,3.3807,3.3807,3.3807,3.3807,3.3807,3.3807,3.3807,3.3807,3.3807,3.3807,3.3807,3.3807,3.3868,3.3972,3.3998,3.416,3.4451,3.5089,3.5553,3.5702,3.6333,3.6894,3.7007,3.8074,3.8782,3.9238,3.9983,4.0338,4.0489,4.0489,4.0489,4.0489,4.0489,4.0527,4.0662,4.1373,4.2143,4.3085,4.3855,4.4566,4.5084,4.5541,4.5632,4.5703,4.5715,4.5761,4.5805,4.5805,4.5819,4.58,4.58,4.58,4.58,4.58,4.58,4.58,4.58,4.58,4.58,4.58,4.58,4.58,4.58,4.58,4.58,4.58,4.58,4.5838,4.6187,4.6322,3.119,3.119,3.119,3.119,3.119,3.119,3.119,3.119,3.119,3.1207,3.1326,3.1765,3.2019,3.207,3.2814,3.3474,3.388,3.4184,3.46,3.5297,3.5574,3.5728,3.5658,3.6006,3.6355,3.6482,3.6552,3.6671,3.6708,3.651,3.6248,3.6054,3.5897,3.5587,3.4844,3.4734,3.4403,3.3954,3.3862,3.3862,3.3862,3.3825,3.3807,3.3807,3.3807,3.3807,3.3807,3.3807,3.3807,3.3807,3.3807,3.3807,3.3807,3.3807,3.3807,3.3807,3.3807,3.3842,3.3939,3.4083,3.4363,3.5094,3.5472,3.5801,3.6445,3.7169,3.7604,3.7909,3.8794,3.9584,4.001,4.0284,4.0469,4.0489,4.0489,4.0527,4.0508,4.0527,4.0835,4.1335,4.1739,4.2374,4.3797,4.4124,4.4759,4.5411,4.562,4.5673,4.5671,4.5684,4.5731,4.5795,4.581,4.5805,4.58,4.58,4.58,4.58,4.58,4.58,4.58,4.58,4.58,4.58,4.58,4.58,4.58,4.58,4.58,4.58,4.5858,4.5993,4.6167,4.6457,4.6844,3.119,3.119,3.119,3.119,3.119,3.119,3.119,3.119,3.119,3.1393,3.1715,3.2154,3.2476,3.2865,3.3575,3.4167,3.4523,3.4895,3.5216,3.5644,3.5827,3.5888,3.5975,3.6284,3.6539,3.6773,3.6875,3.697,3.707,3.6916,3.6675,3.6359,3.6516,3.6091,3.5495,3.5491,3.5394,3.5018,3.4559,3.4376,3.4339,3.3972,3.3807,3.3807,3.3807,3.3807,3.3807,3.3807,3.3807,3.3807,3.3807,3.3807,3.3807,3.3807,3.3807,3.3807,3.3807,3.4107,3.4352,3.4573,3.4942,3.5847,3.63,3.6745,3.731,3.7959,3.8395,3.8659,3.9242,3.9984,4.0422,4.0489,4.0489,4.0489,4.0508,4.0662,4.0989,4.1123,4.1239,4.1873,4.2527,4.3258,4.4047,4.4528,4.4913,4.5584,4.5603,4.564,4.5673,4.5687,4.5754,4.5785,4.58,4.5795,4.5819,4.58,4.58,4.58,4.58,4.58,4.58,4.58,4.58,4.58,4.58,4.58,4.58,4.58,4.5838,4.5916,4.6032,4.6245,4.6651,4.7231,4.756,3.119,3.119,3.119,3.119,3.119,3.119,3.119,3.119,3.119,3.1562,3.2263,3.2415,3.2933,3.3609,3.4336,3.4641,3.4844,3.5216,3.5588,3.5605,3.5773,3.5817,3.5844,3.6002,3.6224,3.6603,3.6755,3.7044,3.7269,3.747,3.7147,3.6736,3.6904,3.6749,3.6248,3.6273,3.6292,3.5991,3.5467,3.521,3.5147,3.4651,3.4431,3.4412,3.4431,3.4293,3.4183,3.4091,3.3972,3.3825,3.3807,3.3807,3.3807,3.3807,3.3807,3.3825,3.3981,3.4392,3.4924,3.523,3.5698,3.6601,3.7257,3.7794,3.81,3.8526,3.885,3.9141,3.9481,3.9926,4.037,4.0431,4.045,4.0527,4.0585,4.1046,4.1623,4.197,4.2316,4.247,4.3239,4.4008,4.4566,4.5047,4.5355,4.5586,4.5586,4.5603,4.5657,4.569,4.5722,4.5754,4.577,4.5795,4.5786,4.6322,4.6264,4.6303,4.6206,4.6225,4.6206,4.6225,4.6245,4.5858,4.58,4.58,4.58,4.58,4.5877,4.5993,4.638,4.6767,4.7347,4.8024,4.8333,3.119,3.119,3.119,3.119,3.119,3.119,3.119,3.119,3.1224,3.1613,3.2341,3.2949,3.3626,3.4353,3.5098,3.5402,3.5385,3.5571,3.5639,3.5622,3.5728,3.5728,3.5711,3.5844,3.6045,3.6199,3.6457,3.6803,3.7055,3.7285,3.7344,3.7662,3.7763,3.7497,3.7215,3.7223,3.7014,3.667,3.6256,3.6091,3.6009,3.5807,3.5642,3.5605,3.5587,3.5321,3.489,3.4752,3.4495,3.3899,3.3825,3.3862,3.399,3.399,3.3972,3.4036,3.442,3.4842,3.5302,3.5854,3.6538,3.7239,3.7679,3.8126,3.859,3.8924,3.9055,3.9181,3.94,3.973,4.0213,4.0293,4.0354,4.0585,4.1104,4.1585,4.2027,4.2835,4.3662,4.3778,4.4201,4.4547,4.5009,4.5336,4.547,4.5586,4.5586,4.5586,4.5603,4.5637,4.5654,4.5687,4.5735,4.5761,4.5766,4.6554,4.698,4.7134,4.7154,4.7231,4.7173,4.698,4.6767,4.6322,4.5955,4.58,4.58,4.5838,4.6187,4.6515,4.6922,4.7405,4.8101,4.8817,4.9262,3.119,3.119,3.119,3.119,3.119,3.119,3.119,3.1258,3.1596,3.2171,3.2916,3.3643,3.437,3.5013,3.5402,3.5622,3.5639,3.5639,3.5639,3.5622,3.5667,3.5684,3.5639,3.5756,3.58,3.5958,3.6199,3.6433,3.6597,3.6741,3.7038,3.719,3.7542,3.7697,3.7664,3.7885,3.7827,3.7448,3.7136,3.6916,3.6853,3.6597,3.634,3.6321,3.6321,3.6084,3.5818,3.5652,3.5523,3.5211,3.5119,3.5092,3.5055,3.5,3.4871,3.4614,3.4843,3.5459,3.6094,3.6787,3.7332,3.8053,3.8239,3.8485,3.882,3.8989,3.9101,3.9298,3.9391,3.9679,4.0158,4.0164,4.03,4.0585,4.1296,4.1989,4.2604,4.3624,4.4297,4.4816,4.4989,4.5143,4.5316,4.5528,4.5566,4.5586,4.5586,4.5586,4.5586,4.5603,4.562,4.5899,4.6044,4.636,4.6506,4.7182,4.7719,4.7908,4.8121,4.8217,4.7947,4.7676,4.7212,4.6728,4.6361,4.6148,4.6032,4.6148,4.6593,4.7154,4.7889,4.8566,4.9068,4.9591,4.9977,3.119,3.119,3.119,3.119,3.119,3.119,3.119,3.1343,3.1968,3.2662,3.344,3.415,3.4878,3.5453,3.5605,3.5639,3.5639,3.5639,3.5639,3.5622,3.5622,3.5639,3.5639,3.5622,3.5667,3.5817,3.5932,3.6062,3.6301,3.6367,3.6409,3.686,3.7321,3.765,3.7859,3.8323,3.8658,3.8505,3.8138,3.7753,3.7551,3.7129,3.678,3.678,3.678,3.6791,3.6573,3.6534,3.6368,3.6203,3.6166,3.6211,3.6266,3.6285,3.6046,3.5605,3.5506,3.6297,3.704,3.7704,3.8022,3.8542,3.8755,3.8862,3.8921,3.9036,3.9165,3.9388,3.9429,3.9602,3.9963,4.0109,4.0361,4.0931,4.1604,4.2393,4.3258,4.4124,4.4816,4.5259,4.5528,4.5586,4.5586,4.5586,4.5586,4.5586,4.5586,4.5586,4.5586,4.5586,4.5717,4.615,4.6507,4.6997,4.7418,4.806,4.8462,4.8651,4.8961,4.9208,4.8744,4.8256,4.7811,4.7463,4.7115,4.6922,4.6689,4.6651,4.7212,4.7966,4.8952,4.9629,4.9939,5.019,5.05,3.119,3.119,3.119,3.119,3.119,3.119,3.119,3.1292,3.2002,3.2696,3.3457,3.4201,3.4962,3.5487,3.5639,3.5639,3.5639,3.5639,3.5639,3.5639,3.5639,3.5639,3.5639,3.5639,3.5684,3.5773,3.5817,3.5993,3.6165,3.6216,3.662,3.7114,3.734,3.7809,3.8285,3.8564,3.8707,3.8689,3.8579,3.8524,3.8487,3.8322,3.8267,3.8267,3.8212,3.7936,3.7445,3.736,3.7129,3.652,3.6413,3.634,3.6285,3.6285,3.6707,3.6993,3.7235,3.7319,3.7647,3.8102,3.8438,3.867,3.8762,3.8851,3.8921,3.8989,3.9101,3.9129,3.9157,3.9388,3.9778,3.9905,4.0463,4.1396,4.2319,4.3162,4.3989,4.4547,4.5259,4.5393,4.5566,4.5586,4.5586,4.5586,4.5586,4.5586,4.5586,4.5586,4.5699,4.5757,4.593,4.6403,4.7243,4.7796,4.8257,4.8913,4.9258,4.9447,4.9699,5.0043,4.9595,4.9107,4.8817,4.8469,4.8043,4.7715,4.7579,4.7676,4.8024,4.8662,4.9533,5.0152,5.0654,5.0867,5.0906,3.119,3.119,3.119,3.119,3.119,3.119,3.119,3.1444,3.2408,3.3085,3.3609,3.4658,3.5334,3.5588,3.5639,3.5639,3.5639,3.5639,3.5639,3.5639,3.5639,3.5639,3.5639,3.5639,3.5684,3.5684,3.5773,3.5817,3.5993,3.6148,3.6474,3.6981,3.7285,3.7667,3.8318,3.8596,3.8676,3.8707,3.8689,3.8689,3.8707,3.8707,3.8707,3.8707,3.8707,3.8469,3.8248,3.8175,3.8065,3.7668,3.7661,3.7643,3.7661,3.7698,3.7881,3.8065,3.8168,3.8168,3.826,3.8524,3.8652,3.8719,3.8762,3.8803,3.891,3.8979,3.9045,3.9045,3.9073,3.9298,3.9731,4.0215,4.0821,4.1716,4.2904,4.3609,4.4357,4.5047,4.5547,4.5566,4.5586,4.5586,4.5586,4.5586,4.5586,4.5586,4.5605,4.5643,4.5892,4.6198,4.641,4.6735,4.773,4.8728,4.917,4.9691,5.0055,5.0226,5.0281,5.0491,5.0349,5.0016,4.9629,4.9146,4.8624,4.8411,4.8411,4.8624,4.8914,4.9475,5.0055,5.048,5.0848,5.0867,5.0906,3.119,3.119,3.119,3.119,3.119,3.119,3.119,3.1376,3.2747,3.3389,3.3795,3.4878,3.5605,3.5639,3.5639,3.5639,3.5639,3.5639,3.5639,3.5639,3.5639,3.5639,3.5639,3.5639,3.5639,3.5639,3.5667,3.5711,3.5756,3.5871,3.6139,3.6666,3.6964,3.7379,3.7843,3.8168,3.8318,3.8515,3.8627,3.8707,3.8707,3.8707,3.8707,3.8707,3.8707,3.8707,3.8707,3.867,3.8652,3.8597,3.8542,3.8469,3.8505,3.8469,3.8487,3.8579,3.856,3.8579,3.8579,3.8689,3.8707,3.8719,3.8762,3.8833,3.8921,3.8979,3.9007,3.9017,3.9073,3.9357,3.9852,4.0589,4.1281,4.2182,4.3274,4.3942,4.4572,4.5203,4.5586,4.5586,4.5586,4.5586,4.5586,4.5586,4.5586,4.5586,4.5624,4.5701,4.6103,4.6583,4.716,4.7545,4.8275,4.9313,4.9852,5.0314,5.0715,5.0846,5.0883,5.0841,5.0662,5.0484,5.019,4.9687,4.9243,4.9436,4.9629,4.9707,4.9784,5.0171,5.05,5.0693,5.0906,5.0906,5.0906,3.119,3.119,3.119,3.119,3.119,3.119,3.119,3.1326,3.2763,3.3457,3.3812,3.4895,3.5639,3.5639,3.5639,3.5639,3.5639,3.5639,3.5639,3.5639,3.5639,3.5639,3.5639,3.5639,3.5639,3.5639,3.5622,3.5622,3.5622,3.5667,3.6071,3.6539,3.6706,3.7002,3.7379,3.7738,3.8068,3.8303,3.8564,3.8707,3.8707,3.8707,3.8707,3.8707,3.8707,3.8707,3.8707,3.8707,3.8707,3.8707,3.8707,3.8707,3.8707,3.8707,3.8707,3.8707,3.8707,3.8707,3.8707,3.8707,3.8707,3.8719,3.875,3.8822,3.8892,3.8968,3.9036,3.9156,3.9333,3.9751,4.0263,4.086,4.1831,4.2693,4.3645,4.4306,4.4844,4.5243,4.5586,4.5586,4.5586,4.5586,4.5586,4.5586,4.5586,4.5586,4.597,4.6067,4.6586,4.7123,4.7971,4.8547,4.9009,4.974,5.0394,5.0721,5.074,5.0775,5.0793,5.0866,5.0841,5.07,5.0538,5.0519,5.021,5.0538,5.0674,5.0345,5.0268,5.0635,5.0887,5.0906,5.0906,5.0906,5.0906,3.119,3.119,3.119,3.119,3.119,3.119,3.119,3.1444,3.2747,3.3964,3.4776,3.5368,3.5639,3.5639,3.5639,3.5639,3.5639,3.5639,3.5639,3.5639,3.5639,3.5639,3.5639,3.5639,3.5639,3.5639,3.5639,3.5639,3.5622,3.5639,3.5756,3.6114,3.6457,3.6904,3.7248,3.7632,3.8034,3.8368,3.8596,3.8707,3.8707,3.8707,3.8707,3.8707,3.8707,3.8707,3.8707,3.8707,3.8707,3.8707,3.8707,3.8707,3.8707,3.8707,3.8707,3.8707,3.8707,3.8707,3.8707,3.8707,3.8707,3.8707,3.8738,3.878,3.8851,3.8899,3.9254,3.9515,3.9843,4.0337,4.1064,4.1844,4.2718,4.3347,4.399,4.4633,4.5051,4.5362,4.5568,4.5586,4.5586,4.5586,4.5586,4.5586,4.5586,4.5624,4.6067,4.6567,4.7163,4.774,4.8586,4.924,4.9702,4.999,5.0587,5.0702,5.0683,5.072,5.0738,5.0793,5.0863,5.0893,5.079,5.0906,5.0906,5.0848,5.0751,5.0596,5.0654,5.0828,5.0906,5.0906,5.0906,5.0906,5.0906,3.119,3.119,3.119,3.119,3.119,3.119,3.119,3.1461,3.2763,3.4235,3.5605,3.5639,3.5639,3.5639,3.5639,3.5639,3.5639,3.5639,3.5639,3.5639,3.5639,3.5639,3.5639,3.5639,3.5639,3.5639,3.5639,3.5639,3.5639,3.5639,3.5711,3.5958,3.6308,3.6786,3.7173,3.7791,3.8238,3.8469,3.8645,3.8707,3.8707,3.8707,3.8707,3.8707,3.8707,3.8707,3.8707,3.8707,3.8707,3.8707,3.8707,3.8707,3.8707,3.8707,3.8707,3.8707,3.8707,3.8707,3.8707,3.8707,3.8707,3.8707,3.8707,3.8719,3.8799,3.9036,3.9642,4.0081,4.0492,4.1107,4.185,4.2501,4.3063,4.3577,4.4153,4.4735,4.4957,4.5243,4.5438,4.5568,4.5586,4.5605,4.5817,4.5893,4.6201,4.6201,4.6394,4.7124,4.8067,4.8644,4.9221,4.9798,5.0221,5.0471,5.0683,5.0702,5.0702,5.0702,5.072,5.0738,5.0791,5.0841,5.0909,5.0893,5.0893,5.0909,5.0848,5.0732,5.079,5.0887,5.0906,5.0906,5.0906,5.0906,5.0906,3.119,3.119,3.119,3.119,3.119,3.119,3.119,3.1393,3.2763,3.4235,3.552,3.5639,3.5639,3.5639,3.5639,3.5639,3.5639,3.5639,3.5639,3.5639,3.5639,3.5639,3.5639,3.5639,3.5639,3.5639,3.5639,3.5639,3.5639,3.5639,3.5684,3.5958,3.6416,3.6821,3.6865,3.765,3.8088,3.8176,3.8551,3.8676,3.8707,3.8707,3.8707,3.8707,3.8707,3.8707,3.8707,3.8707,3.8707,3.8707,3.8707,3.8707,3.8707,3.8707,3.8707,3.8707,3.8707,3.8707,3.8707,3.8707,3.8707,3.8707,3.8707,3.8793,3.9054,3.952,4.0215,4.0748,4.1208,4.1924,4.2463,4.2883,4.336,4.3741,4.4317,4.4676,4.4896,4.5118,4.5342,4.5531,4.5586,4.5643,4.5951,4.6259,4.6759,4.6932,4.6894,4.7586,4.8721,4.9413,4.9913,5.0125,5.051,5.0587,5.0683,5.0683,5.0702,5.0683,5.0702,5.072,5.0756,5.0827,5.0863,5.088,5.0897,5.0893,5.0909,5.0887,5.0906,5.0906,5.0906,5.0906,5.0906,5.0906,5.0906,3.119,3.119,3.119,3.119,3.119,3.119,3.119,3.1444,3.2763,3.4252,3.5419,3.5639,3.5639,3.5639,3.5639,3.5639,3.5639,3.5639,3.5639,3.5639,3.5639,3.5639,3.5639,3.5639,3.5639,3.5639,3.5639,3.5639,3.5639,3.5639,3.5756,3.6045,3.6701,3.7314,3.761,3.8041,3.8204,3.8455,3.8645,3.8707,3.8707,3.8707,3.8707,3.8707,3.8707,3.8707,3.8707,3.8707,3.8707,3.8707,3.8707,3.8707,3.8707,3.8707,3.8707,3.8707,3.8707,3.8707,3.8707,3.8707,3.8707,3.8726,3.8799,3.905,3.9516,3.9829,4.0621,4.1514,4.205,4.2786,4.3392,4.3559,4.3869,4.393,4.4308,4.4546,4.48,4.5055,4.5283,4.5495,4.5586,4.6009,4.6355,4.6797,4.7278,4.8067,4.8221,4.8375,4.9279,4.9933,5.0452,5.0471,5.0644,5.0664,5.0683,5.0683,5.0683,5.0702,5.0683,5.0701,5.0738,5.0794,5.0812,5.0846,5.0863,5.0897,5.0893,5.0909,5.089,5.0906,5.0906,5.0906,5.0906,5.0906,5.0906,3.119,3.119,3.119,3.119,3.119,3.119,3.1427,3.2053,3.3034,3.4235,3.5385,3.5639,3.5639,3.5639,3.5639,3.5639,3.5639,3.5639,3.5639,3.5639,3.5639,3.5639,3.5639,3.5639,3.5639,3.5639,3.5639,3.5639,3.5639,3.5639,3.5827,3.635,3.7038,3.7524,3.7933,3.8216,3.8451,3.8645,3.8707,3.8707,3.8707,3.8707,3.8707,3.8707,3.8707,3.8707,3.8707,3.8707,3.8707,3.8707,3.8707,3.8707,3.8707,3.8707,3.8707,3.8707,3.8707,3.8707,3.8707,3.9111,3.9166,3.9203,3.9129,3.9368,4.0005,4.0609,4.1409,4.2229,4.286,4.3336,4.3794,4.3992,4.4005,4.4067,4.4151,4.4402,4.4624,4.4896,4.5118,4.5342,4.5703,4.6203,4.6836,4.7336,4.7817,4.874,4.9586,4.9702,4.9779,5.026,5.0683,5.0683,5.0683,5.0683,5.0683,5.0683,5.0683,5.0683,5.0683,5.0702,5.0702,5.0758,5.0776,5.0775,5.0846,5.088,5.0913,5.0909,5.0909,5.0906,5.0906,5.0906,5.0906,5.0906,5.0906,3.119,3.119,3.119,3.119,3.119,3.119,3.1968,3.3305,3.3389,3.4235,3.556,3.5639,3.5639,3.5639,3.5639,3.5639,3.5639,3.5639,3.5639,3.5639,3.5639,3.5639,3.5639,3.5639,3.5639,3.5639,3.5639,3.5639,3.5639,3.5667,3.5985,3.6522,3.7097,3.7613,3.8041,3.8423,3.8578,3.8707,3.8707,3.8707,3.8707,3.8707,3.8707,3.8707,3.8707,3.8707,3.8707,3.8707,3.8707,3.8707,3.8707,3.8707,3.8707,3.8707,3.8707,3.8707,3.8707,3.8726,3.8964,3.9496,3.9827,3.99,4.0065,4.0042,4.0491,4.1388,4.2101,4.2719,4.3245,4.3555,4.3915,4.3929,4.3961,4.3974,4.4005,4.421,4.443,4.465,4.4896,4.5197,4.5592,4.6185,4.7087,4.7702,4.8452,4.9336,5.0087,5.024,5.0298,5.0356,5.0683,5.0683,5.0683,5.0683,5.0683,5.0683,5.0683,5.0683,5.0683,5.0683,5.0721,5.0721,5.0721,5.0758,5.0829,5.088,5.0893,5.0909,5.089,5.0906,5.0906,5.0906,5.0906,5.0906,5.0906,3.119,3.119,3.119,3.119,3.119,3.119,3.2036,3.3305,3.3406,3.4235,3.5639,3.5639,3.5639,3.5639,3.5639,3.5639,3.5639,3.5639,3.5639,3.5639,3.5639,3.5639,3.5639,3.5639,3.5639,3.5639,3.5639,3.5639,3.5684,3.5756,3.6114,3.662,3.7173,3.7684,3.808,3.8496,3.8627,3.8707,3.8707,3.8707,3.8707,3.8707,3.8707,3.8707,3.8707,3.8707,3.8707,3.8707,3.8707,3.8707,3.8707,3.8707,3.8707,3.8707,3.8707,3.8707,3.8762,3.8909,3.946,3.9753,4.0139,4.0781,4.1222,4.157,4.1805,4.211,4.2732,4.3133,4.3457,4.3726,4.3883,4.3897,4.3961,4.3992,4.4005,4.414,4.4336,4.4465,4.4745,4.5335,4.5742,4.6647,4.753,4.8355,4.9125,4.9952,5.0471,5.0606,5.0683,5.0683,5.0683,5.0683,5.0683,5.0683,5.0683,5.0683,5.0683,5.0683,5.0683,5.0683,5.0702,5.0702,5.0683,5.0721,5.0794,5.0844,5.0909,5.0909,5.0913,5.0909,5.089,5.089,5.0906,5.089,5.0906,3.1015,3.1151,3.1015,3.1015,3.119,3.119,3.2036,3.3237,3.3389,3.4235,3.5537,3.5639,3.5639,3.5639,3.5639,3.5639,3.5639,3.5639,3.5639,3.5639,3.5639,3.5639,3.5639,3.5639,3.5639,3.5639,3.5639,3.5639,3.5711,3.6002,3.635,3.662,3.7303,3.7739,3.814,3.8488,3.8658,3.8707,3.8707,3.8707,3.8707,3.8707,3.8707,3.8707,3.8707,3.8707,3.8707,3.8707,3.8707,3.8707,3.8707,3.8707,3.8707,3.8707,3.8707,3.8707,3.8726,3.9129,3.9698,4.023,4.0799,4.1515,4.2286,4.2635,4.276,4.2904,4.3162,4.3435,4.3609,4.38,4.3865,4.3915,4.3961,4.4005,4.4036,4.4079,4.4192,4.4327,4.4851,4.5489,4.6307,4.724,4.8106,4.8933,4.9663,5.026,5.0567,5.0625,5.0683,5.0683,5.0683,5.0683,5.0683,5.0683,5.0683,5.0683,5.0683,5.0683,5.0683,5.0683,5.0683,5.0702,5.0683,5.0702,5.0739,5.0791,5.0861,5.0899,5.0899,5.0897,5.0893,5.0877,5.0893,5.0909,5.0909,3.0699,3.1015,3.0642,3.0781,3.1151,3.1207,3.2036,3.3322,3.3389,3.4235,3.5436,3.5639,3.5639,3.5639,3.5639,3.5639,3.5639,3.5639,3.5639,3.5639,3.5639,3.5639,3.5639,3.5639,3.5639,3.5639,3.5639,3.5639,3.5739,3.6071,3.6474,3.6684,3.747,3.8,3.8259,3.8519,3.8707,3.8707,3.8707,3.8707,3.8707,3.8707,3.8707,3.8707,3.8707,3.8707,3.8707,3.8707,3.8707,3.8707,3.8707,3.8707,3.8707,3.8707,3.8707,3.8817,3.8872,3.946,4.0157,4.0818,4.1589,4.2323,4.3057,4.324,4.3259,4.3275,4.3422,4.3493,4.3649,4.3753,4.3818,4.3915,4.3992,4.4005,4.4036,4.4017,4.4109,4.4325,4.4831,4.5558,4.6477,4.748,4.8702,4.9529,4.999,5.0529,5.0683,5.0683,5.0683,5.0683,5.0683,5.0683,5.0683,5.0683,5.0683,5.0683,5.0683,5.0683,5.0683,5.0683,5.0683,5.0702,5.0683,5.0702,5.0701,5.0757,5.0812,5.0849,5.0866,5.0846,5.0827,5.0846,5.0863,5.0877,5.0909,3.0054,3.014,3.0393,3.0781,3.119,3.119,3.2036,3.3355,3.3389,3.4235,3.5391,3.5639,3.5639,3.5639,3.5639,3.5639,3.5639,3.5639,3.5639,3.5639,3.5639,3.5639,3.5639,3.5639,3.5639,3.5639,3.5639,3.5622,3.5739,3.6139,3.6661,3.7038,3.7685,3.8086,3.8405,3.8645,3.8658,3.8658,3.8707,3.8707,3.8707,3.8707,3.8707,3.8707,3.8707,3.8707,3.8707,3.8707,3.8707,3.8707,3.8707,3.8707,3.8707,3.8707,3.8707,3.8799,3.9203,3.9882,4.0634,4.1423,4.2231,4.2837,4.3351,4.3424,4.3479,4.3479,4.3513,4.3566,4.36,4.3719,4.3837,4.3897,4.3974,4.3974,4.4005,4.4005,4.4005,4.4386,4.4787,4.5765,4.67,4.7815,4.9085,4.9894,5.0375,5.0606,5.0664,5.0683,5.0683,5.0683,5.0683,5.0683,5.0683,5.0683,5.0683,5.0683,5.0683,5.0683,5.0683,5.0683,5.0683,5.0702,5.0683,5.0702,5.0701,5.0739,5.0776,5.0793,5.0793,5.0794,5.0794,5.0794,5.0829,5.0844,5.0877,2.9601,2.9853,3.0309,3.0781,3.1134,3.119,3.2036,3.322,3.3406,3.4235,3.5487,3.5639,3.5639,3.5639,3.5639,3.5639,3.5639,3.5639,3.5639,3.5639,3.5639,3.5639,3.5639,3.5639,3.5639,3.5639,3.5639,3.5622,3.5694,3.6079,3.6603,3.696,3.7487,3.8034,3.8368,3.8465,3.8609,3.8609,3.8658,3.8707,3.8707,3.8707,3.8707,3.8707,3.8707,3.8707,3.8707,3.8707,3.8707,3.8707,3.8707,3.8707,3.8707,3.8707,3.8707,3.8909,3.9423,4.0267,4.1056,4.1882,4.2671,4.3222,4.3479,4.3479,4.3479,4.3479,4.3479,4.3513,4.36,4.3667,4.38,4.3878,4.3942,4.3974,4.4005,4.4005,4.4005,4.4172,4.519,4.6549,4.7376,4.8151,4.9311,5.026,5.0625,5.0625,5.0683,5.0683,5.0683,5.0683,5.0683,5.0683,5.0683,5.0683,5.0683,5.0683,5.0683,5.0683,5.0683,5.0683,5.0683,5.0683,5.0683,5.0702,5.0683,5.0721,5.074,5.0739,5.0758,5.0759,5.0759,5.0758,5.0794,5.081,5.0844,2.9273,2.975,3.0208,3.0658,3.1095,3.119,3.2036,3.3237,3.3406,3.4235,3.5504,3.5639,3.5639,3.5639,3.5639,3.5639,3.5639,3.5639,3.5639,3.5639,3.5639,3.5639,3.5639,3.5639,3.5639,3.5639,3.5639,3.5639,3.5622,3.6097,3.6416,3.6603,3.7097,3.7738,3.7929,3.815,3.8433,3.8559,3.864,3.8707,3.8707,3.8707,3.8707,3.8707,3.8707,3.8707,3.8707,3.8707,3.8707,3.8707,3.8707,3.8707,3.8707,3.8707,3.8707,3.8927,3.9717,4.0432,4.1148,4.2066,4.2763,4.3296,4.3424,4.3479,4.3479,4.3479,4.3479,4.3513,4.3582,4.3649,4.3749,4.3828,4.391,4.3974,4.3974,4.4005,4.4005,4.4135,4.5546,4.7061,4.7821,4.85,4.9513,5.047,5.0663,5.0663,5.0683,5.0683,5.0683,5.0683,5.0683,5.0683,5.0683,5.0683,5.0683,5.0683,5.0683,5.0683,5.0683,5.0683,5.0683,5.0683,5.0683,5.0683,5.0702,5.0702,5.0702,5.0721,5.0702,5.0721,5.0721,5.074,5.074,5.0776,5.081,2.8779,2.9257,2.975,3.0225,3.0658,3.1015,3.2036,3.3254,3.3423,3.4235,3.5351,3.5639,3.5639,3.5639,3.5639,3.5639,3.5639,3.5639,3.5639,3.5639,3.5639,3.5639,3.5639,3.5639,3.5639,3.5639,3.5639,3.5639,3.5622,3.6028,3.635,3.6416,3.6786,3.736,3.7861,3.8068,3.8204,3.8451,3.864,3.8707,3.8707,3.8707,3.8707,3.8707,3.8707,3.8707,3.8707,3.8707,3.8707,3.8707,3.8707,3.8707,3.8707,3.8707,3.8707,3.9074,3.9882,4.0653,4.1405,4.2415,4.3185,4.3369,4.3479,4.3479,4.3479,4.3479,4.3479,4.3513,4.3566,4.3566,4.3667,4.3832,4.3897,4.3961,4.3974,4.3974,4.4005,4.4649,4.5686,4.6797,4.7683,4.8662,4.9843,5.0399,5.0504,5.0544,5.0683,5.0683,5.0683,5.0683,5.0683,5.0683,5.0683,5.0683,5.0683,5.0683,5.0683,5.0683,5.0683,5.0683,5.0683,5.0683,5.0683,5.0683,5.0683,5.0702,5.0683,5.0683,5.0683,5.0702,5.0683,5.0702,5.0721,5.0721,5.0757]},{"header":{"parameterUnit":"m.s-1","parameterCategory":1,"la1":31.0,"la2":29.5877,"lo1":-88.7671,"lo2":-86.6584,"dy":0.0162,"dx":0.0185,"nx":115,"ny":88,"refTime":"2024-04-09T12:00:00:Z","depth":0,"parameterNumber":3,"parameterNumberName":"V-component_of_WINDS"},"data":[0.0,0.0,0.0,0.0,0.0,0.0,0.0,0.0,0.0,0.0,0.0,0.0,0.0,0.0,0.0,0.0,0.0,0.0,0.0,0.0,0.0,0.0,0.0,0.0,0.0,0.0,0.0,0.0,0.0,0.0,0.0,0.0,0.0,0.0,0.0,0.0,0.0,0.0,0.0,0.0,0.0,0.0,0.0,0.0,0.0,0.0,0.0,0.0,0.0,0.0,0.0,0.0,0.0,0.0,0.0,0.0,0.0,0.0,0.0,0.0,0.0,0.0,0.0,0.0,0.0,0.0,0.0,0.0,0.0,0.0,0.0,0.0,0.0,0.0,0.0,0.0,0.0,0.0,0.0,0.0,0.0,0.0,0.0,0.0,0.0,0.0,0.0,0.0,0.0,0.0,0.0,0.0,0.0,0.0,0.0,0.0,0.0,0.0,0.0,0.0,0.0,0.0,0.0,0.0,0.0,0.0,0.0,0.0,0.0,0.0,0.0,0.0,0.0,0.0,0.0,0.0,0.0,0.0,0.0,0.0,0.0,0.0,0.0,0.0,0.0,0.0,0.0,0.0,0.0,0.0,0.0,0.0,0.0,0.0,0.0,0.0,0.0,0.0,0.0,0.0,0.0,0.0,0.0,0.0,0.0,0.0,0.0,0.0,0.0,0.0,0.0,0.0,0.0,0.0,0.0,0.0,0.0,0.0,0.0,0.0,0.0,0.0,0.0,0.0,0.0,0.0,0.0,0.0,0.0,0.0,0.0,0.0,0.0,0.0,0.0,0.0,0.0,0.0,0.0,0.0,0.0,0.0,0.0,0.0,0.0,0.0,0.0,0.0,0.0,0.0,0.0,0.0,0.0,0.0,0.0,0.0,0.0,0.0,0.0,0.0,0.0,0.0,0.0,0.0,0.0,0.0,0.0,0.0,0.0,0.0,0.0,0.0,0.0,0.0,0.0,0.0,0.0,0.0,0.0,0.0,0.0,0.0,0.0,0.0,0.0,0.0,0.0,0.0,0.0,0.0,0.0,0.0,0.0,0.0,0.0,0.0,0.0,0.0,0.0,0.0,0.0,0.0,0.0,0.0,0.0,0.0,0.0,0.0,0.0,0.0,0.0,0.0,0.0,0.0,0.0,0.0,0.0,0.0,0.0,0.0,0.0,0.0,0.0,0.0,0.0,0.0,0.0,0.0,0.0,0.0,0.0,0.0,0.0,0.0,0.0,0.0,0.0,0.0,0.0,0.0,0.0,0.0,0.0,0.0,0.0,0.0,0.0,0.0,0.0,0.0,0.0,0.0,0.0,0.0,0.0,0.0,0.0,0.0,0.0,0.0,0.0,0.0,0.0,0.0,0.0,0.0,0.0,0.0,0.0,0.0,0.0,0.0,0.0,0.0,0.0,0.0,0.0,0.0,0.0,0.0,0.0,0.0,0.0,0.0,0.0,0.0,0.0,0.0,0.0,0.0,0.0,0.0,0.0,0.0,0.0,0.0,0.0,0.0,0.0,0.0,0.0,0.0,0.0,0.0,0.0,0.0,0.0,0.0,0.0,0.0,0.0,0.0,0.0,0.0,0.0,0.0,0.0,0.0,0.0,0.0,0.0,0.0,0.0,0.0,0.0,0.0,0.0,0.0,0.0,0.0,0.0,0.0,0.0,0.0,0.0,0.0,0.0,0.0,0.0,0.0,0.0,0.0,0.0,0.0,0.0,0.0,0.0,0.0,0.0,0.0,0.0,0.0,0.0,0.0,0.0,0.0,0.0,0.0,0.0,0.0,0.0,0.0,0.0,0.0,0.0,0.0,0.0,0.0,0.0,0.0,0.0,0.0,0.0,0.0,0.0,0.0,0.0,0.0,0.0,0.0,0.0,0.0,0.0,0.0,0.0,0.0,0.0,0.0,0.0,0.0,0.0,0.0,0.0,0.0,0.0,0.0,0.0,0.0,0.0,0.0,0.0,0.0,0.0,0.0,0.0,0.0,0.0,0.0,0.0,0.0,0.0,0.0,0.0,0.0,0.0,0.0,0.0,0.0,0.0,0.0,0.0,0.0,0.0,0.0,0.0,0.0,0.0,0.0,0.0,0.0,0.0,0.0,0.0,0.0,0.0,0.0,0.0,0.0,0.0,0.0,0.0,0.0,0.0,0.0,0.0,0.0,0.0,0.0,0.0,0.0,0.0,0.0,0.0,0.0,0.0,0.0,0.0,0.0,0.0,0.0,0.0,0.0,0.0,0.0,0.0,0.0,0.0,0.0,0.0,0.0,0.0,0.0,0.0,0.0,0.0,0.0,0.0,0.0,0.0,0.0,0.0,0.0,0.0,0.0,0.0,0.0,0.0,0.0,0.0,0.0,0.0,0.0,0.0,0.0,0.0,0.0,0.0,0.0,0.0,0.0,0.0,0.0,0.0,0.0,0.0,0.0,0.0,0.0,0.0,0.0,0.0,0.0,0.0,0.0,0.0,0.0,0.0,0.0,0.0,0.0,0.0,0.0,0.0,0.0,0.0,0.0,0.0,0.0,0.0,0.0,0.0,0.0,0.0,0.0,0.0,0.0,0.0,0.0,0.0,0.0,0.0,0.0,0.0,0.0,0.0,0.0,0.0,0.0,0.0,0.0,0.0,0.0,0.0,0.0,0.0,0.0,0.0,0.0,0.0,0.0,0.0,0.0,0.0,0.0,0.0,0.0,0.0,0.0,0.0,0.0,0.0,0.0,0.0,0.0,0.0,0.0,0.0,0.0,0.0,0.0,0.0,0.0,0.0,0.0,0.0,0.0,0.0,0.0,0.0,0.0,0.0,0.0,0.0,0.0,0.0,0.0,0.0,0.0,0.0,0.0,0.0,0.0,0.0,0.0,0.0,0.0,0.0,0.0,0.0,0.0,0.0,0.0,0.0,0.0,0.0,0.0,0.0,0.0,0.0,0.0,0.0,0.0,0.0,0.0,0.0,0.0,0.0,0.0,0.0,0.0,0.0,0.0,0.0,0.0,0.0,0.0,0.0,0.0,0.0,0.0,0.0,0.0,0.0,0.0,0.0,0.0,0.0,0.0,0.0,0.0,0.0,0.0,0.0,0.0,0.0,0.0,0.0,0.0,0.0,0.0,0.0,0.0,0.0,0.0,0.0,0.0,0.0,0.0,0.0,0.0,0.0,0.0,0.0,0.0,0.0,0.0,0.0,0.0,0.0,0.0,0.0,0.0,0.0,0.0,0.0,0.0,0.0,0.0,0.0,0.0,0.0,0.0,0.0,0.0,0.0,0.0,0.0,0.0,0.0,0.0,0.0,0.0,0.0,0.0,0.0,0.0,0.0,0.0,0.0,0.0,0.0,0.0,0.0,0.0,0.0,0.0,0.0,0.0,0.0,0.0,0.0,0.0,0.0,0.0,0.0,0.0,0.0,0.0,0.0,0.0,0.0,0.0,0.0,0.0,0.0,0.0,0.0,0.0,0.0,0.0,0.0,0.0,0.0,0.0,0.0,0.0,0.0,0.0,0.0,0.0,0.0,0.0,0.0,0.0,0.0,0.0,0.0,0.0,0.0,0.0,0.0,0.0,0.0,0.0,0.0,0.0,0.0,0.0,0.0,0.0,0.0,0.0,0.0,0.0,0.0,0.0,0.0,0.0,0.0,0.0,0.0,0.0,0.0,0.0,0.0,0.0,0.0,0.0,0.0,0.0,0.0,0.0,0.0,0.0,0.0,0.0,0.0,0.0,0.0,0.0,0.0,0.0,0.0,0.0,0.0,0.0,0.0,0.0,0.0,0.0,0.0,0.0,0.0,0.0,0.0,0.0,0.0,0.0,0.0,0.0,0.0,0.0,0.0,0.0,0.0,0.0,0.0,0.0,0.0,0.0,0.0,0.0,0.0,0.0,0.0,0.0,0.0,0.0,0.0,0.0,0.0,0.0,0.0,0.0,0.0,0.0,0.0,0.0,0.0,0.0,0.0,0.0,0.0,0.0,0.0,0.0,0.0,0.0,0.0,0.0,0.0,0.0,0.0,0.0,0.0,0.0,0.0,0.0,0.0,0.0,0.0,0.0,0.0,0.0,0.0,0.0,0.0,0.0,0.0,0.0,0.0,0.0,0.0,0.0,0.0,0.0,0.0,0.0,0.0,0.0,0.0,0.0,0.0,0.0,0.0,0.0,0.0,0.0,0.0,0.0,0.0,0.0,0.0,0.0,0.0,0.0,0.0,0.0,0.0,0.0,0.0,0.0,0.0,0.0,0.0,0.0,0.0,0.0,0.0,0.0,0.0,0.0,0.0,0.0,0.0,0.0,-0.2014,0.0,0.0,0.0,0.0,0.0,0.0,0.0,0.0,0.0,0.0,0.0,0.0,0.0,0.0,0.0,0.0,0.0,0.0,0.0,0.0,0.0,0.0,0.0,0.0,0.0,0.0,0.0,0.0,0.0,0.0,0.0,0.0,0.0,0.0,0.0,0.0,0.0,0.0,0.0,0.0,0.0,0.0,0.0,0.0,0.0,0.0,0.0,0.0,0.0,0.0,0.0,0.0,0.0,0.0,0.0,0.0,0.0,0.0,0.0,0.0,0.0,0.0,0.0,0.0,0.0,0.0,0.0,0.0,0.0,0.0,0.0,0.0,0.0,0.0,0.0,0.0,0.0,0.0,0.0,0.0,0.0,0.0,0.0,0.0,0.0,0.0,0.0,0.0,0.0,0.0,0.0,0.0,0.0,0.0,0.0,0.0,0.0,0.0,0.0,0.0,0.0,0.0,0.0,0.0,0.0,0.0,0.0,0.0,0.0,0.0,-0.3401,-0.3262,-0.2768,-0.2277,-0.1969,0.0,0.0,0.0,0.0,0.0,0.0,0.0,0.0,0.0,0.0,0.0,0.0,0.0,0.0,0.0,0.0,0.0,0.0,0.0,0.0,0.0,0.0,0.0,0.0,0.0,0.0,0.0,0.0,0.0,0.0,0.0,0.0,0.0,0.0,0.0,0.0,0.0,0.0,0.0,0.0,0.0,0.0,0.0,0.0,0.0,0.0,0.0,0.0,0.0,0.0,0.0,0.0,0.0,0.0,0.0,0.0,0.0,0.0,0.0,0.0,0.0,0.0,0.0,0.0,0.0,0.0,0.0,0.0,0.0,0.0,0.0,0.0,0.0,0.0,0.0,0.0,0.0,0.0,0.0,0.0,0.0,0.0,0.0,0.0,0.0,0.0,0.0,0.0,0.0,0.0,0.0,0.0,0.0,0.0,0.0,0.0,0.0,0.0,0.0,0.0,0.0,0.0,0.0,0.0,0.0,0.0,0.0,0.0,0.0,0.0,0.0,0.0,-0.2368,-0.1876,-0.1741,0.0,0.0,0.0,0.0,0.0,0.0,0.0,0.0,0.0,0.0,0.0,0.0,0.0,0.0,0.0,0.0,0.0,0.0,0.0,0.0,0.0,0.0,0.0,0.0,0.0,0.0,0.0,0.0,0.0,0.0,0.0,0.0,0.0,0.0,0.0,0.0,0.0,0.0,0.0,0.0,0.0,0.0,0.0,0.0,0.0,0.0,0.0,0.0,0.0,0.0,0.0,0.0,0.0,0.0,0.0,0.0,0.0,0.0,0.0,0.0,0.0,0.0,0.0,0.0,0.0,0.0,0.0,0.0,0.0,0.0,0.0,0.0,0.0,0.0,0.0,0.0,0.0,0.0,0.0,0.0,0.0,0.0,0.0,0.0,0.0,0.0,0.0,0.0,0.0,0.0,0.0,0.0,0.0,0.0,0.0,0.0,0.0,0.0,0.0,0.0,0.0,0.0,0.0,0.0,0.0,0.0,0.0,0.0,0.0,0.0,-0.2328,-0.1611,-0.1523,0.0,-0.0671,0.0,0.0,0.0,0.0,0.0,0.0,0.0,0.0,0.0,0.0,0.0,0.0,0.0,0.0,0.0,0.0,0.0,0.0,0.0,0.0,0.0,0.0,0.0,0.0,0.0,0.0,0.0,0.0,0.0,0.0,0.0,0.0,0.0,0.0,0.0,0.0,0.0,0.0,0.0,0.0,0.0,0.0,0.0,0.0,0.0,0.0,0.0,0.0,0.0,0.0,0.0,0.0,0.0,0.0,0.0,0.0,0.0,0.0,0.0,0.0,0.0,0.0,0.0,0.0,0.0,0.0,0.0,0.0,0.0,0.0,0.0,0.0,0.0,0.0,0.0,0.0,0.0,0.0,0.0,0.0,0.0,0.0,0.0,0.0,0.0,0.0,0.0,0.0,0.0,0.0,0.0,0.0,0.0,0.0,0.0,0.0,0.0,0.0,0.0,0.0,0.0,0.0,0.0,0.0,0.0,0.0,0.0,0.0,0.0,0.0,-0.1746,-0.1389,-0.1121,-0.0853,0.0,0.0,0.0,0.0,0.0,0.0,0.0,0.0,0.0,0.0,0.0,0.0,0.0,0.0,0.0,0.0,0.0,0.0,0.0,0.0,0.0,0.0,0.0,0.0,0.0,0.0,0.0,0.0,0.0,0.0,0.0,0.0,0.0,0.0,0.0,0.0,0.0,0.0,0.0,0.0,0.0,0.0,0.0,0.0,0.0,0.0,0.0,0.0,0.0,0.0,0.0,0.0,0.0,0.0,0.0,0.0,0.0,0.0,0.0,0.0,0.0,0.0,0.0,0.0,0.0,0.0,0.0,0.0,0.0,0.0,0.0,0.0,0.0,0.0,0.0,0.0,0.0,0.0,0.0,0.0,0.0,0.0,0.0,0.0,0.0,0.0,0.0,0.0,0.0,0.0,0.0,0.0,0.0,0.0,0.0,0.0,0.0,0.0,0.0,0.0,0.0,0.0,0.0,0.0,0.0,0.0,0.0,0.0,0.0,0.0,-0.1386,-0.1211,-0.1211,-0.0898,-0.0719,-0.0719,0.0,0.0,0.0,0.0,0.0,0.0,0.0,0.0,0.0,0.0,0.0,0.0,0.0,0.0,0.0,0.0,0.0,0.0,0.0,0.0,0.0,0.0,0.0,0.0,0.0,0.0,0.0,0.0,0.0,0.0,0.0,0.0,0.0,0.0,0.0,0.0,0.0,0.0,0.0,0.0,0.0,0.0,0.0,0.0,0.0,0.0,0.0,0.0,0.0,0.0,0.0,0.0,0.0,0.0,0.0,0.0,0.0,0.0,0.0,0.0,0.0,0.0,0.0,0.0,0.0,0.0,0.0,0.0,0.0,0.0,0.0,0.0,0.0,0.0,0.0,0.0,0.0,0.0,0.0,0.0,0.0,0.0,0.0,0.0,0.0,0.0,0.0,0.0,0.0,0.0,0.0,0.0,0.0,0.0,0.0,0.0,0.0,0.0,0.0,0.0,0.0,0.0,0.0,0.0,0.0,0.0,0.0,0.0,-0.1703,-0.1077,-0.0719,-0.0719,-0.0719,-0.0719,0.0,0.0,0.0,0.0,0.0,0.0,0.0,0.0,0.0,0.0,0.0,0.0,0.0,0.0,0.0,0.0,0.0,0.0,0.0,0.0,0.0,0.0,0.0,0.0,0.0,0.0,0.0,0.0,0.0,0.0,0.0,0.0,0.0,0.0,0.0,0.0,0.0,0.0,0.0,0.0,0.0,0.0,0.0,0.0,0.0,0.0,0.0,0.0,0.0,0.0,0.0,0.0,0.0,0.0,0.0,0.0,0.0,0.0,0.0,0.0,0.0,0.0,0.0,0.0,0.0,0.0,0.0,0.0,0.0,0.0,0.0,0.0,0.0,0.0,0.0,0.0,0.0,0.0,0.0,0.0,0.0,0.0,0.0,0.0,0.0,0.0,0.0,0.0,0.0,0.0,0.0,0.0,0.0,0.0,0.0,0.0,0.0,0.0,0.0,0.0,0.0,0.0,0.0,0.0,0.0,0.0,0.0,0.0,0.0,-0.1074,-0.0808,-0.0449,0.0045,-0.0449,-0.0629,0.0,0.0,0.0,0.0,0.0,0.0,0.0,0.0,0.0,0.0,0.0,0.0,0.0,0.0,0.0,0.0,0.0,0.0,0.0,0.0,0.0,0.0,0.0,0.0,0.0,0.0,0.0,0.0,0.0,0.0,0.0,0.0,0.0,0.0,0.0,0.0,0.0,0.0,0.0,0.0,0.0,0.0,0.0,0.0,0.0,0.0,0.0,0.0,0.0,0.0,0.0,0.0,0.0,0.0,0.0,0.0,0.0,0.0,0.0,0.0,0.0,0.0,0.0,0.0,0.0,0.0,0.0,0.0,0.0,0.0,0.0,0.0,0.0,0.0,0.0,0.0,0.0,0.0,0.0,0.0,0.0,0.0,0.0,0.0,0.0,0.0,0.0,0.0,0.0,0.0,0.0,0.0,0.0,0.0,0.0,0.0,0.0,0.0,0.0,0.0,0.0,0.0,0.0,0.0,0.0,0.0,0.0,0.0,0.0,-0.0186,0.0,0.0047,0.014,0.0186,0.0,0.0,0.0,0.0,0.0,0.0,0.0,0.0,0.0,0.0,0.0,0.0,0.0,0.0,0.0,0.0,0.0,0.0,0.0,0.0,0.0,0.0,0.0,0.0,0.0,0.0,0.0,0.0,0.0,0.0,0.0,0.0,0.0,0.0,0.0,0.0,0.0,0.0,0.0,0.0,0.0,0.0,0.0,0.0,0.0,0.0,0.0,0.0,0.0,0.0,0.0,0.0,0.0,0.0,0.0,0.0,0.0,0.0,0.0,0.0,0.0,0.0,0.0,0.0,0.0,0.0,0.0,0.0,0.0,0.0,0.0,0.0,0.0,0.0,0.0,0.0,0.0,0.0,0.0,0.0,0.0,0.0,0.0,0.0,0.0,0.0,0.0,0.0,0.0,0.0,0.0,0.0,0.0,0.0,0.0,0.0,0.0,0.0,0.0,0.0,0.0,0.0,0.0,0.0,0.0,0.0,0.0,0.0,0.0,-0.0201,0.0906,0.1255,0.0851,-0.0352,0.1002,0.1283,0.0,0.0,0.0,0.0,0.0,0.0,0.0,0.0,0.0,0.0,0.0,0.0,0.0,0.0,0.0,0.0,0.0,0.0,0.0,0.0,0.0,0.0,0.0,0.0,0.0,0.0,0.0,0.0,0.0,0.0,0.0,0.0,0.0,0.0,0.0,0.0,0.0,0.0,0.0,0.0,0.0,0.0,0.0,0.0,0.0,0.0,0.0,0.0,0.0,0.0,0.0,0.0,0.0,0.0,0.0,0.0,0.0,0.0,0.0,0.0,0.0,0.0,0.0,0.0,0.0,0.0,0.0,0.0,0.0,0.0,0.0,0.0,0.0,0.0,0.0,0.0,0.0,0.0,0.0,0.0,0.0,0.0,0.0,0.0,0.0,0.0,0.0,0.0,0.0,0.0,0.0,0.0,0.0,0.0,0.0,0.0,0.0,0.0,0.0,0.0,0.0,0.0,0.0,0.0,0.0,0.0,0.0,0.0,0.0,0.0808,0.2168,0.2317,0.1157,0.1357,0.1699,0.0,0.0,0.0,0.0,0.0,0.0,0.0,0.0,0.0,0.0,0.0,0.0,0.0,0.0,0.0,0.0,0.0,0.0,0.0,0.0,0.0,0.0,0.0,0.0,0.0,0.0,0.0,0.0,0.0,0.0,0.0,0.0,0.0,0.0,0.0,0.0,0.0,0.0,0.0,0.0,0.0,0.0,0.0,0.0,0.0,0.0,0.0,0.0,0.0,0.0,0.0,0.0,0.0,0.0,0.0,0.0,0.0,0.0,0.0,0.0,0.0,0.0,0.0,0.0,0.0,0.0,0.0,0.0,0.0,0.0,0.0,0.0,0.0,0.0,0.0,0.0,0.0,0.0,0.0,0.0,0.0,0.0,0.0,0.0,0.0,0.0,0.0,0.0,0.0,0.0,0.0,0.0,0.0,0.0,0.0,0.0,0.0,0.0,0.0,0.0,0.0,0.0,0.0,0.0,0.0,0.0,0.0,0.0,0.0,0.1,0.2678,0.3099,0.2092,0.2146,0.2239,0.247,0.0,0.0,0.0,0.0,0.0,0.0,0.0,0.0,0.0,0.0,0.0,0.0,0.0,0.0,0.0,0.0,0.0,0.0,0.0,0.0,0.0,0.0,0.0,0.0,0.0,0.0,0.0,0.0,0.0,0.0,0.0,0.0,0.0,0.0,0.0,0.0,0.0,0.0,0.0,0.0,0.0,0.0,0.0,0.0,0.0,0.0,0.0,0.0,0.0,0.0,0.0,0.0,0.0,0.0,0.0,0.0,0.0,0.0,0.0,0.0,0.0,0.0,0.0,0.0,0.0,0.0,0.0,0.0,0.0,0.0,0.0,0.0,0.0,0.0,0.0,0.0,0.0,0.0,0.0,0.0,0.0,0.0,0.0,0.0,0.0,0.0,0.0,0.0,0.0,0.0,0.0,0.0,0.0,0.0,0.0,0.0,0.0,0.0,0.0,0.0,0.0,0.0,0.0,0.0,0.0,0.0,0.0,0.0,0.1398,0.2854,0.3241,0.251,0.3186,0.2923,0.0,0.0,0.0,0.0,0.0,0.0,0.0,0.0,0.0,0.0,0.0,0.0,0.0,0.0,0.0,0.0,0.0,0.0,0.0,0.0,0.0,0.0,0.0,0.0,0.0,0.0,0.0,0.0,0.0,0.0,0.0,0.0,0.0,0.0,0.0,0.0,0.0,0.0,0.0,0.0,0.0,0.0,0.0,0.0,0.0,0.0,0.0,0.0,0.0,0.0,0.0,0.0,0.0,0.0,0.0,0.0,0.0,0.0,0.0,0.0,0.0,0.0,0.0,0.0,0.0,0.0,0.0,0.0,0.0,0.0,0.0,0.0,0.0,0.0,0.0,0.0,0.0,0.0,0.0,0.0,0.0,0.0,0.0,0.0,0.0,0.0,0.0,0.0,0.0,0.0,0.0,0.0,0.0,0.0,0.0,0.0,0.0,0.0,0.0,0.0,0.0,0.0,0.0,0.0,0.0,0.0,0.0,0.0,0.0,0.2965,0.3416,0.3246,0.2569,0.3246,0.34,0.0,0.0,0.0,0.0,0.0,0.0,0.0,0.0,0.0,0.0,0.0,0.0,0.0,0.0,0.0,0.0,0.0,0.0,0.0,0.0,0.0,0.0,0.0,0.0,0.0,0.0,0.0,0.0,0.0,0.0,0.0,0.0,0.0,0.0,0.0,0.0,0.0,0.0,0.0,0.0,0.0,0.0,0.0,0.0,0.0,0.0,0.0,0.0,0.0,0.0,0.0,0.0,0.0,0.0,0.0,0.0,0.0,0.0,0.0,0.0,0.0,0.0,0.0,0.0,0.0,0.0,0.0,0.0,0.0,0.0,0.0,0.0,0.0,0.0,0.0,0.0,0.0,0.0,0.0,0.0,0.0,0.0,0.0,0.0,0.0,0.0,0.0,0.0,0.0,0.0,0.0,0.0,0.0,0.0,0.0,0.0,0.0,0.0,0.0,0.0,0.0,0.0,0.0,0.0,0.0,0.0,0.0,0.0,0.3188,0.3585,0.3585,0.3416,0.2963,0.336,0.3585,0.0,0.0,0.0,0.0,0.0,0.0,0.0,0.0,0.0,0.0,0.0,0.0,0.0,0.0,0.0,0.0,0.0,0.0,0.0,0.0,0.0,0.0,0.0,0.0,0.0,0.0,0.0,0.0,0.0,0.0,0.0,0.0,0.0,0.0,0.0,0.0,0.0,0.0,0.0,0.0,0.0,0.0,0.0,0.0,0.0,0.0,0.0,0.0,0.0,0.0,0.0,0.0,0.0,0.0,0.0,0.0,0.0,0.0,0.0,0.0,0.0,0.0,0.0,0.0,0.0,0.0,0.0,0.0,0.0,0.0,0.0,0.0,0.0,0.0,0.0,0.0,0.0,0.0,0.0,0.0,0.0,0.0,0.0,0.0,0.0,0.0,0.0,0.0,0.0,0.0,0.0,0.0,0.0,0.0,0.0,0.0,0.0,0.0,0.0,0.0,0.0,0.0,0.0,0.0,0.0,0.0,0.0,0.0,0.3607,0.3621,0.3621,0.3621,0.3618,0.3596,0.3585,0.0,0.0,0.0,0.0,0.0,0.0,0.0,0.0,0.0,0.0,0.0,0.0,0.0,0.0,0.0,0.0,0.0,0.0,0.0,0.0,0.0,0.0,0.0,0.0,0.0,0.0,0.0,0.0,0.0,0.0,0.0,0.0,0.0,0.0,0.0,0.0,0.0,0.0,0.0,0.0,0.0,0.0,0.0,0.0,0.0,0.0,0.0,0.0,0.0,0.0,0.0,0.0,0.0,0.0,0.0,0.0,0.0,0.0,0.0,0.0,0.0,0.0,0.0,0.0,0.0,0.0,0.0,0.0,0.0,0.0,0.0,0.0,0.0,0.0,0.0,0.0,0.0,0.0,0.0,0.0,0.0,0.0,0.0,0.0,0.0,0.0,0.0,0.0,0.0,0.0,0.0,0.0,0.0,0.0,0.0,0.0,0.0,0.0,0.0,0.0,0.0,0.0,0.0,0.0,0.0,0.0,0.0,0.0,0.3762,0.3857,0.386,0.386,0.3857,0.368,0.3585,0.0,0.0,0.0,0.0,0.0,0.0,0.0,0.0,0.0,0.0,0.0,0.0,0.0,0.0,0.0,0.0,0.0,0.0,0.0,0.0,0.0,0.0,0.0,0.0,0.0,0.0,0.0,0.0,0.0,0.0,0.0,0.0,0.0,0.0,0.0,0.0,0.0,0.0,0.0,0.0,0.0,0.0,0.0,0.0,0.0,0.0,0.0,0.0,-0.1411,0.0,0.0,0.0,0.0,0.0,0.0,0.0,0.0,0.0,0.0,0.0,0.0,0.0,0.0,0.0,0.0,0.0,0.0,0.0,0.0,0.0,0.0,0.0,0.0,0.0,0.0,0.0,0.0,0.0,0.0,0.0,0.0,0.0,0.0,0.0,0.0,0.0,0.0,0.0,0.0,0.0,0.0,0.0,0.0,0.0,0.0,0.0,0.0,0.0,0.0,0.0,0.0,0.0,0.0,0.0,0.0,0.0,0.0,0.0,0.3868,0.3931,0.3933,0.3933,0.3928,0.3876,0.3807,0.0,0.0,0.0,0.0,0.0,0.0,0.0,0.0,0.0,0.0,0.0,0.0,0.0,0.0,0.0,0.0,0.0,0.0,0.0,0.0,0.0,0.0,0.0,0.0,0.0,0.0,0.0,0.0,0.0,0.0,0.0,0.0,0.0,0.0,0.0,0.0,0.0,0.0,0.0,0.0,0.0,0.0,0.0,0.0,0.0,0.0,0.0,0.0,0.0,0.0,0.0,0.0,0.0,0.0,0.0,0.0,0.0,0.0,0.0,0.0,0.0,0.0,0.0,0.0,0.0,0.0,0.0,0.0,0.0,0.0,0.0,0.0,0.0,0.0,0.0,0.0,0.0,0.0,0.0,0.0,0.0,0.0,0.0,0.0,0.0,0.0,0.0,0.0,0.0,0.0,0.0,0.0,0.0,0.0,0.0,0.0,0.0,0.0,0.0,0.0,0.0,0.0,0.0,0.0,0.0,0.0,0.0,0.403,0.3971,0.3928,0.399,0.3928,0.3928,0.412,0.412,0.0,0.0,0.0,0.0,0.0,0.0,0.0,0.0,0.0,0.0,0.0,0.0,0.0,0.0,0.0,0.0,0.0,0.0,0.0,0.0,0.0,0.0,0.0,0.0,0.0,0.0,0.0,0.0,0.0,0.0,0.0,0.0,0.0,0.0,0.0,0.0,0.0,0.0,0.0,-0.3342,-0.2902,0.0,0.0,0.0,0.0,0.0,0.0,0.0,0.0,-0.1076,0.0,0.0,0.0,0.0,0.0,0.0,0.0,0.0,0.0,0.0,0.0,0.0,0.0,0.0,0.0,0.0,0.0,0.0,0.0,0.0,0.0,0.0,0.0,0.0,0.0,0.0,0.0,0.0,0.0,0.0,0.0,0.0,0.0,0.0,0.0,0.0,0.0,0.0,0.0,0.0,0.0,0.0,0.0,0.0,0.0,0.0,0.0,0.0,0.0,0.0,0.0,0.0,0.0,0.0,0.0,0.0,0.4088,0.4154,0.4268,0.4238,0.4238,0.424,0.424,0.424,0.424,0.4232,0.0,0.0,0.0,0.0,0.0,0.0,0.0,0.0,0.0,0.0,0.0,0.0,0.0,0.0,0.0,0.0,0.0,0.0,0.0,0.0,0.0,0.0,0.0,0.0,0.0,0.0,0.0,0.0,0.0,0.0,0.0,0.0,0.0,0.0,0.0,0.0,0.0,0.0,0.0,-0.2071,-0.21,0.0,0.0,0.0,0.0,0.0,0.0,0.0,0.0,-0.1074,0.0,0.0,0.0,0.0,0.0,0.0,0.0,0.0,0.0,0.0,0.0,0.0,0.0,0.0,0.0,0.0,0.0,0.0,0.0,0.0,0.0,0.0,0.0,0.0,0.0,0.0,0.0,0.0,0.0,0.0,0.0,0.0,0.0,0.0,0.0,0.0,0.0,0.0,0.0,0.0,0.0,0.0,0.0,0.0,0.0,0.0,0.0,0.0,0.0,0.0,0.0,0.0,0.0,0.0,0.0,0.4205,0.4279,0.4309,0.4298,0.4625,0.4891,0.4957,0.5418,0.5418,0.0,0.0,0.0,0.0,0.0,0.0,0.0,0.0,0.0,0.0,0.0,0.0,0.0,0.0,0.0,0.0,0.0,0.0,0.0,0.0,0.0,0.0,0.0,0.0,0.0,0.0,0.0,0.0,0.0,0.0,0.0,0.0,0.0,0.0,0.0,0.0,0.0,0.0,0.0,0.0,-0.1893,-0.1659,-0.2228,0.0,0.0,0.0,0.0,0.0,0.0,-0.1076,-0.1076,0.0,0.0,0.0,0.0,0.0,0.0,0.0,0.0,0.0,0.0,0.0,0.0,0.0,0.0,0.0,0.0,0.0,0.0,0.0,0.0,0.0,0.0,0.0,0.0,0.0,0.0,0.0,0.0,0.0,0.0,0.0,0.0,0.0,0.0,0.0,0.0,0.0,0.0,0.0,0.0,0.0,0.0,0.0,0.0,0.0,0.0,0.0,0.0,0.0,0.0,0.0,0.0,0.0,0.0,0.0,0.4298,0.4364,0.4367,0.4367,0.5017,0.5474,0.5679,0.6465,0.6531,0.0,0.0,0.0,0.0,0.0,0.0,0.0,0.0,0.0,0.0,0.0,0.0,0.0,0.0,0.0,0.0,0.0,0.0,0.0,0.0,0.0,0.0,0.0,0.0,0.0,0.0,0.0,0.0,0.0,0.0,0.0,0.0,0.0,0.0,0.0,0.0,0.0,0.0,0.0,0.0,0.0,-0.1313,-0.2076,-0.1548,0.0,0.0,0.0,0.0,-0.1076,-0.1076,0.0,0.0,0.0,0.0,0.0,0.0,0.0,0.0,0.0,0.0,0.0,0.0,0.0,0.0,0.0,0.0,0.0,0.0,0.0,0.0,0.0,0.0,0.0,0.0,0.0,0.0,0.0,0.0,0.0,0.0,0.0,0.0,0.0,0.0,0.0,0.0,0.0,0.0,0.0,0.0,0.0,0.0,0.0,0.0,0.0,0.0,0.0,0.0,0.0,0.0,0.0,0.0,0.0,0.0,0.0,0.0,0.43,0.4498,0.4628,0.4625,0.5411,0.5873,0.5873,0.6531,0.6597,0.0,0.0,0.0,0.0,0.0,0.0,0.0,0.0,0.0,0.0,0.0,0.0,0.0,0.0,0.0,0.0,0.0,0.0,0.0,0.0,0.0,0.0,0.0,0.0,0.0,0.0,0.0,0.0,0.0,0.0,0.0,0.0,0.0,0.0,0.0,0.0,0.0,0.0,0.0,0.0,0.0,-0.114,-0.128,-0.1145,-0.1144,0.0,0.0,0.0,-0.1076,-0.1076,0.0,0.0,0.0,0.0,0.0,0.0,0.0,0.0,0.0,0.0,0.0,0.0,0.0,0.0,0.0,0.0,0.0,0.0,0.0,0.0,0.0,0.0,0.0,0.0,0.0,0.0,0.0,0.0,0.0,0.0,0.0,0.0,0.0,0.0,0.0,0.0,0.0,0.0,0.0,0.0,0.0,0.0,0.0,0.0,0.0,0.0,0.0,0.0,0.0,0.0,0.0,0.0,0.0,0.0,0.0,0.4361,0.4495,0.5087,0.5418,0.5348,0.6457,0.7111,0.7251,0.7902,0.7767,0.0,0.0,0.0,0.0,0.0,0.0,0.0,0.0,0.0,0.0,0.0,0.0,0.0,0.0,0.0,0.0,0.0,0.0,0.0,0.0,0.0,0.0,0.0,0.0,0.0,0.0,0.0,0.0,0.0,0.0,0.0,0.0,0.0,0.0,0.0,0.0,0.0,0.0,0.0,0.0,0.0,0.0,-0.0202,-0.0471,0.0,0.0,0.0,-0.0202,0.0201,0.0,0.0,0.0,0.0,0.0,0.0,0.0,0.0,0.0,0.0,0.0,0.0,0.0,0.0,0.0,0.0,0.0,0.0,0.0,0.0,0.0,0.0,0.0,0.0,0.0,0.0,0.0,0.0,0.0,0.0,0.0,0.0,0.0,0.0,0.0,0.0,0.0,0.0,0.0,0.0,0.0,0.0,0.0,0.0,0.0,0.0,0.0,0.0,0.0,0.0,0.0,0.0,0.0,0.0,0.0,0.0,0.0,0.4954,0.5873,0.6203,0.6001,0.7181,0.7902,0.8037,0.8689,0.0,0.0,0.0,0.0,0.0,0.0,0.0,0.0,0.0,0.0,0.0,0.0,0.0,0.0,0.0,0.0,0.0,0.0,0.0,0.0,0.0,0.0,0.0,0.0,0.0,0.0,0.0,0.0,0.0,0.0,0.0,0.0,0.0,0.0,0.0,0.0,0.0,0.0,0.0,0.0,0.0,0.0,-0.0404,0.0672,0.0336,0.0607,0.0,0.0,0.0748,0.1231,0.0891,0.0412,0.0,0.0,0.0,0.0,0.0,0.0,0.0,0.0,0.0,0.0,0.0,0.0,0.0,0.0,0.0,0.0,0.0,0.0,0.0,0.0,0.0,0.0,0.0,0.0,0.0,0.0,0.0,0.0,0.0,0.0,0.0,0.0,0.0,0.0,0.0,0.0,0.0,0.0,0.0,0.0,0.0,0.0,0.0,0.0,0.0,0.0,0.0,0.0,0.0,0.0,0.0,0.0,0.0,0.0,0.0,0.5804,0.6793,0.6929,0.6141,0.6994,0.7447,0.7451,0.8166,0.8231,0.0,0.0,0.0,0.0,0.0,0.0,0.0,0.0,0.0,0.0,0.0,0.0,0.0,0.0,0.0,0.0,0.0,0.0,0.0,0.0,0.0,0.0,0.0,0.0,0.0,0.0,0.0,0.0,0.0,0.0,0.0,0.0,0.0,0.0,0.0,0.0,0.0,0.0,0.0,0.0,0.0,0.0403,0.1005,0.1274,0.1624,0.0,0.0,0.1405,0.1297,0.0652,0.0145,0.0072,0.0,0.0,0.0,0.0,0.0,0.0,0.0,0.0,0.0,0.0,0.0,0.0,0.0,0.0,0.0,0.0,0.0,0.0,0.0,0.0,0.0,0.0,0.0,0.0,0.0,0.0,0.0,0.0,0.0,0.0,0.0,0.0,0.0,0.0,0.0,0.0,0.0,0.0,0.0,0.0,0.0,0.0,0.0,0.0,0.0,0.0,0.0,0.0,0.0,0.0,0.0,0.0,0.0,0.4885,0.5219,0.6408,0.6802,0.6334,0.7442,0.8102,0.8096,0.8759,0.8818,0.0,0.0,0.0,0.0,0.0,0.0,0.0,0.0,0.0,0.0,0.0,0.0,0.0,0.0,0.0,0.0,0.0,0.0,0.0,0.0,0.0,0.0,0.0,0.0,0.0,0.0,0.0,0.0,-0.1054,-0.1128,-0.106,0.0,0.0,0.0,0.0,0.0,0.0,0.0,0.0,0.0,0.0,0.1516,0.1997,0.2304,0.0,0.0,0.2938,0.2446,0.2976,0.1892,0.0801,0.0218,-0.0591,0.0,0.0,0.0,0.0,0.0,0.0,0.0,0.0,0.0,0.0,0.0,0.0,0.0,0.0,0.0,0.0,0.0,0.0,0.0,0.0,0.0,0.0,0.0,0.0,0.0,0.0,0.0,0.0,0.0,0.0,0.0,0.0,0.0,0.0,0.0,0.0,0.0,0.0,0.0,0.0,0.0,0.0,0.0,0.0,0.0,0.0,0.0,0.0,0.0,0.0,0.0,0.0,0.504,0.5356,0.6685,0.7242,0.6899,0.8097,0.8705,0.8771,0.9179,0.9179,0.0,0.0,0.0,0.0,0.0,0.0,0.0,0.0,0.0,0.0,0.0,0.0,0.0,0.0,0.0,0.0,0.0,0.0,0.0,0.0,0.0,0.0,0.0,0.0,0.0,0.0,0.0,0.0,-0.1011,-0.1078,-0.1076,0.0,0.0,0.0,0.0,0.0,0.0,0.0,0.0,0.0,0.0,0.1772,0.3117,0.3096,0.3212,0.404,0.3163,0.2508,0.3196,0.231,0.1342,0.0745,0.0,0.0,0.0,0.0,0.0,0.0,0.0,0.0,0.0,0.0,0.0,0.0,0.0,0.0,0.0,0.0,0.0,0.0,0.0,0.0,0.0,0.0,0.0,0.0,0.0,0.0,0.0,0.0,0.0,0.0,0.0,0.0,0.0,0.0,0.0,0.0,0.0,0.0,0.0,0.0,0.0,0.0,0.0,0.0,0.0,0.0,0.0,0.0,0.0,0.0,0.0,0.0,0.0,0.0,0.6527,0.7875,0.8455,0.8047,0.884,0.9254,0.9254,0.9335,0.9335,0.9254,0.0,0.0,0.0,0.0,0.0,0.0,0.0,0.0,0.0,0.0,0.0,0.0,0.0,0.0,0.0,0.0,0.0,0.0,0.0,0.0,0.0,0.0,0.0,0.0,0.0,0.0,-0.0607,-0.0875,-0.1076,0.0,0.0,0.0,0.0,0.0,0.0,0.0,0.0,0.0,0.0,-0.0501,0.0873,0.4225,0.357,0.2868,0.3081,0.2188,0.1446,0.148,0.1485,0.1565,0.0,0.0,0.0,0.0,0.0,0.0,0.0,0.0,0.0,0.0,0.0,0.0,0.0,0.0,0.0,0.0,0.0,0.0,0.0,0.0,0.0,0.0,0.0,0.0,0.0,0.0,0.0,0.0,0.6135,0.0,0.0,0.0,0.0,0.0,0.0,0.0,0.0,0.0,0.0,0.0,0.7283,0.7797,0.0,0.0,0.0,0.0,0.0,0.0,0.0,0.0,0.0,0.0,0.0,0.0,0.6293,0.6776,0.7818,0.8269,0.8207,0.8925,0.9281,0.9281,0.977,0.9979,0.9979,0.0,0.0,0.0,0.0,0.0,0.0,0.0,0.0,0.0,0.0,0.0,0.0,0.0,0.0,0.0,0.0,0.0,0.0,0.0,0.0,0.0,0.0,0.0,0.0,0.0,-0.054,0.0,0.0,0.0,0.0,0.0,0.0,0.0,0.0,0.0,0.0,0.0,0.0574,0.0718,0.2129,0.3585,0.4787,0.4545,0.422,0.0,0.0,0.0,0.0,0.0,0.0,0.0,0.0,0.0,0.0,0.0,0.0,0.0,0.0,-0.1227,-0.1227,-0.1303,-0.123,-0.124,0.0,0.0,0.0,0.0,0.0,0.0,0.0,0.0,0.0,0.0,0.0,0.0,0.0,0.0,0.0,0.0,0.6883,0.0,0.0,0.0,0.0,0.0,0.0,0.0,0.0,0.7691,0.8021,0.8172,0.8624,0.856,0.0,0.7917,0.7683,0.0,0.0,0.0,0.0,0.0,0.0,0.0,0.0,0.6897,0.6961,0.8107,0.8714,0.8789,0.9515,0.9956,0.9956,1.0385,1.0604,1.0598,1.017,1.0301,0.0,0.0,0.0,0.0,0.0,0.0,0.0,0.0,0.0,0.0,0.0,0.0,0.0,0.0,0.0,0.0,0.0,0.0,0.0,0.0,0.0,0.0,0.0,-0.0068,0.0,0.0,0.0,0.0,0.0,0.0,0.0,0.0,0.0,0.1709,0.1814,0.2063,0.2508,0.4004,0.4994,0.4991,0.0,0.0,0.0,0.0,0.0,0.0,0.0,0.1879,0.2738,0.1802,0.1019,0.1333,-0.0078,-0.1336,-0.1336,0.0,0.0,-0.1336,-0.1336,-0.1336,-0.1336,-0.1241,-0.1234,-0.1332,-0.1242,-0.1233,0.0,0.0,0.0,0.0,0.0,0.0,0.0,0.0,0.7607,0.7617,0.0,0.7579,0.0,0.0,0.0,0.0,0.0,0.0,0.0,0.0,0.9145,0.9478,0.9478,0.9496,0.9496,0.9508,0.9014,0.8789,0.8907,0.7966,0.0,0.0,0.0,0.0,0.0,0.0,0.7182,0.7356,0.8905,0.9827,0.9976,1.0657,1.1105,1.1105,1.1105,1.1099,1.1105,1.1099,1.1101,1.1076,0.9453,0.0,0.0,0.0,0.0,0.0,0.0,0.0,0.0,0.0,0.0,0.0,0.0,0.0,0.0,0.0,0.0,0.0,0.0,0.0,0.0,0.1821,0.0,0.0,0.0,0.0,0.0,0.0,0.0,0.0,0.0,0.0,0.3004,0.3055,0.3557,0.4787,0.0,0.0,0.0,0.0,0.4638,0.3675,0.2657,0.2033,0.2033,0.2503,0.2896,0.2896,0.0,0.0,0.2668,0.0392,-0.1258,-0.1258,-0.1258,-0.1258,-0.1258,-0.1336,-0.1336,-0.1336,-0.1335,-0.1335,-0.1336,-0.1334,-0.1256,1.0047,0.0,0.0,0.0,0.0,0.8851,0.8901,0.9198,0.9198,0.9309,0.9488,0.8982,0.0,0.0,0.0,0.0,0.0,0.0,0.7906,0.849,0.8683,0.9017,0.949,0.9676,0.976,0.9772,0.982,0.9931,1.0063,0.965,0.8541,0.6855,0.0,0.0,0.0,0.0,0.9075,0.9205,1.0181,1.0736,1.0738,1.0962,1.1117,1.1117,1.1117,1.1117,1.1117,1.1117,1.1087,1.1113,1.0049,0.0,0.0,0.0,0.0,0.0,0.0,0.0,0.0,0.0,0.0,0.0,0.0,0.0,0.0,0.0,0.0,0.0,0.0,0.0,0.4425,0.3996,0.3212,0.0,0.0,0.0,0.0,0.0,0.0,0.0,0.0,0.0,0.3302,0.3938,0.4578,0.0,0.0,0.4706,0.3915,0.4467,0.4865,0.4621,0.0,0.0,0.0,0.3444,0.2818,0.266,0.3925,0.4088,0.1177,0.0157,-0.0471,-0.0786,-0.0864,-0.1022,-0.1258,-0.1336,-0.1337,-0.1336,-0.1336,-0.1336,-0.1336,-0.1336,-0.1336,1.1181,1.0834,1.0299,1.0013,0.9786,0.9719,0.9884,1.0177,1.0177,1.0269,1.0364,0.9977,0.9588,0.9064,0.8091,0.0,0.0,0.0,0.8468,0.9165,0.9159,0.9419,0.9802,1.0086,1.0159,1.0036,1.0078,1.0266,1.0624,1.0307,0.948,0.8166,0.0,0.0,0.7838,0.9165,0.9841,0.976,1.0663,1.1117,1.1117,1.1117,1.1117,1.1117,1.1117,1.1117,1.1117,1.1117,1.1117,1.1111,1.0363,0.9852,0.0,0.0,0.0,0.0,0.0,0.0,0.0,0.0,0.0,0.0,0.0,0.4511,0.0,0.0,0.0,0.0,0.3911,0.3797,0.4589,0.4887,0.0,0.0,0.0,0.0,0.0,0.0,0.0,0.3739,0.3872,0.4068,0.4073,0.4626,0.5018,0.5018,0.4621,0.4226,0.399,0.0,0.5023,0.5018,0.5059,0.5089,0.501,0.3762,0.2496,0.1611,0.2341,0.2423,0.0,0.0,0.0,-0.0727,-0.0808,-0.0889,-0.1212,-0.1293,-0.1284,-0.1341,-0.1336,-0.1336,-0.1336,-0.1336,-0.1339,1.2457,1.1493,1.0615,1.0347,1.0561,1.0371,1.0428,1.0618,1.0555,1.0618,1.0618,1.0618,1.0174,0.9338,0.8376,0.0,0.0,0.8981,0.939,1.0238,1.0238,1.0301,1.0327,1.0553,1.0571,1.0363,1.0039,1.0231,1.0761,1.0256,1.0067,1.0062,0.9832,0.939,0.8841,0.9614,0.9836,0.9669,1.0576,1.1117,1.1117,1.1117,1.1117,1.1117,1.1117,1.1117,1.1117,1.1117,1.1117,1.1111,1.0363,0.9997,0.9997,0.0,0.0,0.0,0.0,0.0,0.0,0.0,0.0,0.0,0.0,0.0,0.0,0.0,0.0,0.0,0.4837,0.0,0.4756,0.4913,0.0,0.0,0.0,0.4363,0.2888,0.407,0.5021,0.5029,0.0,0.0,0.0,0.0,0.5021,0.5029,0.4073,0.3834,0.4873,0.4964,0.4964,0.4739,0.5066,0.5216,0.4973,0.3471,0.1756,0.0,0.0,0.0,0.0,0.0,0.0,-0.1008,-0.101,-0.0841,-0.1263,-0.126,-0.1247,-0.1277,-0.1346,-0.1346,-0.1348,-0.1349,-0.1278,1.3065,1.2336,1.2071,1.1479,1.0624,1.0561,1.0561,1.0618,1.0618,1.0618,1.0618,1.0618,1.0371,1.006,1.0198,1.0161,1.0168,1.044,1.0647,1.071,1.0716,1.0754,1.0754,1.1026,1.1127,1.1075,1.1034,1.1236,1.1685,1.123,1.118,1.1477,1.1267,1.0673,0.9685,1.0443,1.0812,1.0726,1.0956,1.1117,1.1117,1.1117,1.1117,1.1117,1.1117,1.1117,1.1117,1.1117,1.1117,1.1111,1.0887,1.0812,1.0812,0.9453,0.0,0.0,0.0,0.0,0.0,0.0,0.0,0.0,0.0,0.4948,0.4729,0.0,0.4692,0.0,0.4879,0.501,0.4931,0.5007,0.0,0.0,0.4977,0.483,0.4465,0.4779,0.5018,0.5021,0.5018,0.5018,0.5018,0.5018,0.5048,0.5132,0.4831,0.4656,0.4986,0.5007,0.4546,0.3537,0.4318,0.5015,0.4856,0.2514,0.0,0.0,0.0,0.0,0.0,0.0,0.0,-0.0337,-0.0842,-0.118,-0.135,-0.1095,-0.0924,-0.1247,-0.1326,-0.1326,-0.1326,-0.1326,-0.1328,1.3569,1.3101,1.3101,1.2491,1.1465,1.1138,1.0875,1.0755,1.0755,1.0681,1.0638,1.0766,1.0757,1.0824,1.0982,1.1055,1.0933,1.109,1.1227,1.1204,1.1204,1.1198,1.1255,1.148,1.155,1.1484,1.163,1.1706,1.1855,1.1632,1.1632,1.1855,1.1781,1.1335,1.0588,1.1037,1.1192,1.1111,1.1117,1.1117,1.1117,1.1117,1.1117,1.1117,1.1117,1.1117,1.1117,1.1117,1.1117,1.1111,1.0738,1.0738,1.1037,0.9911,0.9236,0.0,0.0,0.0,0.0,0.0,0.0,0.0,0.0,0.0,0.0,0.0,0.4914,0.0,0.498,0.0,0.5018,0.5018,0.5018,0.5018,0.5018,0.5018,0.5018,0.5018,0.5018,0.5018,0.5018,0.5018,0.5018,0.5061,0.5116,0.5178,0.5178,0.5197,0.5099,0.4784,0.4225,0.3849,0.4664,0.5328,0.5297,0.2341,0.0,0.0,0.0,0.0,0.0,0.0,0.0,0.0,-0.0433,-0.0953,-0.13,-0.104,-0.078,-0.0953,-0.1127,-0.1205,-0.1354,-0.1348,-0.135,1.4315,1.3972,1.3963,1.3569,1.2833,1.215,1.1553,1.1049,1.1049,1.0909,1.0681,1.0935,1.1182,1.1354,1.1332,1.1352,1.1483,1.1385,1.1473,1.1709,1.1703,1.1695,1.1781,1.1929,1.1935,1.1781,1.1929,1.1935,1.1781,1.1787,1.1787,1.1787,1.1781,1.1706,1.1484,1.149,1.1409,1.1186,1.1186,1.1111,1.1111,1.1111,1.1111,1.1117,1.1111,1.1111,1.1117,1.1117,1.1117,1.1111,1.0443,1.0363,1.1037,1.0368,0.9922,0.0,0.9523,0.0,0.0,0.0,0.0,0.0,0.0,0.0,0.0,0.5323,0.5243,0.5018,0.5018,0.5018,0.5018,0.5018,0.5018,0.5018,0.5018,0.5018,0.5018,0.5018,0.5018,0.5018,0.5018,0.5021,0.5045,0.5127,0.5189,0.5246,0.5328,0.5393,0.5331,0.4561,0.4305,0.5325,0.5173,0.4395,0.4285,0.2062,0.0,0.0,0.0,0.0,0.0,0.0,0.0,0.0,0.0,0.0,-0.1077,-0.0896,-0.0627,-0.0716,-0.0896,-0.1155,-0.1378,-0.1365,-0.1367,1.6035,1.5409,1.5409,1.4981,1.4198,1.4049,1.2943,1.1349,1.1343,1.1309,1.1269,1.1316,1.1376,1.1443,1.1683,1.1784,1.1797,1.2031,1.2091,1.2145,1.2145,1.2171,1.215,1.2224,1.2231,1.2157,1.2077,1.2077,1.2231,1.2003,1.2003,1.2157,1.215,1.2083,1.1855,0.0,0.0,0.0,1.1416,1.1335,1.1335,1.1335,1.126,1.1111,1.126,0.0,1.1111,1.1117,1.1117,1.1117,1.0968,0.0,0.0,0.0,0.0,0.0,0.0,0.0,0.0,0.0,0.0,0.0,0.577,0.5712,0.5556,0.5401,0.5246,0.5015,0.5018,0.5018,0.5018,0.5018,0.5018,0.5018,0.5018,0.5018,0.5018,0.5018,0.5018,0.5018,0.5018,0.5053,0.5143,0.5175,0.5262,0.5436,0.5502,0.5556,0.5646,0.5236,0.5226,0.5398,0.3462,0.1338,0.1076,0.0,0.0,0.0,0.0,0.0,0.0,0.0,0.0,0.0,0.0,-0.0,-0.018,-0.018,-0.027,-0.0629,-0.1001,-0.1369,-0.1427,-0.1419,-0.1421,1.6691,0.0,1.6333,1.5903,0.0,1.518,1.4332,1.2958,1.2388,1.1985,1.1643,1.1643,1.1717,1.187,1.2017,1.2078,1.2091,1.2238,1.2305,1.2305,1.2305,1.2305,1.2305,1.2305,1.2305,1.2305,1.2231,1.2231,1.2305,1.2231,1.2231,1.2305,1.2305,1.2231,1.2009,1.1922,1.1861,1.1981,1.1726,1.1558,1.1558,1.1558,1.1484,1.1409,0.0,0.0,0.0,0.0,0.0,0.0,0.0,0.0,0.0,0.0,0.0,1.0443,0.9841,0.9003,0.8008,0.7472,0.6938,0.6177,0.6099,0.5944,0.5637,0.5323,0.509,0.5018,0.5018,0.5018,0.5018,0.5018,0.5018,0.5018,0.5018,0.5018,0.5018,0.5018,0.504,0.5091,0.5102,0.5146,0.5262,0.5333,0.5409,0.5532,0.5518,0.5659,0.5625,0.5601,0.5598,0.5654,0.4306,0.215,0.0,0.0,0.0,0.0,0.0,0.0,0.0,0.0,0.0,0.0,0.0,0.0,0.2587,0.1573,0.0278,0.1202,0.1211,0.0561,0.0,-0.0832,-0.1109,1.6908,1.6908,1.6908,1.6542,1.5982,1.5982,1.5551,1.472,0.0,0.0,0.0,1.2158,1.2222,1.2305,1.2305,1.2305,1.2305,1.2305,1.2305,1.2305,1.2305,1.2305,1.2305,1.2305,1.2305,1.2305,1.2305,1.2305,1.2305,1.2305,1.2305,1.2305,1.2305,1.2224,1.2077,1.2077,1.217,1.2277,1.1948,1.1781,1.1781,1.1781,1.1706,1.1706,1.1706,1.1552,1.1236,1.1329,1.126,1.1111,1.0443,1.0363,1.1037,1.0443,1.0368,1.1037,1.0962,1.0288,0.9003,0.8623,0.7863,0.6416,0.6257,0.6103,0.5715,0.5326,0.5171,0.5093,0.5015,0.5015,0.5093,0.5015,0.5015,0.5015,0.5018,0.5018,0.5021,0.5037,0.5089,0.517,0.5203,0.5265,0.5385,0.548,0.5475,0.5505,0.5667,0.5733,0.5733,0.573,0.573,0.5654,0.5295,0.4393,0.0,0.0,0.0448,0.0,0.0,0.0,0.0,0.0634,0.1097,0.0,0.0,0.2059,0.4754,0.3328,0.1809,0.333,0.3726,0.3449,0.2297,0.048,-0.048,1.6908,1.6908,1.6908,1.6839,1.6769,1.676,1.6333,1.5613,1.4759,1.3966,1.3245,1.3252,1.291,1.2305,1.2305,1.2305,1.2305,1.2305,1.2305,0.0,1.2305,1.2305,1.2305,1.2305,1.2305,1.2305,1.2305,1.2305,1.2305,1.2305,1.2305,1.2305,1.2305,1.2305,1.2305,1.2231,1.2305,1.2311,1.2077,1.1929,1.1929,1.1929,1.1855,1.1706,1.1706,1.1645,1.1651,1.1341,1.1111,1.1117,1.0962,1.0962,1.1111,1.0962,1.0962,1.1037,1.0438,0.9992,0.969,0.8475,0.7253,0.6412,0.6099,0.5941,0.5864,0.5786,0.5712,0.5559,0.5243,0.5162,0.5482,0.5246,0.5087,0.5243,0.509,0.5018,0.5023,0.5099,0.5167,0.5203,0.5281,0.5388,0.5502,0.5459,0.5597,0.5678,0.5716,0.5733,0.5733,0.5733,0.5738,0.5746,0.5746,0.5476,0.4495,0.3406,0.2066,0.027,0.0,0.0,0.0,0.2704,0.4626,0.5329,0.3798,0.3229,0.3912,0.4862,0.4494,0.4017,0.4647,0.5484,0.5081,0.2764,0.0594,1.7254,1.7185,1.7263,1.7254,1.7263,1.7254,1.6908,1.6342,1.5683,1.4887,1.4106,1.368,1.3317,1.2952,1.2519,1.2305,1.2305,1.2305,1.2305,1.2305,1.2305,1.2305,1.2305,1.2305,1.2305,1.2305,1.2305,1.2305,1.2305,1.2305,1.2305,1.2305,1.2305,1.2305,1.2305,1.2305,1.2305,1.2305,1.2231,1.215,1.215,1.215,1.215,1.2009,1.1935,1.1787,1.1719,1.1409,1.1186,1.1117,1.1117,1.1117,1.1117,1.1117,1.1117,1.1111,1.0738,1.0363,0.9916,0.8399,0.733,0.6945,0.6412,0.6099,0.6099,0.587,0.5715,0.5637,0.5482,0.5404,0.5482,0.5323,0.5165,0.5168,0.5015,0.5042,0.5099,0.5151,0.5235,0.536,0.5431,0.5515,0.5547,0.5561,0.5665,0.5727,0.5733,0.5733,0.5735,0.5735,0.5735,0.5738,0.5738,0.5773,0.5822,0.5196,0.4211,0.3425,0.2425,0.1875,0.1784,0.37,0.4979,0.6107,0.5528,0.5059,0.4895,0.5709,0.5806,0.5501,0.5536,0.6082,0.4787,0.3313,0.1605,1.7461,1.7461,1.7461,1.7461,1.7461,1.7461,1.7185,1.6691,1.6184,1.5471,1.4601,1.3818,1.339,1.3171,1.2592,1.2305,1.2305,1.2305,1.2305,1.2305,1.2305,1.2305,1.2305,1.2305,1.2305,1.2305,1.2305,1.2305,1.2305,1.2305,1.2305,1.2305,1.2305,1.2305,1.2305,1.2305,1.2305,1.2305,1.2305,1.2305,1.2305,1.2305,1.2305,1.2305,1.2077,1.1929,1.17,1.1552,1.1409,1.126,1.1186,1.1186,1.1186,1.1105,1.1117,1.1117,1.1117,1.0738,0.9922,0.878,0.7863,0.7484,0.6949,0.649,0.6261,0.5951,0.5718,0.5792,0.5876,0.5796,0.5634,0.5479,0.5398,0.5249,0.5199,0.5249,0.5253,0.5314,0.5333,0.5521,0.5489,0.5542,0.5706,0.5733,0.5733,0.573,0.5733,0.5738,0.5763,0.5771,0.5776,0.5801,0.579,0.5817,0.6004,0.5945,0.5906,0.6121,0.4886,0.4023,0.3933,0.394,0.446,0.6113,0.6429,0.6251,0.6334,0.6353,0.6342,0.6216,0.6334,0.5746,0.3823,0.3527,0.2424,1.7539,1.7461,1.7529,1.7461,1.7461,1.7461,1.6978,1.6193,1.6044,1.5471,1.453,1.3825,1.3098,1.2445,1.2372,1.2305,1.2305,1.2305,1.2305,1.2305,1.2305,1.2305,1.2305,1.2305,1.2305,1.2305,1.2305,1.2305,1.2305,1.2305,1.2305,1.2305,1.2305,1.2305,1.2305,1.2305,1.2305,1.2305,1.2305,1.2305,1.2305,1.2305,1.2305,1.2305,1.2083,1.1922,1.1687,1.1694,1.1632,1.1632,1.1484,1.1335,1.1335,1.1186,1.1117,1.1117,1.1117,1.0743,0.9992,0.9771,0.9003,0.771,0.7407,0.7026,0.6416,0.6261,0.6261,0.618,0.6264,0.6183,0.6183,0.5941,0.5705,0.5715,0.5735,0.574,0.554,0.5716,0.5783,0.5542,0.5558,0.5719,0.573,0.5733,0.5733,0.5733,0.5749,0.5779,0.585,0.5885,0.5931,0.5996,0.5966,0.5923,0.607,0.6123,0.6108,0.6104,0.605,0.5769,0.5689,0.5847,0.6234,0.609,0.642,0.6423,0.6431,0.6442,0.6442,0.6442,0.6247,0.5754,0.3929,0.3828,0.3123,1.7813,1.7813,1.7813,1.7735,1.7657,1.7735,1.7382,1.6673,1.5877,1.518,1.4458,1.331,1.2879,1.2952,1.2519,1.2305,1.2305,1.2305,1.2305,1.2305,1.2305,1.2305,1.2305,1.2305,1.2305,1.2305,1.2305,1.2305,1.2305,1.2305,1.2305,1.2305,1.2305,1.2305,1.2305,1.2305,1.2305,1.2305,1.2305,1.2305,1.2305,1.2305,1.2305,1.2305,1.2083,1.2009,1.2009,1.1855,1.1713,1.1651,1.149,1.1335,1.126,1.1186,1.1117,1.1117,1.1117,1.0962,1.0663,1.0218,0.9614,0.8927,0.8016,0.7334,0.7022,0.6567,0.6261,0.6261,0.6261,0.6257,0.6099,0.5938,0.5786,0.5727,0.5674,0.5624,0.5627,0.5616,0.5659,0.5646,0.57,0.5733,0.5733,0.5733,0.5733,0.5746,0.5784,0.5852,0.5904,0.5961,0.6059,0.6154,0.6146,0.6132,0.6241,0.6266,0.6236,0.6317,0.6361,0.6377,0.6382,0.6407,0.6345,0.645,0.6442,0.6437,0.6437,0.6437,0.6437,0.6439,0.635,0.6057,0.5247,0.5349,0.4843,1.8008,1.8008,1.8008,1.793,1.7784,1.794,1.7588,1.6872,1.5737,1.4887,1.4171,1.3098,1.2813,1.3025,1.2519,1.2305,1.2305,1.2305,1.2305,1.2305,1.2305,1.2305,1.2305,1.2305,1.2305,1.2305,1.2305,1.2305,1.2305,1.2305,1.2305,1.2305,1.2305,1.2305,1.2305,1.2305,1.2305,1.2305,1.2305,1.2305,1.2305,1.2305,1.2305,1.2305,1.2157,1.2157,1.2251,1.2016,1.1861,1.1874,1.1639,1.1484,1.126,1.126,1.1186,1.1111,1.1117,1.1117,1.1117,1.0513,1.0148,0.9846,0.8775,0.7944,0.7484,0.6949,0.6567,0.6261,0.6261,0.6257,0.6022,0.6018,0.5957,0.5846,0.5811,0.5864,0.5913,0.5783,0.5807,0.5805,0.5727,0.5733,0.5733,0.5735,0.5741,0.5787,0.5852,0.5947,0.5996,0.6086,0.6179,0.6293,0.6314,0.6312,0.6317,0.6314,0.6361,0.6396,0.6429,0.6429,0.6437,0.6437,0.6437,0.6442,0.6439,0.6437,0.6437,0.6437,0.6437,0.6439,0.6448,0.6356,0.615,0.6361,0.6364,1.8008,1.8008,1.8008,1.7998,1.8008,1.8008,1.7373,1.6446,1.5587,1.4601,1.3818,1.3535,1.3098,1.2519,1.2512,1.2305,1.2305,1.2378,1.2305,1.2305,1.2305,1.2305,1.2305,1.2305,1.2305,1.2305,1.2305,1.2305,1.2305,1.2305,1.2305,1.2305,1.2305,1.2305,1.2305,1.2305,1.2305,1.2305,1.2305,1.2305,1.2305,1.2305,1.2305,1.2305,1.2305,1.2305,1.2305,1.2305,1.2231,1.2305,1.2077,1.1855,1.1713,1.1484,1.1335,1.1111,1.1117,1.1117,1.1117,1.1037,1.0663,1.0073,0.9765,0.916,0.7863,0.7484,0.7103,0.6412,0.6335,0.6257,0.6257,0.6257,0.6315,0.6358,0.6508,0.6572,0.6544,0.6322,0.6236,0.6083,0.5908,0.5822,0.5733,0.5733,0.5782,0.5852,0.5899,0.598,0.617,0.6244,0.6306,0.638,0.6418,0.6426,0.6426,0.6404,0.6415,0.6434,0.6437,0.6437,0.6437,0.6437,0.6437,0.6437,0.6437,0.6437,0.6437,0.6437,0.6437,0.6439,0.6439,0.6442,0.6445,0.6439,0.6442,1.8008,1.8008,1.8008,1.8008,1.8008,1.8008,1.7716,1.7148,1.6428,1.5799,1.5242,1.4816,1.445,1.4163,1.4163,1.3448,1.2452,1.2806,1.2806,1.2378,1.2305,1.2305,1.2305,1.2305,1.2305,1.2305,1.2305,1.2305,1.2305,1.2305,1.2305,1.2305,1.2305,1.2305,1.2305,1.2305,1.2305,1.2305,1.2305,1.2305,1.2305,1.2305,1.2305,1.2305,1.2305,1.2305,1.2305,1.2305,1.2311,1.2318,1.2083,1.1929,1.1706,1.1484,1.1335,1.126,1.1186,1.1117,1.1117,1.1117,1.0962,1.0663,1.0143,0.969,0.9008,0.8169,0.7411,0.7184,0.6648,0.6338,0.6261,0.6261,0.6397,0.6461,0.6617,0.6689,0.6563,0.6521,0.634,0.6254,0.6166,0.6169,0.608,0.5994,0.6045,0.6165,0.6065,0.6092,0.623,0.6325,0.6388,0.642,0.6437,0.6437,0.6437,0.6437,0.6437,0.6437,0.6437,0.6437,0.6437,0.6437,0.6437,0.6437,0.6437,0.6437,0.6437,0.6437,0.6437,0.6437,0.6437,0.6437,0.6437,0.6437,0.6437,1.8008,1.8008,1.8008,1.8008,1.8008,1.8008,1.7872,1.7638,1.6922,1.6507,1.6228,1.5737,1.5446,1.5305,1.5745,1.4958,1.3237,1.3455,1.3098,1.2378,1.2305,1.2305,1.2305,1.2305,1.2305,1.2305,1.2305,1.2305,1.2305,1.2305,1.2305,1.2305,1.2305,1.2305,1.2305,1.2305,1.2305,1.2305,1.2305,1.2305,1.2305,1.2305,1.2305,1.2305,1.2305,1.2305,1.2305,1.2305,1.2305,1.2244,1.2164,1.2003,1.1713,1.1484,1.1409,1.1254,1.1186,1.1117,1.1117,1.1117,1.1117,1.1111,1.0588,1.0218,0.9841,0.8623,0.7863,0.7326,0.6799,0.6349,0.6397,0.6332,0.639,0.6532,0.6774,0.6841,0.68,0.6643,0.6511,0.6428,0.6428,0.634,0.626,0.621,0.6204,0.6227,0.6164,0.6189,0.6306,0.638,0.6437,0.6437,0.6437,0.6437,0.6437,0.6437,0.6437,0.6437,0.6437,0.6437,0.6437,0.6437,0.6437,0.6437,0.6437,0.6437,0.6437,0.6437,0.6437,0.6437,0.6437,0.6437,0.6437,0.6437,0.6437,1.8008,1.8008,1.8008,1.8008,1.8008,1.8008,1.7862,1.7638,1.6991,1.6645,1.6515,1.6376,1.6088,1.5737,1.6742,1.6464,1.4966,1.4243,1.3455,1.2592,1.2519,1.2452,1.2445,1.2445,1.2378,1.2305,1.2305,1.2305,1.2305,1.2305,1.2305,1.2305,1.2305,1.2305,1.2305,1.2305,1.2305,1.2305,1.2305,1.2305,1.2305,1.2305,1.2305,1.2305,1.2305,1.2305,1.2305,1.2305,1.2305,1.2305,1.2305,1.2077,1.1781,1.1558,1.1335,1.1186,1.1111,1.1117,1.1111,1.1117,1.1117,1.1111,1.1037,1.0669,1.0067,0.9231,0.8152,0.7065,0.6556,0.6464,0.6586,0.6468,0.6451,0.6685,0.6827,0.6959,0.6997,0.6874,0.67,0.652,0.652,0.6343,0.6195,0.6271,0.6385,0.6236,0.6263,0.6285,0.6385,0.6426,0.6434,0.6437,0.6437,0.6437,0.6437,0.6437,0.6437,0.6437,0.6437,0.6437,0.6437,0.6437,0.6437,0.6437,0.6437,0.6437,0.6437,0.6437,0.6437,0.6437,0.6437,0.6437,0.6437,0.6437,0.6437,1.8008,1.8008,1.8008,1.8008,1.8008,1.8008,1.793,1.793,1.7647,1.751,1.7442,1.7442,1.7304,1.7226,1.7666,1.7226,1.6079,1.579,1.5013,1.4027,1.3882,1.3593,1.3244,1.3098,1.2806,1.2372,1.2305,1.2305,1.2305,1.2305,1.2305,1.2305,1.2305,1.2305,1.2305,1.2305,1.2305,1.2305,1.2305,1.2305,1.2305,1.2305,1.2305,1.2305,1.2305,1.2305,1.2305,1.2305,1.2305,1.2305,1.2305,1.2231,1.2077,1.1929,1.1781,1.1706,1.1403,1.1335,1.126,1.1186,1.1111,1.1117,1.1117,1.0962,1.0669,0.9986,0.9059,0.804,0.746,0.7083,0.6745,0.6559,0.6602,0.6841,0.6991,0.708,0.7109,0.7054,0.6966,0.6877,0.6874,0.6874,0.6815,0.6834,0.6707,0.6552,0.6582,0.6608,0.6404,0.6437,0.6437,0.6437,0.6437,0.6437,0.6437,0.6437,0.6437,0.6437,0.6437,0.6437,0.6437,0.6437,0.6437,0.6437,0.6437,0.6437,0.6437,0.6437,0.6437,0.6437,0.6437,0.6437,0.6437,0.6437,0.6437,1.8008,1.8008,1.8008,1.8008,1.8008,1.8008,1.8008,1.8008,1.8008,1.8008,1.8008,1.8008,1.8008,1.8008,1.8008,1.7647,1.706,1.7001,1.6507,1.5604,1.4895,1.4466,1.3962,1.3608,1.3317,1.2732,1.2445,1.2305,1.2305,1.2305,1.2305,1.2305,1.2305,1.2305,1.2305,1.2305,1.2305,1.2305,1.2305,1.2305,1.2305,1.2305,1.2305,1.2305,1.2305,1.2305,1.2305,1.2305,1.2305,1.2305,1.2305,1.2231,1.215,1.2083,1.2003,1.1855,1.1706,1.1484,1.1409,1.1254,1.1186,1.1111,1.1117,1.1117,1.0962,1.0368,0.9599,0.9069,0.815,0.7328,0.6844,0.6681,0.6756,0.699,0.701,0.7138,0.7126,0.7139,0.7139,0.7051,0.7051,0.7078,0.7062,0.7086,0.7044,0.6896,0.693,0.6833,0.662,0.6539,0.6539,0.6439,0.6437,0.6437,0.6437,0.6437,0.6437,0.6437,0.6437,0.6437,0.6437,0.6437,0.6437,0.6437,0.6437,0.6437,0.6437,0.6437,0.6437,0.6437,0.6437,0.6437,0.6437,0.6437,0.6437,1.8008,1.8008,1.8008,1.8008,1.8008,1.8008,1.8008,1.8008,1.8008,1.8008,1.8008,1.8008,1.8008,1.8008,1.8008,1.7881,1.7754,1.7724,1.7722,1.7116,1.6201,1.5353,1.5009,1.4144,1.3638,1.3454,1.2748,1.2351,1.2378,1.2325,1.2305,1.2305,1.2305,1.2305,1.2305,1.2305,1.2305,1.2305,1.2305,1.2305,1.2305,1.2305,1.2305,1.2305,1.2305,1.2305,1.2305,1.2305,1.2305,1.2305,1.2305,1.2224,1.2083,1.2009,1.1929,1.1855,1.1706,1.1632,1.1484,1.1409,1.126,1.1111,1.1117,1.1117,1.0968,1.0558,1.0068,0.979,0.8608,0.7664,0.7184,0.682,0.6877,0.7014,0.7115,0.7126,0.7136,0.7139,0.7139,0.7139,0.7058,0.7104,0.7063,0.7204,0.7155,0.7096,0.7128,0.7009,0.6833,0.6642,0.6642,0.6539,0.6437,0.6437,0.6437,0.6437,0.6437,0.6437,0.6437,0.6437,0.6437,0.6437,0.6437,0.6437,0.6437,0.6437,0.6437,0.6437,0.6437,0.6437,0.6437,0.6437,0.6437,0.6437,0.6437,1.8008,1.8008,1.8008,1.8008,1.8008,1.8008,1.8008,1.8008,1.8008,1.8008,1.8008,1.8008,1.8008,1.8008,1.8018,1.8095,1.8319,1.8387,1.8601,1.8701,1.8143,1.7175,1.6287,1.4926,1.4234,1.4121,1.3244,1.2708,1.2605,1.2445,1.2338,1.2305,1.2325,1.2311,1.2305,1.2305,1.2305,1.2305,1.2305,1.2305,1.2305,1.2305,1.2305,1.2305,1.2305,1.2305,1.2305,1.2305,1.2305,1.2305,1.2305,1.2305,1.2231,1.2231,1.2157,1.2077,1.2003,1.1855,1.1632,1.1484,1.1335,1.1111,1.1135,1.1117,1.1123,1.1082,1.11,1.0861,0.9831,0.8728,0.8234,0.7314,0.6993,0.7021,0.7139,0.7139,0.7139,0.7139,0.7139,0.7139,0.7143,0.7141,0.7275,0.7423,0.7472,0.7324,0.7248,0.7138,0.6942,0.6742,0.6639,0.6539,0.6437,0.6437,0.6437,0.6437,0.6437,0.6437,0.6437,0.6437,0.6437,0.6437,0.6437,0.6437,0.6437,0.6437,0.6437,0.6437,0.6437,0.6437,0.6437,0.6437,0.6437,0.6437,0.6437,1.8008,1.8008,1.8008,1.8008,1.8008,1.8008,1.8008,1.8008,1.8008,1.8008,1.8008,1.8008,1.8008,1.8018,1.8193,1.8398,1.8572,1.8828,1.9043,1.9195,1.9001,1.8313,1.7304,1.6125,1.5358,1.4879,1.4014,1.3333,1.2997,1.2759,1.2632,1.2525,1.2485,1.2432,1.2305,1.2305,1.2305,1.2305,1.2305,1.2305,1.2305,1.2305,1.2305,1.2305,1.2305,1.2305,1.2305,1.2305,1.2305,1.2305,1.2305,1.2305,1.2305,1.2305,1.2305,1.2305,1.2157,1.2003,1.1781,1.1558,1.1409,1.1216,1.1196,1.128,1.1341,1.1534,1.1697,1.1084,1.0055,0.9303,0.8577,0.7565,0.7048,0.7034,0.7139,0.7139,0.7139,0.7139,0.7139,0.7153,0.7204,0.7295,0.7448,0.7597,0.7647,0.7684,0.7585,0.7329,0.7039,0.6839,0.6639,0.6539,0.6437,0.6437,0.6437,0.6437,0.6437,0.6437,0.6437,0.6437,0.6437,0.6437,0.6437,0.6437,0.6437,0.6437,0.6437,0.6437,0.6437,0.6437,0.6437,0.6437,0.6437,0.6464,0.6461,1.8008,1.8008,1.8008,1.8008,1.8008,1.8008,1.8008,1.8008,1.8008,1.8008,1.8027,1.8057,1.8135,1.8105,1.8535,1.874,1.8828,1.9209,1.9394,1.9461,1.9344,1.8937,1.8318,1.7379,1.6594,1.5934,1.5071,1.418,1.3608,1.3351,1.3046,1.2852,1.2869,1.2632,1.2458,1.2378,1.2345,1.2311,1.2305,1.2305,1.2305,1.2305,1.2305,1.2305,1.2305,1.2305,1.2305,1.2305,1.2305,1.2305,1.2305,1.2305,1.2305,1.2305,1.2305,1.2305,1.2305,1.2077,1.1781,1.1706,1.1596,1.1277,1.1401,1.1552,1.16,1.1805,1.1721,1.1226,1.0113,0.9221,0.8162,0.741,0.7204,0.7139,0.7139,0.7139,0.7139,0.7139,0.7146,0.717,0.7295,0.7431,0.7597,0.7733,0.7858,0.7848,0.7723,0.7534,0.7341,0.7138,0.6839,0.6539,0.6539,0.6439,0.6437,0.6437,0.6437,0.6437,0.6437,0.6437,0.6437,0.6437,0.6437,0.6437,0.6437,0.6437,0.6437,0.6437,0.6437,0.6437,0.6437,0.6437,0.6442,0.6491,0.651,1.8008,1.8008,1.8008,1.8008,1.8008,1.8008,1.8008,1.8008,1.8008,1.8018,1.8086,1.834,1.8486,1.8516,1.8945,1.9326,1.9561,1.9736,1.9876,2.0072,1.982,1.9703,1.926,1.8346,1.7732,1.7012,1.561,1.4816,1.446,1.3833,1.3193,1.3212,1.3243,1.2953,1.2768,1.2728,1.2607,1.2358,1.2325,1.2325,1.2325,1.2311,1.2305,1.2305,1.2305,1.2305,1.2305,1.2305,1.2305,1.2305,1.2305,1.2305,1.2305,1.2305,1.2305,1.2305,1.2305,1.215,1.1935,1.1819,1.1665,1.1572,1.1611,1.1546,1.1842,1.2077,1.2128,1.168,1.0668,0.9139,0.7687,0.7285,0.7136,0.7139,0.7139,0.7146,0.7143,0.7146,0.72,0.7288,0.736,0.7472,0.7723,0.778,0.7892,0.7905,0.7839,0.7643,0.754,0.7338,0.7039,0.6742,0.6642,0.6539,0.6437,0.6437,0.6437,0.6437,0.6437,0.6437,0.6437,0.6437,0.6437,0.6437,0.6437,0.6437,0.6437,0.6437,0.6437,0.6437,0.6445,0.6464,0.6488,0.6529,0.6584,1.8008,1.8008,1.8008,1.8008,1.8008,1.8008,1.8008,1.8008,1.8008,1.8125,1.8311,1.8564,1.875,1.8975,1.9385,1.9727,1.9932,2.0146,2.0332,2.0372,2.0167,2.0098,1.9942,1.9292,1.8718,1.8035,1.7,1.6267,1.564,1.5197,1.4911,1.4598,1.42,1.3944,1.3536,1.327,1.297,1.2746,1.2579,1.2512,1.2498,1.2365,1.2305,1.2305,1.2305,1.2305,1.2305,1.2305,1.2305,1.2305,1.2305,1.2305,1.2305,1.2305,1.2305,1.2305,1.2305,1.2162,1.1996,1.2074,1.2202,1.1907,1.197,1.2117,1.2213,1.2425,1.2475,1.2097,1.0883,0.9139,0.7401,0.7139,0.7139,0.7139,0.7143,0.717,0.7227,0.7251,0.7272,0.7383,0.7499,0.7628,0.7767,0.7851,0.7919,0.7935,0.7939,0.7842,0.7643,0.7441,0.7144,0.6945,0.6845,0.6742,0.6439,0.6437,0.6437,0.6437,0.6437,0.6437,0.6437,0.6437,0.6437,0.6437,0.6437,0.6437,0.6437,0.6437,0.6442,0.6453,0.6469,0.6499,0.6556,0.6638,0.6684,1.8008,1.8008,1.8008,1.8008,1.8008,1.8008,1.8008,1.8008,1.8008,1.8223,1.8533,1.8621,1.9014,1.9404,1.9824,2.0,2.0117,2.0332,2.0547,2.0557,2.0342,2.0264,2.0177,1.9854,1.9362,1.855,1.8026,1.7471,1.6985,1.6683,1.6056,1.5973,1.538,1.4568,1.4187,1.3743,1.3299,1.31,1.2997,1.2903,1.2792,1.2612,1.2532,1.2525,1.2532,1.2397,1.2357,1.2324,1.2365,1.2311,1.2305,1.2305,1.2305,1.2305,1.2305,1.2311,1.2284,1.2179,1.2196,1.2562,1.2817,1.2424,1.2557,1.2737,1.2748,1.2704,1.2717,1.206,1.1042,0.9218,0.7573,0.7129,0.7132,0.7146,0.7156,0.7238,0.7339,0.74,0.7461,0.7489,0.7624,0.776,0.7858,0.7943,0.7997,0.8038,0.8038,0.7939,0.7743,0.7543,0.7344,0.7144,0.7045,0.6742,0.6537,0.651,0.6502,0.6507,0.6494,0.6497,0.6494,0.6497,0.6499,0.6445,0.6437,0.6437,0.6437,0.6437,0.6448,0.6464,0.6518,0.6573,0.6654,0.6749,0.6793,1.8008,1.8008,1.8008,1.8008,1.8008,1.8008,1.8008,1.8008,1.8027,1.8252,1.8672,1.9023,1.9414,1.9834,2.0264,2.0439,2.043,2.0537,2.0576,2.0566,2.042,2.042,2.0411,2.0177,1.9775,1.945,1.8877,1.8149,1.7674,1.709,1.6724,1.5793,1.5449,1.496,1.4286,1.3824,1.3655,1.3347,1.3286,1.3225,1.3106,1.3033,1.2973,1.2959,1.2953,1.2769,1.2527,1.2563,1.264,1.2338,1.2311,1.2325,1.2371,1.2371,1.2365,1.2304,1.2273,1.2253,1.2415,1.2961,1.348,1.3554,1.3251,1.3035,1.3006,1.293,1.2784,1.226,1.1112,0.9538,0.8364,0.7559,0.7115,0.7156,0.7248,0.7333,0.7411,0.7553,0.7699,0.7719,0.7794,0.7855,0.7936,0.7994,0.8018,0.8038,0.8038,0.8038,0.7939,0.7739,0.764,0.7441,0.7141,0.6839,0.6534,0.6543,0.6603,0.6624,0.6627,0.6638,0.663,0.6603,0.6573,0.651,0.6458,0.6437,0.6437,0.6442,0.6491,0.6537,0.6594,0.6662,0.676,0.6861,0.6923,1.8008,1.8008,1.8008,1.8008,1.8008,1.8008,1.8008,1.8047,1.8242,1.8574,1.9004,1.9424,1.9844,2.0215,2.0439,2.0566,2.0576,2.0576,2.0576,2.0566,2.0489,2.0498,2.0576,2.0333,2.0255,1.9932,1.945,1.8966,1.8647,1.8318,1.7666,1.7342,1.6617,1.5711,1.5122,1.4448,1.4049,1.3722,1.3608,1.3528,1.3414,1.332,1.3227,1.322,1.322,1.2956,1.2772,1.2888,1.2842,1.2729,1.2696,1.2772,1.2759,1.2739,1.2692,1.2599,1.2424,1.2557,1.287,1.3481,1.3865,1.3944,1.3541,1.3252,1.3178,1.3045,1.2705,1.2015,1.2043,1.0539,0.8719,0.7716,0.7197,0.7156,0.7282,0.7404,0.7512,0.7692,0.7811,0.7902,0.7933,0.796,0.7991,0.8028,0.8035,0.8038,0.8038,0.8038,0.8038,0.7939,0.7839,0.7475,0.719,0.6929,0.6743,0.6841,0.6813,0.6733,0.6763,0.6777,0.6738,0.67,0.6635,0.6567,0.6516,0.6486,0.6469,0.6486,0.6548,0.6627,0.673,0.6825,0.6896,0.697,0.7024,1.8008,1.8008,1.8008,1.8008,1.8008,1.8008,1.8008,1.8096,1.8457,1.8857,1.9307,1.9717,2.0137,2.0469,2.0557,2.0576,2.0576,2.0576,2.0576,2.0566,2.0566,2.0576,2.0576,2.0566,2.0489,2.0264,2.002,1.9784,1.9301,1.9134,1.9054,1.8078,1.7107,1.637,1.5779,1.4615,1.4166,1.4015,1.3881,1.3741,1.3667,1.3514,1.3387,1.3387,1.3387,1.33,1.3041,1.3207,1.3147,1.3087,1.3074,1.318,1.32,1.3206,1.312,1.2959,1.266,1.2942,1.3299,1.3817,1.4027,1.4028,1.3724,1.3476,1.3307,1.2966,1.2443,1.1854,1.2055,1.1543,0.9318,0.7796,0.7298,0.7217,0.7336,0.7475,0.7628,0.778,0.7902,0.798,0.8028,0.8038,0.8038,0.8038,0.8038,0.8038,0.8038,0.8038,0.8038,0.8038,0.7856,0.7516,0.7262,0.7024,0.6981,0.7183,0.7135,0.7054,0.7099,0.7025,0.6959,0.6782,0.6719,0.6671,0.6622,0.6594,0.6562,0.6556,0.6635,0.6741,0.688,0.6975,0.7018,0.7054,0.7097,1.8008,1.8008,1.8008,1.8008,1.8008,1.8008,1.8008,1.8066,1.8477,1.8877,1.9316,1.9746,2.0185,2.0488,2.0576,2.0576,2.0576,2.0576,2.0576,2.0576,2.0576,2.0576,2.0576,2.0576,2.0498,2.0342,2.0264,1.9951,1.9636,1.946,1.8559,1.7504,1.7017,1.6049,1.4985,1.4419,1.4088,1.4082,1.4041,1.4021,1.4008,1.3948,1.3928,1.3928,1.3908,1.3808,1.3444,1.3506,1.3514,1.3473,1.3253,1.3227,1.3206,1.3206,1.336,1.3373,1.3277,1.3215,1.3517,1.3868,1.4085,1.4075,1.3822,1.3568,1.3307,1.3045,1.2705,1.2619,1.2723,1.1854,0.9918,0.8119,0.7499,0.7392,0.7557,0.7611,0.7756,0.7855,0.798,0.8004,0.8035,0.8038,0.8038,0.8038,0.8038,0.8038,0.8038,0.8038,0.7955,0.7965,0.7995,0.7661,0.7483,0.7357,0.732,0.7419,0.7362,0.728,0.7317,0.7256,0.708,0.6902,0.6861,0.6812,0.6752,0.6706,0.6687,0.67,0.6749,0.6839,0.6961,0.7048,0.7119,0.7149,0.7154,1.8008,1.8008,1.8008,1.8008,1.8008,1.8008,1.8008,1.8154,1.8711,1.9102,1.9404,2.001,2.04,2.0547,2.0576,2.0576,2.0576,2.0576,2.0576,2.0576,2.0576,2.0576,2.0576,2.0576,2.0498,2.0498,2.0342,2.0264,1.9951,1.9627,1.8886,1.7738,1.709,1.6281,1.4901,1.4334,1.4173,1.4088,1.4082,1.4082,1.4088,1.4088,1.4088,1.4088,1.4088,1.4001,1.3921,1.3895,1.3854,1.3803,1.3707,1.3701,1.3707,1.3721,1.3788,1.3854,1.3798,1.3798,1.3831,1.4021,1.4068,1.3997,1.3822,1.3646,1.3398,1.3137,1.2875,1.2875,1.279,1.2015,1.0646,0.864,0.812,0.792,0.8049,0.7886,0.7921,0.7943,0.8031,0.8035,0.8038,0.8038,0.8038,0.8038,0.8038,0.8038,0.8041,0.8048,0.7989,0.7938,0.7975,0.7926,0.7773,0.7718,0.7678,0.7759,0.7704,0.7618,0.7515,0.7433,0.7188,0.7029,0.6975,0.6907,0.6834,0.6804,0.6804,0.6834,0.6874,0.6953,0.7035,0.7095,0.7146,0.7149,0.7154,1.8008,1.8008,1.8008,1.8008,1.8008,1.8008,1.8008,1.8115,1.8906,1.9277,1.9512,2.0137,2.0557,2.0576,2.0576,2.0576,2.0576,2.0576,2.0576,2.0576,2.0576,2.0576,2.0576,2.0576,2.0576,2.0576,2.0489,2.0411,2.0333,2.0089,1.952,1.8381,1.773,1.6838,1.5869,1.5228,1.4901,1.4496,1.425,1.4088,1.4088,1.4088,1.4088,1.4088,1.4088,1.4088,1.4088,1.4075,1.4068,1.4048,1.4028,1.4001,1.4015,1.4001,1.4008,1.4041,1.4035,1.4041,1.4041,1.4082,1.4088,1.3997,1.3822,1.3561,1.3307,1.3137,1.3052,1.296,1.279,1.2221,1.1239,0.9557,0.9341,0.9062,0.8804,0.8442,0.816,0.8072,0.8038,0.8038,0.8038,0.8038,0.8038,0.8038,0.8038,0.8038,0.8045,0.8058,0.8026,0.8004,0.8104,0.817,0.8187,0.8142,0.8231,0.8194,0.8033,0.7826,0.7718,0.7598,0.7346,0.7207,0.7054,0.6983,0.6921,0.6948,0.6975,0.6986,0.6997,0.7051,0.7097,0.7124,0.7154,0.7154,0.7154,1.8008,1.8008,1.8008,1.8008,1.8008,1.8008,1.8008,1.8086,1.8916,1.9316,1.9521,2.0146,2.0576,2.0576,2.0576,2.0576,2.0576,2.0576,2.0576,2.0576,2.0576,2.0576,2.0576,2.0576,2.0576,2.0576,2.0566,2.0566,2.0566,2.0489,1.9687,1.8718,1.8301,1.7649,1.6838,1.6116,1.5477,1.4992,1.4419,1.4088,1.4088,1.4088,1.4088,1.4088,1.4088,1.4088,1.4088,1.4088,1.4088,1.4088,1.4088,1.4088,1.4088,1.4088,1.4088,1.4088,1.4088,1.4088,1.4088,1.4088,1.4088,1.3997,1.3913,1.3652,1.3392,1.3228,1.2966,1.2912,1.2875,1.2533,1.1926,1.1332,1.0721,1.025,0.9776,0.9115,0.8717,0.8181,0.8038,0.8038,0.8038,0.8038,0.8038,0.8038,0.8038,0.8038,0.8106,0.8123,0.8214,0.8203,0.8459,0.8451,0.8642,0.8659,0.8773,0.8716,0.8491,0.8156,0.8045,0.7829,0.7598,0.7351,0.7103,0.71,0.7056,0.7103,0.7122,0.7076,0.7065,0.7116,0.7152,0.7154,0.7154,0.7154,0.7154,1.8008,1.8008,1.8008,1.8008,1.8008,1.8008,1.8008,1.8154,1.8906,1.9609,2.0078,2.042,2.0576,2.0576,2.0576,2.0576,2.0576,2.0576,2.0576,2.0576,2.0576,2.0576,2.0576,2.0576,2.0576,2.0576,2.0576,2.0576,2.0566,2.0576,2.0333,1.9608,1.8877,1.79,1.7172,1.6363,1.556,1.4824,1.4334,1.4088,1.4088,1.4088,1.4088,1.4088,1.4088,1.4088,1.4088,1.4088,1.4088,1.4088,1.4088,1.4088,1.4088,1.4088,1.4088,1.4088,1.4088,1.4088,1.4088,1.4088,1.4088,1.4088,1.4004,1.3828,1.3568,1.3489,1.342,1.3318,1.3138,1.2815,1.2849,1.2296,1.1646,1.1412,1.0866,1.0099,0.9371,0.8715,0.8137,0.8038,0.8038,0.8038,0.8038,0.8038,0.8038,0.8045,0.8123,0.8211,0.8316,0.8418,0.8567,0.8682,0.8764,0.8815,0.892,0.8826,0.8823,0.8488,0.8263,0.8045,0.7715,0.7379,0.7138,0.7154,0.7154,0.7146,0.7133,0.7111,0.7119,0.7143,0.7154,0.7154,0.7154,0.7154,0.7154,1.8008,1.8008,1.8008,1.8008,1.8008,1.8008,1.8008,1.8164,1.8916,1.9766,2.0557,2.0576,2.0576,2.0576,2.0576,2.0576,2.0576,2.0576,2.0576,2.0576,2.0576,2.0576,2.0576,2.0576,2.0576,2.0576,2.0576,2.0576,2.0576,2.0576,2.0411,1.9932,1.9204,1.8141,1.7334,1.6041,1.5159,1.4671,1.4257,1.4088,1.4088,1.4088,1.4088,1.4088,1.4088,1.4088,1.4088,1.4088,1.4088,1.4088,1.4088,1.4088,1.4088,1.4088,1.4088,1.4088,1.4088,1.4088,1.4088,1.4088,1.4088,1.4088,1.4088,1.3997,1.3835,1.3632,1.3553,1.3411,1.3352,1.3357,1.3598,1.3095,1.2858,1.2702,1.1727,1.0947,1.0173,0.941,0.8627,0.8137,0.8038,0.8041,0.8079,0.8092,0.8147,0.8147,0.818,0.8309,0.8476,0.8577,0.8679,0.8781,0.8855,0.8899,0.8937,0.8826,0.8826,0.8712,0.8488,0.8263,0.7931,0.7598,0.7268,0.7379,0.7379,0.7268,0.7146,0.713,0.7138,0.7152,0.7154,0.7154,0.7154,0.7154,0.7154,1.8008,1.8008,1.8008,1.8008,1.8008,1.8008,1.8008,1.8125,1.8916,1.9766,2.0508,2.0576,2.0576,2.0576,2.0576,2.0576,2.0576,2.0576,2.0576,2.0576,2.0576,2.0576,2.0576,2.0576,2.0576,2.0576,2.0576,2.0576,2.0576,2.0576,2.0498,1.9932,1.8957,1.8158,1.798,1.637,1.5582,1.5521,1.451,1.4173,1.4088,1.4088,1.4088,1.4088,1.4088,1.4088,1.4088,1.4088,1.4088,1.4088,1.4088,1.4088,1.4088,1.4088,1.4088,1.4088,1.4088,1.4088,1.4088,1.4088,1.4088,1.4088,1.4088,1.4024,1.3638,1.3608,1.3749,1.3634,1.3489,1.3622,1.3797,1.383,1.388,1.3582,1.2603,1.1658,1.0779,0.9899,0.9019,0.8233,0.8038,0.8048,0.8102,0.8157,0.8245,0.8275,0.8269,0.8391,0.8591,0.8713,0.8801,0.8838,0.8906,0.892,0.8937,0.8937,0.8826,0.8823,0.8598,0.8374,0.8152,0.7823,0.7715,0.7604,0.7493,0.7379,0.7268,0.7152,0.7154,0.7154,0.7154,0.7154,0.7154,0.7154,0.7154,1.8008,1.8008,1.8008,1.8008,1.8008,1.8008,1.8008,1.8154,1.8916,1.9775,2.0449,2.0576,2.0576,2.0576,2.0576,2.0576,2.0576,2.0576,2.0576,2.0576,2.0576,2.0576,2.0576,2.0576,2.0576,2.0576,2.0576,2.0576,2.0576,2.0576,2.0333,1.9775,1.8399,1.74,1.6942,1.5952,1.5242,1.4762,1.4257,1.4088,1.4088,1.4088,1.4088,1.4088,1.4088,1.4088,1.4088,1.4088,1.4088,1.4088,1.4088,1.4088,1.4088,1.4088,1.4088,1.4088,1.4088,1.4088,1.4088,1.4088,1.4088,1.4095,1.4122,1.4117,1.409,1.3909,1.3888,1.3991,1.3866,1.4005,1.4099,1.4153,1.4148,1.3957,1.3125,1.2145,1.117,1.0092,0.9213,0.8432,0.8038,0.8113,0.8174,0.8252,0.8336,0.8476,0.8503,0.853,0.8689,0.8804,0.8896,0.8899,0.893,0.8933,0.8937,0.8937,0.8937,0.8826,0.8709,0.8484,0.8263,0.8159,0.8048,0.7826,0.7715,0.7493,0.7379,0.7268,0.7265,0.7154,0.7154,0.7154,0.7154,0.7154,0.7154,1.8008,1.8008,1.8008,1.8008,1.8008,1.8008,1.8144,1.8506,1.9072,1.9766,2.043,2.0576,2.0576,2.0576,2.0576,2.0576,2.0576,2.0576,2.0576,2.0576,2.0576,2.0576,2.0576,2.0576,2.0576,2.0576,2.0576,2.0576,2.0576,2.0576,2.0167,1.9125,1.7666,1.6609,1.5906,1.5054,1.4664,1.4257,1.4088,1.4088,1.4088,1.4088,1.4088,1.4088,1.4088,1.4088,1.4088,1.4088,1.4088,1.4088,1.4088,1.4088,1.4088,1.4088,1.4088,1.4088,1.4088,1.4088,1.4088,1.4235,1.4255,1.4269,1.4242,1.4329,1.4462,1.4281,1.4359,1.4438,1.4341,1.4395,1.4441,1.44,1.4298,1.4106,1.3709,1.2732,1.1853,1.0779,0.9899,0.9019,0.8161,0.8251,0.8258,0.8347,0.8431,0.8594,0.8743,0.8764,0.8777,0.8862,0.8937,0.8937,0.8937,0.8937,0.8937,0.8937,0.8937,0.8937,0.8823,0.8598,0.8598,0.838,0.8269,0.8156,0.7826,0.7604,0.7382,0.7268,0.7268,0.7154,0.7154,0.7154,0.7154,0.7154,0.7154,1.8008,1.8008,1.8008,1.8008,1.8008,1.8008,1.8457,1.9228,1.9277,1.9766,2.0634,2.0576,2.0576,2.0576,2.0576,2.0576,2.0576,2.0576,2.0576,2.0576,2.0576,2.0576,2.0576,2.0576,2.0576,2.0576,2.0576,2.0576,2.0576,2.0489,1.9844,1.8709,1.7496,1.6257,1.5177,1.4461,1.4328,1.4088,1.4088,1.4088,1.4088,1.4088,1.4088,1.4088,1.4088,1.4088,1.4088,1.4088,1.4088,1.4088,1.4088,1.4088,1.4088,1.4088,1.4088,1.4088,1.4088,1.4095,1.4182,1.4376,1.4496,1.4522,1.4583,1.4475,1.4438,1.4656,1.4806,1.4814,1.4785,1.4785,1.4694,1.4592,1.4496,1.4394,1.4298,1.3516,1.2635,1.1755,1.0779,0.9813,0.8862,0.8456,0.8409,0.8411,0.8543,0.8699,0.8832,0.8859,0.8869,0.8879,0.8937,0.8937,0.8937,0.8937,0.8937,0.8937,0.8937,0.8937,0.8937,0.8823,0.8716,0.8716,0.8602,0.838,0.7937,0.7604,0.7379,0.7268,0.7265,0.7154,0.7154,0.7154,0.7154,0.7154,0.7154,1.8008,1.8008,1.8008,1.8008,1.8008,1.8008,1.8496,1.9228,1.9287,1.9766,2.0576,2.0576,2.0576,2.0576,2.0576,2.0576,2.0576,2.0576,2.0576,2.0576,2.0576,2.0576,2.0576,2.0576,2.0576,2.0576,2.0576,2.0576,2.0498,2.0333,1.9608,1.8559,1.7334,1.6093,1.5289,1.4489,1.425,1.4088,1.4088,1.4088,1.4088,1.4088,1.4088,1.4088,1.4088,1.4088,1.4088,1.4088,1.4088,1.4088,1.4088,1.4088,1.4088,1.4088,1.4088,1.4088,1.4108,1.4162,1.4362,1.4469,1.4609,1.4843,1.5003,1.513,1.5113,1.5015,1.5132,1.5168,1.507,1.4949,1.479,1.4688,1.4496,1.44,1.4298,1.3811,1.3028,1.2436,1.1468,1.0362,0.9306,0.8751,0.8595,0.8526,0.8662,0.8808,0.8899,0.8923,0.8937,0.8937,0.8937,0.8937,0.8937,0.8937,0.8937,0.8937,0.8937,0.8937,0.8937,0.8937,0.8826,0.8826,0.8823,0.8602,0.8159,0.7712,0.7268,0.7268,0.7382,0.7268,0.7265,0.7265,0.7154,0.7265,0.7154,1.8269,1.8076,1.8269,1.8269,1.8008,1.8008,1.8496,1.9189,1.9277,1.9766,2.0518,2.0576,2.0576,2.0576,2.0576,2.0576,2.0576,2.0576,2.0576,2.0576,2.0576,2.0576,2.0576,2.0576,2.0576,2.0576,2.0576,2.0576,2.0411,1.9854,1.9125,1.8559,1.7098,1.6312,1.5506,1.4678,1.4166,1.4088,1.4088,1.4088,1.4088,1.4088,1.4088,1.4088,1.4088,1.4088,1.4088,1.4088,1.4088,1.4088,1.4088,1.4088,1.4088,1.4088,1.4088,1.4088,1.4095,1.4242,1.4449,1.4643,1.485,1.511,1.5391,1.5518,1.5458,1.5404,1.5497,1.5488,1.5229,1.4975,1.4783,1.4694,1.4496,1.4298,1.4202,1.4004,1.3511,1.292,1.1913,1.0816,0.9948,0.9289,0.9025,0.8849,0.8757,0.8862,0.8916,0.8927,0.8937,0.8937,0.8937,0.8937,0.8937,0.8937,0.8937,0.8937,0.8937,0.8937,0.8937,0.8937,0.8937,0.8826,0.8823,0.8598,0.8377,0.7931,0.7601,0.7607,0.7607,0.7493,0.7379,0.749,0.7379,0.7268,0.7268,1.8721,1.8269,1.8777,1.8586,1.8076,1.8018,1.8496,1.9238,1.9277,1.9766,2.0459,2.0576,2.0576,2.0576,2.0576,2.0576,2.0576,2.0576,2.0576,2.0576,2.0576,2.0576,2.0576,2.0576,2.0576,2.0576,2.0576,2.0576,2.0323,1.9687,1.8886,1.839,1.6683,1.5643,1.5264,1.4594,1.4088,1.4088,1.4088,1.4088,1.4088,1.4088,1.4088,1.4088,1.4088,1.4088,1.4088,1.4088,1.4088,1.4088,1.4088,1.4088,1.4088,1.4088,1.4088,1.4128,1.4148,1.4362,1.4616,1.4856,1.5137,1.5404,1.5671,1.5738,1.5745,1.5644,1.5697,1.5615,1.535,1.5172,1.4981,1.4694,1.44,1.4298,1.4202,1.4196,1.3908,1.334,1.2433,1.1359,1.0623,0.9876,0.8917,0.8733,0.8815,0.891,0.8937,0.8937,0.8937,0.8937,0.8937,0.8937,0.8937,0.8937,0.8937,0.8937,0.8937,0.8937,0.8937,0.8937,0.8937,0.8826,0.8823,0.8598,0.8484,0.8266,0.8048,0.794,0.7829,0.7826,0.7823,0.7826,0.7715,0.749,0.7268,1.9704,1.9573,1.9177,1.8586,1.8008,1.8008,1.8496,1.9258,1.9277,1.9766,2.0536,2.0576,2.0576,2.0576,2.0576,2.0576,2.0576,2.0576,2.0576,2.0576,2.0576,2.0576,2.0576,2.0576,2.0576,2.0576,2.0576,2.0566,2.0323,1.952,1.8479,1.7666,1.6288,1.5484,1.4838,1.4257,1.4166,1.4166,1.4088,1.4088,1.4088,1.4088,1.4088,1.4088,1.4088,1.4088,1.4088,1.4088,1.4088,1.4088,1.4088,1.4088,1.4088,1.4088,1.4088,1.4122,1.4269,1.4516,1.479,1.5077,1.5371,1.5591,1.5778,1.5805,1.5825,1.5825,1.573,1.5642,1.5547,1.5267,1.4987,1.4688,1.4394,1.4394,1.4298,1.4298,1.4298,1.3676,1.2948,1.2049,1.1212,1.0272,0.9208,0.8798,0.8882,0.8923,0.8933,0.8937,0.8937,0.8937,0.8937,0.8937,0.8937,0.8937,0.8937,0.8937,0.8937,0.8937,0.8937,0.8937,0.8937,0.8826,0.8823,0.8598,0.8484,0.8377,0.8269,0.8045,0.8045,0.8159,0.8159,0.8159,0.7937,0.7712,0.749,2.0344,2.0042,1.9309,1.8586,1.8066,1.8008,1.8496,1.918,1.9287,1.9766,2.0488,2.0576,2.0576,2.0576,2.0576,2.0576,2.0576,2.0576,2.0576,2.0576,2.0576,2.0576,2.0576,2.0576,2.0576,2.0576,2.0576,2.0566,2.0401,1.959,1.855,1.7827,1.669,1.556,1.4824,1.4573,1.4243,1.4243,1.4166,1.4088,1.4088,1.4088,1.4088,1.4088,1.4088,1.4088,1.4088,1.4088,1.4088,1.4088,1.4088,1.4088,1.4088,1.4088,1.4088,1.4162,1.4349,1.4656,1.4943,1.5244,1.5531,1.5732,1.5825,1.5825,1.5825,1.5825,1.5825,1.573,1.5547,1.5356,1.4975,1.4682,1.449,1.4394,1.4298,1.4298,1.4298,1.4033,1.2958,1.1822,1.1156,1.0565,0.9585,0.8862,0.8927,0.8927,0.8937,0.8937,0.8937,0.8937,0.8937,0.8937,0.8937,0.8937,0.8937,0.8937,0.8937,0.8937,0.8937,0.8937,0.8937,0.8937,0.8823,0.8712,0.8709,0.8602,0.8491,0.8377,0.838,0.8494,0.8494,0.838,0.8159,0.7934,0.7712,2.088,2.0161,1.9431,1.8787,1.8134,1.8008,1.8496,1.9189,1.9287,1.9766,2.0498,2.0576,2.0576,2.0576,2.0576,2.0576,2.0576,2.0576,2.0576,2.0576,2.0576,2.0576,2.0576,2.0576,2.0576,2.0576,2.0576,2.0576,2.0566,1.9599,1.8957,1.855,1.7496,1.6116,1.5711,1.522,1.4657,1.4321,1.4159,1.4088,1.4088,1.4088,1.4088,1.4088,1.4088,1.4088,1.4088,1.4088,1.4088,1.4088,1.4088,1.4088,1.4088,1.4088,1.4088,1.4168,1.4456,1.4716,1.4977,1.5311,1.5565,1.5758,1.5805,1.5825,1.5825,1.5825,1.5825,1.573,1.554,1.535,1.5064,1.4771,1.4586,1.4394,1.4394,1.4298,1.4298,1.434,1.3275,1.1952,1.1481,1.0974,1.0074,0.924,0.9047,0.9047,0.8937,0.8937,0.8937,0.8937,0.8937,0.8937,0.8937,0.8937,0.8937,0.8937,0.8937,0.8937,0.8937,0.8937,0.8937,0.8937,0.8937,0.8937,0.8826,0.8826,0.8826,0.8716,0.8826,0.883,0.8716,0.8605,0.8491,0.8269,0.7934,2.1588,2.0869,2.0161,1.9441,1.8787,1.8269,1.8496,1.9199,1.9297,1.9766,2.041,2.0576,2.0576,2.0576,2.0576,2.0576,2.0576,2.0576,2.0576,2.0576,2.0576,2.0576,2.0576,2.0576,2.0576,2.0576,2.0576,2.0576,2.0566,1.9766,1.9125,1.8957,1.8141,1.6927,1.5876,1.5477,1.5242,1.4664,1.4159,1.4088,1.4088,1.4088,1.4088,1.4088,1.4088,1.4088,1.4088,1.4088,1.4088,1.4088,1.4088,1.4088,1.4088,1.4088,1.4088,1.4222,1.4516,1.4796,1.507,1.5438,1.5718,1.5785,1.5825,1.5825,1.5825,1.5825,1.5825,1.573,1.5642,1.5642,1.5356,1.4879,1.4688,1.4496,1.4394,1.4394,1.4298,1.44,1.3968,1.3308,1.2888,1.1907,1.0595,1.0025,0.9588,0.9482,0.8937,0.8937,0.8937,0.8937,0.8937,0.8937,0.8937,0.8937,0.8937,0.8937,0.8937,0.8937,0.8937,0.8937,0.8937,0.8937,0.8937,0.8937,0.8937,0.8826,0.8937,0.8937,0.8937,0.8826,0.8937,0.8826,0.8716,0.8602,0.8266]}]]